<?xml version="1.0" encoding="UTF-8" standalone="no" ?><gpx xmlns="http://www.topografix.com/GPX/1/1" xmlns:gpxx="http://www.garmin.com/xmlschemas/GpxExtensions/v3" xmlns:wptx1="http://www.garmin.com/xmlschemas/WaypointExtension/v1" xmlns:gpxtpx="http://www.garmin.com/xmlschemas/TrackPointExtension/v1" creator="GuideVTT.com" version="1.1" xmlns:xsi="http://www.w3.org/2001/XMLSchema-instance" xsi:schemaLocation="http://www.topografix.com/GPX/1/1 http://www.topografix.com/GPX/1/1/gpx.xsd http://www.garmin.com/xmlschemas/GpxExtensions/v3 http://www8.garmin.com/xmlschemas/GpxExtensionsv3.xsd http://www.garmin.com/xmlschemas/WaypointExtension/v1 http://www8.garmin.com/xmlschemas/WaypointExtensionv1.xsd http://www.garmin.com/xmlschemas/TrackPointExtension/v1 http://www.garmin.com/xmlschemas/TrackPointExtensionv1.xsd">
<metadata><link href="http://www.garmin.com"><text>Garmin International</text></link><time>2013-06-22T15:13:50Z</time></metadata>
<trk><name>2023rp8.gpx</name><extensions><gpxx:TrackExtension><gpxx:DisplayColor>Cyan</gpxx:DisplayColor></gpxx:TrackExtension></extensions><trkseg>
<trkpt lat="46.49435" lon="6.70939"><ele>385.6</ele><time>2023-06-17T14:45:13Z</time></trkpt>
<trkpt lat="46.49444" lon="6.7094"><ele>385.6</ele><time>2023-06-17T14:45:17Z</time></trkpt>
<trkpt lat="46.49451" lon="6.70928"><ele>385.8</ele><time>2023-06-17T14:45:22Z</time></trkpt>
<trkpt lat="46.49455" lon="6.70922"><ele>385.8</ele><time>2023-06-17T14:45:24Z</time></trkpt>
<trkpt lat="46.49467" lon="6.70905"><ele>385.8</ele><time>2023-06-17T14:45:30Z</time></trkpt>
<trkpt lat="46.49473" lon="6.70897"><ele>385.6</ele><time>2023-06-17T14:45:33Z</time></trkpt>
<trkpt lat="46.49476" lon="6.70897"><ele>385.8</ele><time>2023-06-17T14:45:34Z</time></trkpt>
<trkpt lat="46.49482" lon="6.70898"><ele>385.8</ele><time>2023-06-17T14:45:36Z</time></trkpt>
<trkpt lat="46.49486" lon="6.70902"><ele>386.6</ele><time>2023-06-17T14:45:39Z</time></trkpt>
<trkpt lat="46.49488" lon="6.70904"><ele>387</ele><time>2023-06-17T14:45:41Z</time></trkpt>
<trkpt lat="46.49492" lon="6.70911"><ele>387.6</ele><time>2023-06-17T14:45:46Z</time></trkpt>
<trkpt lat="46.49493" lon="6.70914"><ele>388</ele><time>2023-06-17T14:45:48Z</time></trkpt>
<trkpt lat="46.49496" lon="6.70923"><ele>388.8</ele><time>2023-06-17T14:45:53Z</time></trkpt>
<trkpt lat="46.49498" lon="6.70928"><ele>389.6</ele><time>2023-06-17T14:45:56Z</time></trkpt>
<trkpt lat="46.49498" lon="6.70933"><ele>390</ele><time>2023-06-17T14:45:59Z</time></trkpt>
<trkpt lat="46.49496" lon="6.70936"><ele>390.4</ele><time>2023-06-17T14:46:01Z</time></trkpt>
<trkpt lat="46.49495" lon="6.70938"><ele>390.4</ele><time>2023-06-17T14:46:02Z</time></trkpt>
<trkpt lat="46.49492" lon="6.70942"><ele>390.6</ele><time>2023-06-17T14:46:04Z</time></trkpt>
<trkpt lat="46.4949" lon="6.70947"><ele>391</ele><time>2023-06-17T14:46:06Z</time></trkpt>
<trkpt lat="46.49489" lon="6.70949"><ele>391</ele><time>2023-06-17T14:46:07Z</time></trkpt>
<trkpt lat="46.49489" lon="6.70953"><ele>391.2</ele><time>2023-06-17T14:46:09Z</time></trkpt>
<trkpt lat="46.49486" lon="6.70963"><ele>391.8</ele><time>2023-06-17T14:46:14Z</time></trkpt>
<trkpt lat="46.49482" lon="6.70971"><ele>392.2</ele><time>2023-06-17T14:46:18Z</time></trkpt>
<trkpt lat="46.4948" lon="6.70975"><ele>392.4</ele><time>2023-06-17T14:46:20Z</time></trkpt>
<trkpt lat="46.49473" lon="6.70987"><ele>393</ele><time>2023-06-17T14:46:26Z</time></trkpt>
<trkpt lat="46.49472" lon="6.70989"><ele>393.2</ele><time>2023-06-17T14:46:27Z</time></trkpt>
<trkpt lat="46.49464" lon="6.71003"><ele>394</ele><time>2023-06-17T14:46:34Z</time></trkpt>
<trkpt lat="46.49463" lon="6.71006"><ele>394.2</ele><time>2023-06-17T14:46:36Z</time></trkpt>
<trkpt lat="46.49458" lon="6.71013"><ele>395</ele><time>2023-06-17T14:46:41Z</time></trkpt>
<trkpt lat="46.49454" lon="6.71019"><ele>395.4</ele><time>2023-06-17T14:46:44Z</time></trkpt>
<trkpt lat="46.49444" lon="6.7103"><ele>395.6</ele><time>2023-06-17T14:46:50Z</time></trkpt>
<trkpt lat="46.49429" lon="6.71043"><ele>395</ele><time>2023-06-17T14:46:57Z</time></trkpt>
<trkpt lat="46.49418" lon="6.71053"><ele>395.8</ele><time>2023-06-17T14:47:02Z</time></trkpt>
<trkpt lat="46.49414" lon="6.71055"><ele>396.2</ele><time>2023-06-17T14:47:04Z</time></trkpt>
<trkpt lat="46.49411" lon="6.71055"><ele>396.2</ele><time>2023-06-17T14:47:05Z</time></trkpt>
<trkpt lat="46.494" lon="6.71059"><ele>395.8</ele><time>2023-06-17T14:47:08Z</time></trkpt>
<trkpt lat="46.4938" lon="6.71075"><ele>394.2</ele><time>2023-06-17T14:47:12Z</time></trkpt>
<trkpt lat="46.49374" lon="6.71079"><ele>394</ele><time>2023-06-17T14:47:13Z</time></trkpt>
<trkpt lat="46.49369" lon="6.71084"><ele>393.8</ele><time>2023-06-17T14:47:14Z</time></trkpt>
<trkpt lat="46.49352" lon="6.71099"><ele>393.4</ele><time>2023-06-17T14:47:17Z</time></trkpt>
<trkpt lat="46.49347" lon="6.71105"><ele>393.2</ele><time>2023-06-17T14:47:18Z</time></trkpt>
<trkpt lat="46.49342" lon="6.71112"><ele>393</ele><time>2023-06-17T14:47:19Z</time></trkpt>
<trkpt lat="46.49326" lon="6.71139"><ele>392.8</ele><time>2023-06-17T14:47:23Z</time></trkpt>
<trkpt lat="46.4932" lon="6.71152"><ele>394</ele><time>2023-06-17T14:47:27Z</time></trkpt>
<trkpt lat="46.4932" lon="6.71153"><ele>394.4</ele><time>2023-06-17T14:47:28Z</time></trkpt>
<trkpt lat="46.49317" lon="6.7116"><ele>395.4</ele><time>2023-06-17T14:47:32Z</time></trkpt>
<trkpt lat="46.49316" lon="6.71161"><ele>395.4</ele><time>2023-06-17T14:47:33Z</time></trkpt>
<trkpt lat="46.49314" lon="6.71162"><ele>395.6</ele><time>2023-06-17T14:47:34Z</time></trkpt>
<trkpt lat="46.49311" lon="6.71167"><ele>396.2</ele><time>2023-06-17T14:47:37Z</time></trkpt>
<trkpt lat="46.49309" lon="6.71171"><ele>396.8</ele><time>2023-06-17T14:47:39Z</time></trkpt>
<trkpt lat="46.49304" lon="6.71184"><ele>397.8</ele><time>2023-06-17T14:47:44Z</time></trkpt>
<trkpt lat="46.49298" lon="6.71192"><ele>398.6</ele><time>2023-06-17T14:47:48Z</time></trkpt>
<trkpt lat="46.49295" lon="6.71199"><ele>398.8</ele><time>2023-06-17T14:47:51Z</time></trkpt>
<trkpt lat="46.49294" lon="6.71201"><ele>399.2</ele><time>2023-06-17T14:47:52Z</time></trkpt>
<trkpt lat="46.49281" lon="6.71217"><ele>400</ele><time>2023-06-17T14:48:00Z</time></trkpt>
<trkpt lat="46.49279" lon="6.71219"><ele>400</ele><time>2023-06-17T14:48:01Z</time></trkpt>
<trkpt lat="46.49265" lon="6.71233"><ele>401.2</ele><time>2023-06-17T14:48:09Z</time></trkpt>
<trkpt lat="46.49259" lon="6.71239"><ele>401.4</ele><time>2023-06-17T14:48:12Z</time></trkpt>
<trkpt lat="46.49246" lon="6.71253"><ele>402.2</ele><time>2023-06-17T14:48:19Z</time></trkpt>
<trkpt lat="46.4924" lon="6.7126"><ele>402.6</ele><time>2023-06-17T14:48:22Z</time></trkpt>
<trkpt lat="46.49231" lon="6.71272"><ele>403.2</ele><time>2023-06-17T14:48:27Z</time></trkpt>
<trkpt lat="46.49225" lon="6.71281"><ele>404</ele><time>2023-06-17T14:48:31Z</time></trkpt>
<trkpt lat="46.49221" lon="6.71289"><ele>404.4</ele><time>2023-06-17T14:48:35Z</time></trkpt>
<trkpt lat="46.49218" lon="6.71293"><ele>405</ele><time>2023-06-17T14:48:37Z</time></trkpt>
<trkpt lat="46.49217" lon="6.71296"><ele>405.2</ele><time>2023-06-17T14:48:38Z</time></trkpt>
<trkpt lat="46.49215" lon="6.71301"><ele>405.6</ele><time>2023-06-17T14:48:40Z</time></trkpt>
<trkpt lat="46.4921" lon="6.71312"><ele>406</ele><time>2023-06-17T14:48:44Z</time></trkpt>
<trkpt lat="46.49204" lon="6.71331"><ele>405.4</ele><time>2023-06-17T14:48:48Z</time></trkpt>
<trkpt lat="46.49203" lon="6.71336"><ele>405.4</ele><time>2023-06-17T14:48:49Z</time></trkpt>
<trkpt lat="46.492" lon="6.71362"><ele>406</ele><time>2023-06-17T14:48:55Z</time></trkpt>
<trkpt lat="46.49199" lon="6.71371"><ele>406.6</ele><time>2023-06-17T14:48:58Z</time></trkpt>
<trkpt lat="46.49199" lon="6.71385"><ele>407.6</ele><time>2023-06-17T14:49:03Z</time></trkpt>
<trkpt lat="46.49198" lon="6.71388"><ele>407.8</ele><time>2023-06-17T14:49:04Z</time></trkpt>
<trkpt lat="46.49198" lon="6.71392"><ele>407.8</ele><time>2023-06-17T14:49:05Z</time></trkpt>
<trkpt lat="46.49198" lon="6.71396"><ele>407.8</ele><time>2023-06-17T14:49:06Z</time></trkpt>
<trkpt lat="46.49199" lon="6.714"><ele>407.8</ele><time>2023-06-17T14:49:07Z</time></trkpt>
<trkpt lat="46.49199" lon="6.71415"><ele>407.8</ele><time>2023-06-17T14:49:10Z</time></trkpt>
<trkpt lat="46.49196" lon="6.71443"><ele>407</ele><time>2023-06-17T14:49:14Z</time></trkpt>
<trkpt lat="46.49194" lon="6.71451"><ele>406.2</ele><time>2023-06-17T14:49:15Z</time></trkpt>
<trkpt lat="46.49188" lon="6.71478"><ele>404.8</ele><time>2023-06-17T14:49:18Z</time></trkpt>
<trkpt lat="46.49184" lon="6.71494"><ele>404.8</ele><time>2023-06-17T14:49:20Z</time></trkpt>
<trkpt lat="46.49176" lon="6.71524"><ele>406</ele><time>2023-06-17T14:49:25Z</time></trkpt>
<trkpt lat="46.49171" lon="6.7154"><ele>407.2</ele><time>2023-06-17T14:49:29Z</time></trkpt>
<trkpt lat="46.49168" lon="6.71547"><ele>407.6</ele><time>2023-06-17T14:49:31Z</time></trkpt>
<trkpt lat="46.49163" lon="6.71557"><ele>407.6</ele><time>2023-06-17T14:49:34Z</time></trkpt>
<trkpt lat="46.49153" lon="6.71574"><ele>408.4</ele><time>2023-06-17T14:49:39Z</time></trkpt>
<trkpt lat="46.49151" lon="6.7158"><ele>408.8</ele><time>2023-06-17T14:49:41Z</time></trkpt>
<trkpt lat="46.49146" lon="6.71589"><ele>409.4</ele><time>2023-06-17T14:49:45Z</time></trkpt>
<trkpt lat="46.49144" lon="6.71595"><ele>410</ele><time>2023-06-17T14:49:47Z</time></trkpt>
<trkpt lat="46.49139" lon="6.71606"><ele>410.8</ele><time>2023-06-17T14:49:51Z</time></trkpt>
<trkpt lat="46.49137" lon="6.71609"><ele>411</ele><time>2023-06-17T14:49:52Z</time></trkpt>
<trkpt lat="46.49125" lon="6.71627"><ele>412</ele><time>2023-06-17T14:49:58Z</time></trkpt>
<trkpt lat="46.49108" lon="6.71651"><ele>412</ele><time>2023-06-17T14:50:05Z</time></trkpt>
<trkpt lat="46.49106" lon="6.71654"><ele>412.2</ele><time>2023-06-17T14:50:06Z</time></trkpt>
<trkpt lat="46.49084" lon="6.71686"><ele>411.8</ele><time>2023-06-17T14:50:14Z</time></trkpt>
<trkpt lat="46.49074" lon="6.71706"><ele>410.8</ele><time>2023-06-17T14:50:17Z</time></trkpt>
<trkpt lat="46.49069" lon="6.71713"><ele>410.2</ele><time>2023-06-17T14:50:18Z</time></trkpt>
<trkpt lat="46.49064" lon="6.7172"><ele>409.6</ele><time>2023-06-17T14:50:19Z</time></trkpt>
<trkpt lat="46.49052" lon="6.71733"><ele>408.4</ele><time>2023-06-17T14:50:21Z</time></trkpt>
<trkpt lat="46.49044" lon="6.71739"><ele>408</ele><time>2023-06-17T14:50:22Z</time></trkpt>
<trkpt lat="46.49037" lon="6.71745"><ele>407</ele><time>2023-06-17T14:50:23Z</time></trkpt>
<trkpt lat="46.49024" lon="6.7176"><ele>405.4</ele><time>2023-06-17T14:50:25Z</time></trkpt>
<trkpt lat="46.49011" lon="6.71776"><ele>404.4</ele><time>2023-06-17T14:50:27Z</time></trkpt>
<trkpt lat="46.49004" lon="6.71782"><ele>404.2</ele><time>2023-06-17T14:50:28Z</time></trkpt>
<trkpt lat="46.4899" lon="6.71792"><ele>403</ele><time>2023-06-17T14:50:30Z</time></trkpt>
<trkpt lat="46.48982" lon="6.71799"><ele>402.6</ele><time>2023-06-17T14:50:31Z</time></trkpt>
<trkpt lat="46.48971" lon="6.71818"><ele>401.2</ele><time>2023-06-17T14:50:33Z</time></trkpt>
<trkpt lat="46.48966" lon="6.71828"><ele>400.6</ele><time>2023-06-17T14:50:34Z</time></trkpt>
<trkpt lat="46.4896" lon="6.71837"><ele>400</ele><time>2023-06-17T14:50:35Z</time></trkpt>
<trkpt lat="46.48941" lon="6.71866"><ele>398.8</ele><time>2023-06-17T14:50:38Z</time></trkpt>
<trkpt lat="46.48936" lon="6.71876"><ele>398.6</ele><time>2023-06-17T14:50:39Z</time></trkpt>
<trkpt lat="46.48918" lon="6.7191"><ele>398.6</ele><time>2023-06-17T14:50:43Z</time></trkpt>
<trkpt lat="46.48914" lon="6.71917"><ele>398.6</ele><time>2023-06-17T14:50:44Z</time></trkpt>
<trkpt lat="46.48908" lon="6.71927"><ele>399.8</ele><time>2023-06-17T14:50:46Z</time></trkpt>
<trkpt lat="46.48903" lon="6.71934"><ele>400.6</ele><time>2023-06-17T14:50:48Z</time></trkpt>
<trkpt lat="46.48901" lon="6.71937"><ele>401.2</ele><time>2023-06-17T14:50:49Z</time></trkpt>
<trkpt lat="46.48897" lon="6.71944"><ele>402.2</ele><time>2023-06-17T14:50:52Z</time></trkpt>
<trkpt lat="46.48896" lon="6.71946"><ele>402.6</ele><time>2023-06-17T14:50:53Z</time></trkpt>
<trkpt lat="46.48888" lon="6.7196"><ele>403</ele><time>2023-06-17T14:50:58Z</time></trkpt>
<trkpt lat="46.48884" lon="6.71968"><ele>403.2</ele><time>2023-06-17T14:51:00Z</time></trkpt>
<trkpt lat="46.48882" lon="6.71972"><ele>403.4</ele><time>2023-06-17T14:51:01Z</time></trkpt>
<trkpt lat="46.48865" lon="6.72"><ele>403.2</ele><time>2023-06-17T14:51:09Z</time></trkpt>
<trkpt lat="46.48847" lon="6.72031"><ele>402.8</ele><time>2023-06-17T14:51:16Z</time></trkpt>
<trkpt lat="46.48829" lon="6.72075"><ele>403.2</ele><time>2023-06-17T14:51:25Z</time></trkpt>
<trkpt lat="46.48818" lon="6.72116"><ele>403.8</ele><time>2023-06-17T14:51:33Z</time></trkpt>
<trkpt lat="46.48817" lon="6.72128"><ele>404.4</ele><time>2023-06-17T14:51:36Z</time></trkpt>
<trkpt lat="46.48816" lon="6.72134"><ele>404.8</ele><time>2023-06-17T14:51:38Z</time></trkpt>
<trkpt lat="46.48815" lon="6.72149"><ele>405.4</ele><time>2023-06-17T14:51:42Z</time></trkpt>
<trkpt lat="46.48815" lon="6.72157"><ele>405.6</ele><time>2023-06-17T14:51:44Z</time></trkpt>
<trkpt lat="46.48816" lon="6.72173"><ele>406</ele><time>2023-06-17T14:51:50Z</time></trkpt>
<trkpt lat="46.48818" lon="6.7218"><ele>406</ele><time>2023-06-17T14:51:52Z</time></trkpt>
<trkpt lat="46.48819" lon="6.7219"><ele>406</ele><time>2023-06-17T14:51:54Z</time></trkpt>
<trkpt lat="46.48819" lon="6.72195"><ele>405.8</ele><time>2023-06-17T14:51:55Z</time></trkpt>
<trkpt lat="46.48821" lon="6.72226"><ele>403.8</ele><time>2023-06-17T14:51:59Z</time></trkpt>
<trkpt lat="46.48822" lon="6.72266"><ele>402.6</ele><time>2023-06-17T14:52:03Z</time></trkpt>
<trkpt lat="46.48821" lon="6.72288"><ele>402</ele><time>2023-06-17T14:52:05Z</time></trkpt>
<trkpt lat="46.48822" lon="6.72309"><ele>401.2</ele><time>2023-06-17T14:52:07Z</time></trkpt>
<trkpt lat="46.48822" lon="6.7233"><ele>400.4</ele><time>2023-06-17T14:52:09Z</time></trkpt>
<trkpt lat="46.48823" lon="6.7234"><ele>399.8</ele><time>2023-06-17T14:52:10Z</time></trkpt>
<trkpt lat="46.48824" lon="6.7235"><ele>399.2</ele><time>2023-06-17T14:52:11Z</time></trkpt>
<trkpt lat="46.48825" lon="6.7236"><ele>399</ele><time>2023-06-17T14:52:12Z</time></trkpt>
<trkpt lat="46.48827" lon="6.72372"><ele>398.6</ele><time>2023-06-17T14:52:13Z</time></trkpt>
<trkpt lat="46.48833" lon="6.72391"><ele>397.2</ele><time>2023-06-17T14:52:15Z</time></trkpt>
<trkpt lat="46.48836" lon="6.72399"><ele>396.4</ele><time>2023-06-17T14:52:16Z</time></trkpt>
<trkpt lat="46.48838" lon="6.72408"><ele>395.8</ele><time>2023-06-17T14:52:17Z</time></trkpt>
<trkpt lat="46.4884" lon="6.72422"><ele>394.8</ele><time>2023-06-17T14:52:19Z</time></trkpt>
<trkpt lat="46.4884" lon="6.72426"><ele>394.2</ele><time>2023-06-17T14:52:20Z</time></trkpt>
<trkpt lat="46.4884" lon="6.72433"><ele>393.8</ele><time>2023-06-17T14:52:22Z</time></trkpt>
<trkpt lat="46.4884" lon="6.72452"><ele>393.6</ele><time>2023-06-17T14:52:26Z</time></trkpt>
<trkpt lat="46.48841" lon="6.72509"><ele>393.2</ele><time>2023-06-17T14:52:35Z</time></trkpt>
<trkpt lat="46.48842" lon="6.7255"><ele>393.4</ele><time>2023-06-17T14:52:42Z</time></trkpt>
<trkpt lat="46.48847" lon="6.72571"><ele>393.2</ele><time>2023-06-17T14:52:46Z</time></trkpt>
<trkpt lat="46.48849" lon="6.72575"><ele>393.2</ele><time>2023-06-17T14:52:47Z</time></trkpt>
<trkpt lat="46.48856" lon="6.72599"><ele>393.4</ele><time>2023-06-17T14:52:52Z</time></trkpt>
<trkpt lat="46.48859" lon="6.72608"><ele>393.4</ele><time>2023-06-17T14:52:54Z</time></trkpt>
<trkpt lat="46.48868" lon="6.72638"><ele>393.2</ele><time>2023-06-17T14:53:00Z</time></trkpt>
<trkpt lat="46.48876" lon="6.72659"><ele>393.2</ele><time>2023-06-17T14:53:04Z</time></trkpt>
<trkpt lat="46.48881" lon="6.72671"><ele>393</ele><time>2023-06-17T14:53:06Z</time></trkpt>
<trkpt lat="46.48883" lon="6.72679"><ele>392.8</ele><time>2023-06-17T14:53:08Z</time></trkpt>
<trkpt lat="46.48885" lon="6.72683"><ele>392.6</ele><time>2023-06-17T14:53:10Z</time></trkpt>
<trkpt lat="46.48886" lon="6.72684"><ele>392.6</ele><time>2023-06-17T14:53:11Z</time></trkpt>
<trkpt lat="46.48896" lon="6.72685"><ele>392.4</ele><time>2023-06-17T14:53:15Z</time></trkpt>
<trkpt lat="46.48899" lon="6.72688"><ele>392.2</ele><time>2023-06-17T14:53:16Z</time></trkpt>
<trkpt lat="46.48902" lon="6.72699"><ele>392</ele><time>2023-06-17T14:53:18Z</time></trkpt>
<trkpt lat="46.48903" lon="6.72706"><ele>392</ele><time>2023-06-17T14:53:19Z</time></trkpt>
<trkpt lat="46.48904" lon="6.72713"><ele>392</ele><time>2023-06-17T14:53:20Z</time></trkpt>
<trkpt lat="46.48905" lon="6.72727"><ele>391.6</ele><time>2023-06-17T14:53:22Z</time></trkpt>
<trkpt lat="46.48908" lon="6.7274"><ele>391.2</ele><time>2023-06-17T14:53:24Z</time></trkpt>
<trkpt lat="46.48909" lon="6.72747"><ele>391.2</ele><time>2023-06-17T14:53:25Z</time></trkpt>
<trkpt lat="46.48909" lon="6.72758"><ele>390.6</ele><time>2023-06-17T14:53:27Z</time></trkpt>
<trkpt lat="46.48902" lon="6.72779"><ele>390</ele><time>2023-06-17T14:53:32Z</time></trkpt>
<trkpt lat="46.489" lon="6.72782"><ele>389.8</ele><time>2023-06-17T14:53:33Z</time></trkpt>
<trkpt lat="46.48899" lon="6.72785"><ele>389.6</ele><time>2023-06-17T14:53:34Z</time></trkpt>
<trkpt lat="46.489" lon="6.72794"><ele>389.4</ele><time>2023-06-17T14:53:36Z</time></trkpt>
<trkpt lat="46.48907" lon="6.72826"><ele>389.6</ele><time>2023-06-17T14:53:43Z</time></trkpt>
<trkpt lat="46.48915" lon="6.72856"><ele>390.6</ele><time>2023-06-17T14:53:50Z</time></trkpt>
<trkpt lat="46.48917" lon="6.72863"><ele>391</ele><time>2023-06-17T14:53:52Z</time></trkpt>
<trkpt lat="46.48921" lon="6.72878"><ele>391.6</ele><time>2023-06-17T14:53:56Z</time></trkpt>
<trkpt lat="46.48927" lon="6.72901"><ele>392.6</ele><time>2023-06-17T14:54:02Z</time></trkpt>
<trkpt lat="46.48929" lon="6.72905"><ele>392.6</ele><time>2023-06-17T14:54:03Z</time></trkpt>
<trkpt lat="46.48938" lon="6.72928"><ele>393.4</ele><time>2023-06-17T14:54:09Z</time></trkpt>
<trkpt lat="46.48941" lon="6.72936"><ele>393.6</ele><time>2023-06-17T14:54:11Z</time></trkpt>
<trkpt lat="46.48944" lon="6.72944"><ele>393.8</ele><time>2023-06-17T14:54:13Z</time></trkpt>
<trkpt lat="46.48959" lon="6.72984"><ele>394.2</ele><time>2023-06-17T14:54:21Z</time></trkpt>
<trkpt lat="46.48978" lon="6.73038"><ele>394</ele><time>2023-06-17T14:54:30Z</time></trkpt>
<trkpt lat="46.48991" lon="6.73071"><ele>394</ele><time>2023-06-17T14:54:35Z</time></trkpt>
<trkpt lat="46.48997" lon="6.73086"><ele>394.6</ele><time>2023-06-17T14:54:38Z</time></trkpt>
<trkpt lat="46.48998" lon="6.7309"><ele>394.8</ele><time>2023-06-17T14:54:39Z</time></trkpt>
<trkpt lat="46.49003" lon="6.73104"><ele>395.8</ele><time>2023-06-17T14:54:43Z</time></trkpt>
<trkpt lat="46.49004" lon="6.73107"><ele>396</ele><time>2023-06-17T14:54:44Z</time></trkpt>
<trkpt lat="46.49017" lon="6.73137"><ele>396.8</ele><time>2023-06-17T14:54:52Z</time></trkpt>
<trkpt lat="46.49028" lon="6.73167"><ele>396.2</ele><time>2023-06-17T14:54:58Z</time></trkpt>
<trkpt lat="46.49039" lon="6.73213"><ele>394.6</ele><time>2023-06-17T14:55:04Z</time></trkpt>
<trkpt lat="46.49049" lon="6.7325"><ele>393.4</ele><time>2023-06-17T14:55:08Z</time></trkpt>
<trkpt lat="46.49055" lon="6.7328"><ele>392.8</ele><time>2023-06-17T14:55:11Z</time></trkpt>
<trkpt lat="46.49064" lon="6.73329"><ele>392.2</ele><time>2023-06-17T14:55:16Z</time></trkpt>
<trkpt lat="46.49067" lon="6.73338"><ele>392</ele><time>2023-06-17T14:55:17Z</time></trkpt>
<trkpt lat="46.49069" lon="6.73347"><ele>392</ele><time>2023-06-17T14:55:18Z</time></trkpt>
<trkpt lat="46.49087" lon="6.73398"><ele>392.6</ele><time>2023-06-17T14:55:25Z</time></trkpt>
<trkpt lat="46.49098" lon="6.73445"><ele>392.6</ele><time>2023-06-17T14:55:32Z</time></trkpt>
<trkpt lat="46.49108" lon="6.73504"><ele>393.2</ele><time>2023-06-17T14:55:41Z</time></trkpt>
<trkpt lat="46.4911" lon="6.7351"><ele>393.2</ele><time>2023-06-17T14:55:42Z</time></trkpt>
<trkpt lat="46.49117" lon="6.73534"><ele>393.4</ele><time>2023-06-17T14:55:46Z</time></trkpt>
<trkpt lat="46.49122" lon="6.73545"><ele>393.6</ele><time>2023-06-17T14:55:48Z</time></trkpt>
<trkpt lat="46.49127" lon="6.73559"><ele>394</ele><time>2023-06-17T14:55:51Z</time></trkpt>
<trkpt lat="46.49128" lon="6.73563"><ele>394.4</ele><time>2023-06-17T14:55:52Z</time></trkpt>
<trkpt lat="46.49129" lon="6.73567"><ele>394.8</ele><time>2023-06-17T14:55:53Z</time></trkpt>
<trkpt lat="46.4913" lon="6.73582"><ele>395.4</ele><time>2023-06-17T14:55:57Z</time></trkpt>
<trkpt lat="46.4913" lon="6.73592"><ele>396.2</ele><time>2023-06-17T14:56:00Z</time></trkpt>
<trkpt lat="46.49131" lon="6.736"><ele>396.6</ele><time>2023-06-17T14:56:02Z</time></trkpt>
<trkpt lat="46.49131" lon="6.73615"><ele>397.8</ele><time>2023-06-17T14:56:07Z</time></trkpt>
<trkpt lat="46.4913" lon="6.73622"><ele>398</ele><time>2023-06-17T14:56:09Z</time></trkpt>
<trkpt lat="46.4913" lon="6.73634"><ele>399</ele><time>2023-06-17T14:56:13Z</time></trkpt>
<trkpt lat="46.49131" lon="6.73637"><ele>399.2</ele><time>2023-06-17T14:56:14Z</time></trkpt>
<trkpt lat="46.49131" lon="6.7364"><ele>399.4</ele><time>2023-06-17T14:56:15Z</time></trkpt>
<trkpt lat="46.49131" lon="6.73643"><ele>399.6</ele><time>2023-06-17T14:56:16Z</time></trkpt>
<trkpt lat="46.49132" lon="6.73648"><ele>399.8</ele><time>2023-06-17T14:56:18Z</time></trkpt>
<trkpt lat="46.49132" lon="6.73654"><ele>400</ele><time>2023-06-17T14:56:20Z</time></trkpt>
<trkpt lat="46.49132" lon="6.73671"><ele>400.2</ele><time>2023-06-17T14:56:24Z</time></trkpt>
<trkpt lat="46.49133" lon="6.73712"><ele>399.6</ele><time>2023-06-17T14:56:31Z</time></trkpt>
<trkpt lat="46.49131" lon="6.73756"><ele>399.6</ele><time>2023-06-17T14:56:38Z</time></trkpt>
<trkpt lat="46.49126" lon="6.73788"><ele>400</ele><time>2023-06-17T14:56:44Z</time></trkpt>
<trkpt lat="46.49123" lon="6.73815"><ele>400.6</ele><time>2023-06-17T14:56:49Z</time></trkpt>
<trkpt lat="46.49119" lon="6.73836"><ele>401</ele><time>2023-06-17T14:56:53Z</time></trkpt>
<trkpt lat="46.49117" lon="6.73846"><ele>401</ele><time>2023-06-17T14:56:55Z</time></trkpt>
<trkpt lat="46.4911" lon="6.73877"><ele>401.6</ele><time>2023-06-17T14:57:01Z</time></trkpt>
<trkpt lat="46.49106" lon="6.73903"><ele>402</ele><time>2023-06-17T14:57:07Z</time></trkpt>
<trkpt lat="46.49106" lon="6.73906"><ele>402</ele><time>2023-06-17T14:57:08Z</time></trkpt>
<trkpt lat="46.49107" lon="6.73915"><ele>403</ele><time>2023-06-17T14:57:12Z</time></trkpt>
<trkpt lat="46.49108" lon="6.73918"><ele>403.2</ele><time>2023-06-17T14:57:13Z</time></trkpt>
<trkpt lat="46.49113" lon="6.73925"><ele>404</ele><time>2023-06-17T14:57:18Z</time></trkpt>
<trkpt lat="46.49115" lon="6.73928"><ele>404.4</ele><time>2023-06-17T14:57:20Z</time></trkpt>
<trkpt lat="46.49122" lon="6.73938"><ele>405.6</ele><time>2023-06-17T14:57:27Z</time></trkpt>
<trkpt lat="46.49124" lon="6.73941"><ele>406</ele><time>2023-06-17T14:57:30Z</time></trkpt>
<trkpt lat="46.49125" lon="6.73944"><ele>406.4</ele><time>2023-06-17T14:57:32Z</time></trkpt>
<trkpt lat="46.49127" lon="6.73946"><ele>406.8</ele><time>2023-06-17T14:57:34Z</time></trkpt>
<trkpt lat="46.49129" lon="6.73949"><ele>407.2</ele><time>2023-06-17T14:57:37Z</time></trkpt>
<trkpt lat="46.49132" lon="6.73952"><ele>407.8</ele><time>2023-06-17T14:57:40Z</time></trkpt>
<trkpt lat="46.49135" lon="6.73955"><ele>408.6</ele><time>2023-06-17T14:57:44Z</time></trkpt>
<trkpt lat="46.49138" lon="6.73958"><ele>409</ele><time>2023-06-17T14:57:47Z</time></trkpt>
<trkpt lat="46.49139" lon="6.73962"><ele>409.4</ele><time>2023-06-17T14:57:50Z</time></trkpt>
<trkpt lat="46.4914" lon="6.73963"><ele>409.6</ele><time>2023-06-17T14:57:51Z</time></trkpt>
<trkpt lat="46.4914" lon="6.73966"><ele>410</ele><time>2023-06-17T14:57:53Z</time></trkpt>
<trkpt lat="46.49141" lon="6.73971"><ele>410.8</ele><time>2023-06-17T14:57:57Z</time></trkpt>
<trkpt lat="46.49142" lon="6.73972"><ele>410.8</ele><time>2023-06-17T14:57:58Z</time></trkpt>
<trkpt lat="46.49143" lon="6.73975"><ele>411</ele><time>2023-06-17T14:58:00Z</time></trkpt>
<trkpt lat="46.49145" lon="6.73979"><ele>411.8</ele><time>2023-06-17T14:58:03Z</time></trkpt>
<trkpt lat="46.49146" lon="6.73983"><ele>412.4</ele><time>2023-06-17T14:58:06Z</time></trkpt>
<trkpt lat="46.49147" lon="6.73988"><ele>413</ele><time>2023-06-17T14:58:09Z</time></trkpt>
<trkpt lat="46.49148" lon="6.73995"><ele>414</ele><time>2023-06-17T14:58:15Z</time></trkpt>
<trkpt lat="46.49149" lon="6.74003"><ele>415</ele><time>2023-06-17T14:58:21Z</time></trkpt>
<trkpt lat="46.49149" lon="6.74005"><ele>415.4</ele><time>2023-06-17T14:58:23Z</time></trkpt>
<trkpt lat="46.4915" lon="6.74011"><ele>416.2</ele><time>2023-06-17T14:58:28Z</time></trkpt>
<trkpt lat="46.4915" lon="6.74013"><ele>416.6</ele><time>2023-06-17T14:58:30Z</time></trkpt>
<trkpt lat="46.4915" lon="6.7402"><ele>417.6</ele><time>2023-06-17T14:58:35Z</time></trkpt>
<trkpt lat="46.49149" lon="6.74022"><ele>417.8</ele><time>2023-06-17T14:58:37Z</time></trkpt>
<trkpt lat="46.49149" lon="6.74024"><ele>418</ele><time>2023-06-17T14:58:38Z</time></trkpt>
<trkpt lat="46.49149" lon="6.74029"><ele>418.6</ele><time>2023-06-17T14:58:42Z</time></trkpt>
<trkpt lat="46.49149" lon="6.74033"><ele>419.2</ele><time>2023-06-17T14:58:45Z</time></trkpt>
<trkpt lat="46.49149" lon="6.74037"><ele>419.8</ele><time>2023-06-17T14:58:48Z</time></trkpt>
<trkpt lat="46.49148" lon="6.74041"><ele>420.4</ele><time>2023-06-17T14:58:51Z</time></trkpt>
<trkpt lat="46.49148" lon="6.74045"><ele>420.8</ele><time>2023-06-17T14:58:54Z</time></trkpt>
<trkpt lat="46.49149" lon="6.74048"><ele>421.2</ele><time>2023-06-17T14:58:57Z</time></trkpt>
<trkpt lat="46.4915" lon="6.74053"><ele>422</ele><time>2023-06-17T14:59:01Z</time></trkpt>
<trkpt lat="46.4915" lon="6.74055"><ele>422.2</ele><time>2023-06-17T14:59:02Z</time></trkpt>
<trkpt lat="46.49151" lon="6.74061"><ele>423</ele><time>2023-06-17T14:59:07Z</time></trkpt>
<trkpt lat="46.49151" lon="6.74063"><ele>423.2</ele><time>2023-06-17T14:59:08Z</time></trkpt>
<trkpt lat="46.49152" lon="6.74069"><ele>424.2</ele><time>2023-06-17T14:59:13Z</time></trkpt>
<trkpt lat="46.49153" lon="6.7407"><ele>424.2</ele><time>2023-06-17T14:59:14Z</time></trkpt>
<trkpt lat="46.49153" lon="6.74076"><ele>425.2</ele><time>2023-06-17T14:59:19Z</time></trkpt>
<trkpt lat="46.49152" lon="6.74079"><ele>425.6</ele><time>2023-06-17T14:59:21Z</time></trkpt>
<trkpt lat="46.49152" lon="6.74085"><ele>426.4</ele><time>2023-06-17T14:59:26Z</time></trkpt>
<trkpt lat="46.49152" lon="6.74088"><ele>427</ele><time>2023-06-17T14:59:29Z</time></trkpt>
<trkpt lat="46.49155" lon="6.74094"><ele>427.6</ele><time>2023-06-17T14:59:33Z</time></trkpt>
<trkpt lat="46.49156" lon="6.74096"><ele>428.2</ele><time>2023-06-17T14:59:35Z</time></trkpt>
<trkpt lat="46.49157" lon="6.74101"><ele>428.4</ele><time>2023-06-17T14:59:38Z</time></trkpt>
<trkpt lat="46.49158" lon="6.74104"><ele>429</ele><time>2023-06-17T14:59:40Z</time></trkpt>
<trkpt lat="46.49161" lon="6.74112"><ele>430</ele><time>2023-06-17T14:59:46Z</time></trkpt>
<trkpt lat="46.49164" lon="6.74124"><ele>431.2</ele><time>2023-06-17T14:59:53Z</time></trkpt>
<trkpt lat="46.49165" lon="6.74127"><ele>431.4</ele><time>2023-06-17T14:59:55Z</time></trkpt>
<trkpt lat="46.49167" lon="6.74134"><ele>432.2</ele><time>2023-06-17T14:59:59Z</time></trkpt>
<trkpt lat="46.49168" lon="6.74143"><ele>433</ele><time>2023-06-17T15:00:04Z</time></trkpt>
<trkpt lat="46.4917" lon="6.74146"><ele>433.4</ele><time>2023-06-17T15:00:06Z</time></trkpt>
<trkpt lat="46.49171" lon="6.74155"><ele>434.4</ele><time>2023-06-17T15:00:12Z</time></trkpt>
<trkpt lat="46.49171" lon="6.74157"><ele>434.6</ele><time>2023-06-17T15:00:13Z</time></trkpt>
<trkpt lat="46.49172" lon="6.74167"><ele>435.4</ele><time>2023-06-17T15:00:19Z</time></trkpt>
<trkpt lat="46.49173" lon="6.74171"><ele>435.8</ele><time>2023-06-17T15:00:21Z</time></trkpt>
<trkpt lat="46.49173" lon="6.74173"><ele>436</ele><time>2023-06-17T15:00:22Z</time></trkpt>
<trkpt lat="46.49173" lon="6.74174"><ele>436</ele><time>2023-06-17T15:00:23Z</time></trkpt>
<trkpt lat="46.49174" lon="6.74179"><ele>436.6</ele><time>2023-06-17T15:00:26Z</time></trkpt>
<trkpt lat="46.49175" lon="6.74186"><ele>436.8</ele><time>2023-06-17T15:00:29Z</time></trkpt>
<trkpt lat="46.49176" lon="6.74198"><ele>437.6</ele><time>2023-06-17T15:00:35Z</time></trkpt>
<trkpt lat="46.49178" lon="6.74206"><ele>438.2</ele><time>2023-06-17T15:00:39Z</time></trkpt>
<trkpt lat="46.49179" lon="6.74216"><ele>438.8</ele><time>2023-06-17T15:00:44Z</time></trkpt>
<trkpt lat="46.49181" lon="6.74224"><ele>439.2</ele><time>2023-06-17T15:00:48Z</time></trkpt>
<trkpt lat="46.49182" lon="6.74234"><ele>440</ele><time>2023-06-17T15:00:53Z</time></trkpt>
<trkpt lat="46.49183" lon="6.7424"><ele>440.4</ele><time>2023-06-17T15:00:56Z</time></trkpt>
<trkpt lat="46.49184" lon="6.7425"><ele>441</ele><time>2023-06-17T15:01:01Z</time></trkpt>
<trkpt lat="46.49185" lon="6.74255"><ele>441.2</ele><time>2023-06-17T15:01:04Z</time></trkpt>
<trkpt lat="46.49188" lon="6.74266"><ele>442</ele><time>2023-06-17T15:01:10Z</time></trkpt>
<trkpt lat="46.4919" lon="6.74274"><ele>442.6</ele><time>2023-06-17T15:01:14Z</time></trkpt>
<trkpt lat="46.49191" lon="6.7428"><ele>443</ele><time>2023-06-17T15:01:17Z</time></trkpt>
<trkpt lat="46.49191" lon="6.74293"><ele>444.2</ele><time>2023-06-17T15:01:24Z</time></trkpt>
<trkpt lat="46.49194" lon="6.74309"><ele>445.4</ele><time>2023-06-17T15:01:32Z</time></trkpt>
<trkpt lat="46.49194" lon="6.7431"><ele>445.4</ele><time>2023-06-17T15:01:33Z</time></trkpt>
<trkpt lat="46.49197" lon="6.74322"><ele>446.4</ele><time>2023-06-17T15:01:40Z</time></trkpt>
<trkpt lat="46.49197" lon="6.74324"><ele>446.6</ele><time>2023-06-17T15:01:41Z</time></trkpt>
<trkpt lat="46.49195" lon="6.74333"><ele>447.4</ele><time>2023-06-17T15:01:46Z</time></trkpt>
<trkpt lat="46.49195" lon="6.74336"><ele>447.8</ele><time>2023-06-17T15:01:48Z</time></trkpt>
<trkpt lat="46.49195" lon="6.74342"><ele>448.6</ele><time>2023-06-17T15:01:52Z</time></trkpt>
<trkpt lat="46.49195" lon="6.74346"><ele>449.2</ele><time>2023-06-17T15:01:55Z</time></trkpt>
<trkpt lat="46.49195" lon="6.7435"><ele>449.8</ele><time>2023-06-17T15:01:58Z</time></trkpt>
<trkpt lat="46.49195" lon="6.74354"><ele>450.2</ele><time>2023-06-17T15:02:01Z</time></trkpt>
<trkpt lat="46.49194" lon="6.74354"><ele>450.4</ele><time>2023-06-17T15:02:02Z</time></trkpt>
<trkpt lat="46.49194" lon="6.74357"><ele>451</ele><time>2023-06-17T15:02:04Z</time></trkpt>
<trkpt lat="46.49193" lon="6.74363"><ele>451.6</ele><time>2023-06-17T15:02:07Z</time></trkpt>
<trkpt lat="46.49193" lon="6.74367"><ele>452.2</ele><time>2023-06-17T15:02:10Z</time></trkpt>
<trkpt lat="46.49196" lon="6.74371"><ele>452.8</ele><time>2023-06-17T15:02:14Z</time></trkpt>
<trkpt lat="46.49198" lon="6.74371"><ele>453.2</ele><time>2023-06-17T15:02:16Z</time></trkpt>
<trkpt lat="46.49203" lon="6.74373"><ele>454.2</ele><time>2023-06-17T15:02:21Z</time></trkpt>
<trkpt lat="46.49204" lon="6.74373"><ele>454.4</ele><time>2023-06-17T15:02:22Z</time></trkpt>
<trkpt lat="46.49208" lon="6.74377"><ele>455.2</ele><time>2023-06-17T15:02:28Z</time></trkpt>
<trkpt lat="46.49208" lon="6.74377"><ele>455.6</ele><time>2023-06-17T15:02:29Z</time></trkpt>
<trkpt lat="46.49213" lon="6.74379"><ele>456.4</ele><time>2023-06-17T15:02:34Z</time></trkpt>
<trkpt lat="46.49214" lon="6.7438"><ele>457</ele><time>2023-06-17T15:02:36Z</time></trkpt>
<trkpt lat="46.49216" lon="6.74381"><ele>457.6</ele><time>2023-06-17T15:02:39Z</time></trkpt>
<trkpt lat="46.49219" lon="6.74383"><ele>458.2</ele><time>2023-06-17T15:02:42Z</time></trkpt>
<trkpt lat="46.49221" lon="6.74384"><ele>458.6</ele><time>2023-06-17T15:02:45Z</time></trkpt>
<trkpt lat="46.49226" lon="6.74384"><ele>459.4</ele><time>2023-06-17T15:02:49Z</time></trkpt>
<trkpt lat="46.49228" lon="6.74385"><ele>459.8</ele><time>2023-06-17T15:02:51Z</time></trkpt>
<trkpt lat="46.4923" lon="6.74393"><ele>460.2</ele><time>2023-06-17T15:02:55Z</time></trkpt>
<trkpt lat="46.49228" lon="6.74417"><ele>459.6</ele><time>2023-06-17T15:03:01Z</time></trkpt>
<trkpt lat="46.49236" lon="6.74438"><ele>459</ele><time>2023-06-17T15:03:05Z</time></trkpt>
<trkpt lat="46.49239" lon="6.74445"><ele>458.8</ele><time>2023-06-17T15:03:06Z</time></trkpt>
<trkpt lat="46.49248" lon="6.74464"><ele>458.4</ele><time>2023-06-17T15:03:09Z</time></trkpt>
<trkpt lat="46.49251" lon="6.7448"><ele>458.4</ele><time>2023-06-17T15:03:11Z</time></trkpt>
<trkpt lat="46.49251" lon="6.74495"><ele>458.2</ele><time>2023-06-17T15:03:13Z</time></trkpt>
<trkpt lat="46.49248" lon="6.74506"><ele>458.2</ele><time>2023-06-17T15:03:15Z</time></trkpt>
<trkpt lat="46.49234" lon="6.74527"><ele>459.8</ele><time>2023-06-17T15:03:21Z</time></trkpt>
<trkpt lat="46.49231" lon="6.74529"><ele>460</ele><time>2023-06-17T15:03:22Z</time></trkpt>
<trkpt lat="46.49214" lon="6.74546"><ele>460</ele><time>2023-06-17T15:03:27Z</time></trkpt>
<trkpt lat="46.4921" lon="6.7455"><ele>459.4</ele><time>2023-06-17T15:03:28Z</time></trkpt>
<trkpt lat="46.49206" lon="6.74555"><ele>459.2</ele><time>2023-06-17T15:03:29Z</time></trkpt>
<trkpt lat="46.49199" lon="6.74568"><ele>459</ele><time>2023-06-17T15:03:31Z</time></trkpt>
<trkpt lat="46.49196" lon="6.74575"><ele>458.4</ele><time>2023-06-17T15:03:32Z</time></trkpt>
<trkpt lat="46.49194" lon="6.74583"><ele>458</ele><time>2023-06-17T15:03:33Z</time></trkpt>
<trkpt lat="46.4919" lon="6.74609"><ele>457.6</ele><time>2023-06-17T15:03:36Z</time></trkpt>
<trkpt lat="46.49189" lon="6.74618"><ele>457.2</ele><time>2023-06-17T15:03:37Z</time></trkpt>
<trkpt lat="46.49181" lon="6.74673"><ele>456.2</ele><time>2023-06-17T15:03:43Z</time></trkpt>
<trkpt lat="46.4918" lon="6.74682"><ele>456.2</ele><time>2023-06-17T15:03:44Z</time></trkpt>
<trkpt lat="46.49169" lon="6.7473"><ele>456.8</ele><time>2023-06-17T15:03:50Z</time></trkpt>
<trkpt lat="46.49163" lon="6.74741"><ele>456.6</ele><time>2023-06-17T15:03:53Z</time></trkpt>
<trkpt lat="46.49162" lon="6.74743"><ele>456.6</ele><time>2023-06-17T15:03:54Z</time></trkpt>
<trkpt lat="46.49158" lon="6.7475"><ele>456.8</ele><time>2023-06-17T15:03:59Z</time></trkpt>
<trkpt lat="46.49159" lon="6.74748"><ele>456.8</ele><time>2023-06-17T15:04:04Z</time></trkpt>
<trkpt lat="46.49159" lon="6.74749"><ele>456.6</ele><time>2023-06-17T15:04:10Z</time></trkpt>
<trkpt lat="46.4916" lon="6.7475"><ele>456.6</ele><time>2023-06-17T15:04:19Z</time></trkpt>
<trkpt lat="46.4916" lon="6.7475"><ele>456.6</ele><time>2023-06-17T15:04:21Z</time></trkpt>
<trkpt lat="46.4916" lon="6.74752"><ele>456.6</ele><time>2023-06-17T15:04:25Z</time></trkpt>
<trkpt lat="46.49159" lon="6.74754"><ele>456.6</ele><time>2023-06-17T15:04:26Z</time></trkpt>
<trkpt lat="46.49158" lon="6.74756"><ele>456.6</ele><time>2023-06-17T15:04:27Z</time></trkpt>
<trkpt lat="46.49147" lon="6.74772"><ele>456.8</ele><time>2023-06-17T15:04:32Z</time></trkpt>
<trkpt lat="46.4913" lon="6.74793"><ele>457</ele><time>2023-06-17T15:04:37Z</time></trkpt>
<trkpt lat="46.49127" lon="6.74799"><ele>457</ele><time>2023-06-17T15:04:38Z</time></trkpt>
<trkpt lat="46.49125" lon="6.74804"><ele>457.2</ele><time>2023-06-17T15:04:39Z</time></trkpt>
<trkpt lat="46.49123" lon="6.7481"><ele>457.2</ele><time>2023-06-17T15:04:40Z</time></trkpt>
<trkpt lat="46.49119" lon="6.74819"><ele>457.8</ele><time>2023-06-17T15:04:42Z</time></trkpt>
<trkpt lat="46.49117" lon="6.74822"><ele>458</ele><time>2023-06-17T15:04:43Z</time></trkpt>
<trkpt lat="46.49113" lon="6.74828"><ele>458.4</ele><time>2023-06-17T15:04:45Z</time></trkpt>
<trkpt lat="46.49095" lon="6.7485"><ele>459.6</ele><time>2023-06-17T15:04:52Z</time></trkpt>
<trkpt lat="46.49075" lon="6.74863"><ele>460.2</ele><time>2023-06-17T15:04:58Z</time></trkpt>
<trkpt lat="46.49063" lon="6.74869"><ele>461</ele><time>2023-06-17T15:05:01Z</time></trkpt>
<trkpt lat="46.49055" lon="6.74873"><ele>462.4</ele><time>2023-06-17T15:05:04Z</time></trkpt>
<trkpt lat="46.49046" lon="6.74875"><ele>462.6</ele><time>2023-06-17T15:05:06Z</time></trkpt>
<trkpt lat="46.49037" lon="6.74882"><ele>462.8</ele><time>2023-06-17T15:05:09Z</time></trkpt>
<trkpt lat="46.49032" lon="6.74891"><ele>463</ele><time>2023-06-17T15:05:11Z</time></trkpt>
<trkpt lat="46.4902" lon="6.74928"><ele>463.2</ele><time>2023-06-17T15:05:17Z</time></trkpt>
<trkpt lat="46.49011" lon="6.74963"><ele>463</ele><time>2023-06-17T15:05:22Z</time></trkpt>
<trkpt lat="46.49009" lon="6.74974"><ele>463.2</ele><time>2023-06-17T15:05:24Z</time></trkpt>
<trkpt lat="46.49008" lon="6.74979"><ele>463.4</ele><time>2023-06-17T15:05:25Z</time></trkpt>
<trkpt lat="46.49005" lon="6.7499"><ele>464.6</ele><time>2023-06-17T15:05:28Z</time></trkpt>
<trkpt lat="46.49002" lon="6.74998"><ele>465</ele><time>2023-06-17T15:05:30Z</time></trkpt>
<trkpt lat="46.48997" lon="6.75005"><ele>465.8</ele><time>2023-06-17T15:05:32Z</time></trkpt>
<trkpt lat="46.48983" lon="6.75023"><ele>466.6</ele><time>2023-06-17T15:05:37Z</time></trkpt>
<trkpt lat="46.48972" lon="6.75038"><ele>467</ele><time>2023-06-17T15:05:41Z</time></trkpt>
<trkpt lat="46.48953" lon="6.75057"><ele>467.8</ele><time>2023-06-17T15:05:47Z</time></trkpt>
<trkpt lat="46.48951" lon="6.7506"><ele>468.2</ele><time>2023-06-17T15:05:48Z</time></trkpt>
<trkpt lat="46.48942" lon="6.75085"><ele>468.8</ele><time>2023-06-17T15:05:54Z</time></trkpt>
<trkpt lat="46.4894" lon="6.75102"><ele>469.2</ele><time>2023-06-17T15:05:57Z</time></trkpt>
<trkpt lat="46.48939" lon="6.75141"><ele>469.6</ele><time>2023-06-17T15:06:04Z</time></trkpt>
<trkpt lat="46.48934" lon="6.75174"><ele>470.4</ele><time>2023-06-17T15:06:10Z</time></trkpt>
<trkpt lat="46.4893" lon="6.75184"><ele>470.8</ele><time>2023-06-17T15:06:12Z</time></trkpt>
<trkpt lat="46.48915" lon="6.75204"><ele>471.6</ele><time>2023-06-17T15:06:18Z</time></trkpt>
<trkpt lat="46.48896" lon="6.75224"><ele>472.8</ele><time>2023-06-17T15:06:25Z</time></trkpt>
<trkpt lat="46.48893" lon="6.75225"><ele>472.8</ele><time>2023-06-17T15:06:26Z</time></trkpt>
<trkpt lat="46.4889" lon="6.75222"><ele>473.2</ele><time>2023-06-17T15:06:28Z</time></trkpt>
<trkpt lat="46.48888" lon="6.75224"><ele>473.2</ele><time>2023-06-17T15:06:30Z</time></trkpt>
<trkpt lat="46.48886" lon="6.75226"><ele>473.4</ele><time>2023-06-17T15:06:32Z</time></trkpt>
<trkpt lat="46.48875" lon="6.75234"><ele>473.8</ele><time>2023-06-17T15:06:38Z</time></trkpt>
<trkpt lat="46.48873" lon="6.75237"><ele>474</ele><time>2023-06-17T15:06:40Z</time></trkpt>
<trkpt lat="46.48861" lon="6.75251"><ele>474.6</ele><time>2023-06-17T15:06:48Z</time></trkpt>
<trkpt lat="46.48854" lon="6.75263"><ele>475</ele><time>2023-06-17T15:06:53Z</time></trkpt>
<trkpt lat="46.4885" lon="6.75272"><ele>475.2</ele><time>2023-06-17T15:06:57Z</time></trkpt>
<trkpt lat="46.48838" lon="6.75294"><ele>475.6</ele><time>2023-06-17T15:07:04Z</time></trkpt>
<trkpt lat="46.48833" lon="6.75304"><ele>476</ele><time>2023-06-17T15:07:07Z</time></trkpt>
<trkpt lat="46.48821" lon="6.75327"><ele>476.8</ele><time>2023-06-17T15:07:14Z</time></trkpt>
<trkpt lat="46.48817" lon="6.75337"><ele>477</ele><time>2023-06-17T15:07:17Z</time></trkpt>
<trkpt lat="46.48807" lon="6.75351"><ele>477.2</ele><time>2023-06-17T15:07:21Z</time></trkpt>
<trkpt lat="46.48799" lon="6.75371"><ele>477.6</ele><time>2023-06-17T15:07:26Z</time></trkpt>
<trkpt lat="46.48792" lon="6.75388"><ele>478</ele><time>2023-06-17T15:07:30Z</time></trkpt>
<trkpt lat="46.48789" lon="6.75392"><ele>478.2</ele><time>2023-06-17T15:07:31Z</time></trkpt>
<trkpt lat="46.48773" lon="6.75423"><ele>479</ele><time>2023-06-17T15:07:39Z</time></trkpt>
<trkpt lat="46.4877" lon="6.75427"><ele>479.2</ele><time>2023-06-17T15:07:40Z</time></trkpt>
<trkpt lat="46.48754" lon="6.75449"><ele>479.6</ele><time>2023-06-17T15:07:45Z</time></trkpt>
<trkpt lat="46.48739" lon="6.75467"><ele>480.2</ele><time>2023-06-17T15:07:49Z</time></trkpt>
<trkpt lat="46.48713" lon="6.75498"><ele>481.4</ele><time>2023-06-17T15:07:56Z</time></trkpt>
<trkpt lat="46.48694" lon="6.75521"><ele>482.4</ele><time>2023-06-17T15:08:01Z</time></trkpt>
<trkpt lat="46.48675" lon="6.75546"><ele>483</ele><time>2023-06-17T15:08:06Z</time></trkpt>
<trkpt lat="46.48668" lon="6.75557"><ele>483.2</ele><time>2023-06-17T15:08:08Z</time></trkpt>
<trkpt lat="46.48663" lon="6.75565"><ele>483.4</ele><time>2023-06-17T15:08:10Z</time></trkpt>
<trkpt lat="46.48654" lon="6.75579"><ele>484.2</ele><time>2023-06-17T15:08:14Z</time></trkpt>
<trkpt lat="46.4865" lon="6.75587"><ele>484.4</ele><time>2023-06-17T15:08:16Z</time></trkpt>
<trkpt lat="46.48635" lon="6.75614"><ele>485.6</ele><time>2023-06-17T15:08:24Z</time></trkpt>
<trkpt lat="46.48633" lon="6.75618"><ele>485.8</ele><time>2023-06-17T15:08:25Z</time></trkpt>
<trkpt lat="46.48624" lon="6.75635"><ele>486.6</ele><time>2023-06-17T15:08:30Z</time></trkpt>
<trkpt lat="46.48613" lon="6.75653"><ele>487.8</ele><time>2023-06-17T15:08:36Z</time></trkpt>
<trkpt lat="46.486" lon="6.75677"><ele>488.8</ele><time>2023-06-17T15:08:44Z</time></trkpt>
<trkpt lat="46.48593" lon="6.75689"><ele>489.4</ele><time>2023-06-17T15:08:48Z</time></trkpt>
<trkpt lat="46.4859" lon="6.75694"><ele>490</ele><time>2023-06-17T15:08:50Z</time></trkpt>
<trkpt lat="46.48577" lon="6.75715"><ele>491</ele><time>2023-06-17T15:08:57Z</time></trkpt>
<trkpt lat="46.48573" lon="6.75723"><ele>491.6</ele><time>2023-06-17T15:09:00Z</time></trkpt>
<trkpt lat="46.4857" lon="6.75728"><ele>492</ele><time>2023-06-17T15:09:02Z</time></trkpt>
<trkpt lat="46.4856" lon="6.75747"><ele>492.8</ele><time>2023-06-17T15:09:09Z</time></trkpt>
<trkpt lat="46.48557" lon="6.75752"><ele>493</ele><time>2023-06-17T15:09:11Z</time></trkpt>
<trkpt lat="46.48545" lon="6.75771"><ele>494.2</ele><time>2023-06-17T15:09:18Z</time></trkpt>
<trkpt lat="46.48544" lon="6.75773"><ele>494.4</ele><time>2023-06-17T15:09:19Z</time></trkpt>
<trkpt lat="46.48537" lon="6.75786"><ele>495.2</ele><time>2023-06-17T15:09:24Z</time></trkpt>
<trkpt lat="46.48529" lon="6.75798"><ele>495.8</ele><time>2023-06-17T15:09:29Z</time></trkpt>
<trkpt lat="46.48525" lon="6.75805"><ele>496.2</ele><time>2023-06-17T15:09:32Z</time></trkpt>
<trkpt lat="46.48513" lon="6.75824"><ele>497.2</ele><time>2023-06-17T15:09:40Z</time></trkpt>
<trkpt lat="46.48511" lon="6.75827"><ele>497.4</ele><time>2023-06-17T15:09:41Z</time></trkpt>
<trkpt lat="46.48499" lon="6.75849"><ele>498.6</ele><time>2023-06-17T15:09:48Z</time></trkpt>
<trkpt lat="46.48497" lon="6.75852"><ele>498.8</ele><time>2023-06-17T15:09:49Z</time></trkpt>
<trkpt lat="46.48486" lon="6.75869"><ele>499.6</ele><time>2023-06-17T15:09:54Z</time></trkpt>
<trkpt lat="46.48476" lon="6.75882"><ele>500.6</ele><time>2023-06-17T15:09:58Z</time></trkpt>
<trkpt lat="46.48471" lon="6.75889"><ele>500.8</ele><time>2023-06-17T15:10:00Z</time></trkpt>
<trkpt lat="46.48461" lon="6.75903"><ele>502</ele><time>2023-06-17T15:10:04Z</time></trkpt>
<trkpt lat="46.48447" lon="6.75918"><ele>502.6</ele><time>2023-06-17T15:10:09Z</time></trkpt>
<trkpt lat="46.48445" lon="6.7592"><ele>503.2</ele><time>2023-06-17T15:10:10Z</time></trkpt>
<trkpt lat="46.4843" lon="6.75935"><ele>504.2</ele><time>2023-06-17T15:10:16Z</time></trkpt>
<trkpt lat="46.48428" lon="6.75937"><ele>504.4</ele><time>2023-06-17T15:10:17Z</time></trkpt>
<trkpt lat="46.48418" lon="6.75948"><ele>505.2</ele><time>2023-06-17T15:10:22Z</time></trkpt>
<trkpt lat="46.4841" lon="6.75959"><ele>505.6</ele><time>2023-06-17T15:10:27Z</time></trkpt>
<trkpt lat="46.484" lon="6.75971"><ele>506.2</ele><time>2023-06-17T15:10:33Z</time></trkpt>
<trkpt lat="46.48391" lon="6.75985"><ele>506.8</ele><time>2023-06-17T15:10:38Z</time></trkpt>
<trkpt lat="46.48382" lon="6.76001"><ele>507.4</ele><time>2023-06-17T15:10:44Z</time></trkpt>
<trkpt lat="46.48372" lon="6.76015"><ele>508</ele><time>2023-06-17T15:10:50Z</time></trkpt>
<trkpt lat="46.48369" lon="6.76021"><ele>508.4</ele><time>2023-06-17T15:10:52Z</time></trkpt>
<trkpt lat="46.48356" lon="6.76036"><ele>509.2</ele><time>2023-06-17T15:10:59Z</time></trkpt>
<trkpt lat="46.48351" lon="6.76043"><ele>509.6</ele><time>2023-06-17T15:11:02Z</time></trkpt>
<trkpt lat="46.48338" lon="6.76058"><ele>510.8</ele><time>2023-06-17T15:11:09Z</time></trkpt>
<trkpt lat="46.48322" lon="6.76079"><ele>512</ele><time>2023-06-17T15:11:17Z</time></trkpt>
<trkpt lat="46.4832" lon="6.76082"><ele>512</ele><time>2023-06-17T15:11:18Z</time></trkpt>
<trkpt lat="46.4831" lon="6.76102"><ele>513</ele><time>2023-06-17T15:11:25Z</time></trkpt>
<trkpt lat="46.48305" lon="6.76109"><ele>513.4</ele><time>2023-06-17T15:11:28Z</time></trkpt>
<trkpt lat="46.48301" lon="6.76117"><ele>513.8</ele><time>2023-06-17T15:11:31Z</time></trkpt>
<trkpt lat="46.48298" lon="6.76122"><ele>514.2</ele><time>2023-06-17T15:11:33Z</time></trkpt>
<trkpt lat="46.4829" lon="6.76135"><ele>514.6</ele><time>2023-06-17T15:11:39Z</time></trkpt>
<trkpt lat="46.48281" lon="6.76153"><ele>515.2</ele><time>2023-06-17T15:11:44Z</time></trkpt>
<trkpt lat="46.48277" lon="6.76159"><ele>515.6</ele><time>2023-06-17T15:11:46Z</time></trkpt>
<trkpt lat="46.48267" lon="6.76173"><ele>516.4</ele><time>2023-06-17T15:11:50Z</time></trkpt>
<trkpt lat="46.48255" lon="6.76193"><ele>517.4</ele><time>2023-06-17T15:11:55Z</time></trkpt>
<trkpt lat="46.48249" lon="6.76202"><ele>518</ele><time>2023-06-17T15:11:57Z</time></trkpt>
<trkpt lat="46.48242" lon="6.76214"><ele>518.6</ele><time>2023-06-17T15:12:00Z</time></trkpt>
<trkpt lat="46.48231" lon="6.76231"><ele>519.8</ele><time>2023-06-17T15:12:04Z</time></trkpt>
<trkpt lat="46.48224" lon="6.76245"><ele>520.2</ele><time>2023-06-17T15:12:07Z</time></trkpt>
<trkpt lat="46.48221" lon="6.76256"><ele>520.8</ele><time>2023-06-17T15:12:09Z</time></trkpt>
<trkpt lat="46.48214" lon="6.76272"><ele>521.4</ele><time>2023-06-17T15:12:13Z</time></trkpt>
<trkpt lat="46.4821" lon="6.76281"><ele>522</ele><time>2023-06-17T15:12:16Z</time></trkpt>
<trkpt lat="46.482" lon="6.76302"><ele>522.8</ele><time>2023-06-17T15:12:23Z</time></trkpt>
<trkpt lat="46.48196" lon="6.76307"><ele>523.2</ele><time>2023-06-17T15:12:25Z</time></trkpt>
<trkpt lat="46.48185" lon="6.7633"><ele>524.4</ele><time>2023-06-17T15:12:33Z</time></trkpt>
<trkpt lat="46.48174" lon="6.76352"><ele>525.4</ele><time>2023-06-17T15:12:41Z</time></trkpt>
<trkpt lat="46.4817" lon="6.76362"><ele>525.8</ele><time>2023-06-17T15:12:45Z</time></trkpt>
<trkpt lat="46.48162" lon="6.7638"><ele>526.6</ele><time>2023-06-17T15:12:51Z</time></trkpt>
<trkpt lat="46.48155" lon="6.76394"><ele>527.2</ele><time>2023-06-17T15:12:56Z</time></trkpt>
<trkpt lat="46.4815" lon="6.76404"><ele>527.6</ele><time>2023-06-17T15:13:00Z</time></trkpt>
<trkpt lat="46.48143" lon="6.7642"><ele>528.4</ele><time>2023-06-17T15:13:05Z</time></trkpt>
<trkpt lat="46.48141" lon="6.76427"><ele>528.8</ele><time>2023-06-17T15:13:07Z</time></trkpt>
<trkpt lat="46.48131" lon="6.76455"><ele>529.6</ele><time>2023-06-17T15:13:16Z</time></trkpt>
<trkpt lat="46.4813" lon="6.76457"><ele>529.8</ele><time>2023-06-17T15:13:17Z</time></trkpt>
<trkpt lat="46.48121" lon="6.76484"><ele>530.8</ele><time>2023-06-17T15:13:26Z</time></trkpt>
<trkpt lat="46.48121" lon="6.76487"><ele>531</ele><time>2023-06-17T15:13:27Z</time></trkpt>
<trkpt lat="46.48111" lon="6.76516"><ele>532.2</ele><time>2023-06-17T15:13:37Z</time></trkpt>
<trkpt lat="46.48102" lon="6.76541"><ele>533</ele><time>2023-06-17T15:13:44Z</time></trkpt>
<trkpt lat="46.481" lon="6.76546"><ele>533.2</ele><time>2023-06-17T15:13:45Z</time></trkpt>
<trkpt lat="46.48089" lon="6.76568"><ele>534.4</ele><time>2023-06-17T15:13:50Z</time></trkpt>
<trkpt lat="46.48086" lon="6.76573"><ele>534.6</ele><time>2023-06-17T15:13:51Z</time></trkpt>
<trkpt lat="46.48074" lon="6.7659"><ele>535.8</ele><time>2023-06-17T15:13:55Z</time></trkpt>
<trkpt lat="46.48063" lon="6.76608"><ele>536.6</ele><time>2023-06-17T15:13:59Z</time></trkpt>
<trkpt lat="46.48061" lon="6.76613"><ele>537</ele><time>2023-06-17T15:14:00Z</time></trkpt>
<trkpt lat="46.48059" lon="6.76619"><ele>537.2</ele><time>2023-06-17T15:14:01Z</time></trkpt>
<trkpt lat="46.48054" lon="6.76643"><ele>538</ele><time>2023-06-17T15:14:05Z</time></trkpt>
<trkpt lat="46.48047" lon="6.76669"><ele>539</ele><time>2023-06-17T15:14:10Z</time></trkpt>
<trkpt lat="46.48046" lon="6.76672"><ele>539.2</ele><time>2023-06-17T15:14:11Z</time></trkpt>
<trkpt lat="46.4804" lon="6.76693"><ele>540.2</ele><time>2023-06-17T15:14:17Z</time></trkpt>
<trkpt lat="46.48034" lon="6.76713"><ele>541.4</ele><time>2023-06-17T15:14:23Z</time></trkpt>
<trkpt lat="46.48033" lon="6.76716"><ele>541.6</ele><time>2023-06-17T15:14:24Z</time></trkpt>
<trkpt lat="46.48027" lon="6.76738"><ele>542.4</ele><time>2023-06-17T15:14:31Z</time></trkpt>
<trkpt lat="46.48026" lon="6.76748"><ele>543</ele><time>2023-06-17T15:14:34Z</time></trkpt>
<trkpt lat="46.48026" lon="6.76762"><ele>543.4</ele><time>2023-06-17T15:14:38Z</time></trkpt>
<trkpt lat="46.48028" lon="6.7678"><ele>544</ele><time>2023-06-17T15:14:43Z</time></trkpt>
<trkpt lat="46.48032" lon="6.76788"><ele>544.6</ele><time>2023-06-17T15:14:46Z</time></trkpt>
<trkpt lat="46.48035" lon="6.76796"><ele>544.8</ele><time>2023-06-17T15:14:49Z</time></trkpt>
<trkpt lat="46.48048" lon="6.76827"><ele>545.6</ele><time>2023-06-17T15:14:59Z</time></trkpt>
<trkpt lat="46.48048" lon="6.7683"><ele>545.8</ele><time>2023-06-17T15:15:00Z</time></trkpt>
<trkpt lat="46.48052" lon="6.76855"><ele>546.6</ele><time>2023-06-17T15:15:07Z</time></trkpt>
<trkpt lat="46.48052" lon="6.76859"><ele>546.8</ele><time>2023-06-17T15:15:08Z</time></trkpt>
<trkpt lat="46.48049" lon="6.76878"><ele>547.8</ele><time>2023-06-17T15:15:14Z</time></trkpt>
<trkpt lat="46.48048" lon="6.76885"><ele>548.2</ele><time>2023-06-17T15:15:16Z</time></trkpt>
<trkpt lat="46.48046" lon="6.76898"><ele>549</ele><time>2023-06-17T15:15:20Z</time></trkpt>
<trkpt lat="46.48044" lon="6.76914"><ele>549.6</ele><time>2023-06-17T15:15:25Z</time></trkpt>
<trkpt lat="46.48044" lon="6.76921"><ele>550</ele><time>2023-06-17T15:15:27Z</time></trkpt>
<trkpt lat="46.48044" lon="6.76938"><ele>551</ele><time>2023-06-17T15:15:33Z</time></trkpt>
<trkpt lat="46.48044" lon="6.76945"><ele>551</ele><time>2023-06-17T15:15:35Z</time></trkpt>
<trkpt lat="46.48045" lon="6.76967"><ele>551.6</ele><time>2023-06-17T15:15:41Z</time></trkpt>
<trkpt lat="46.48045" lon="6.76982"><ele>552.2</ele><time>2023-06-17T15:15:45Z</time></trkpt>
<trkpt lat="46.48045" lon="6.77009"><ele>553</ele><time>2023-06-17T15:15:53Z</time></trkpt>
<trkpt lat="46.48045" lon="6.77017"><ele>553.2</ele><time>2023-06-17T15:15:55Z</time></trkpt>
<trkpt lat="46.4804" lon="6.77045"><ele>554.2</ele><time>2023-06-17T15:16:03Z</time></trkpt>
<trkpt lat="46.48039" lon="6.77048"><ele>554.2</ele><time>2023-06-17T15:16:04Z</time></trkpt>
<trkpt lat="46.48034" lon="6.77066"><ele>555.4</ele><time>2023-06-17T15:16:09Z</time></trkpt>
<trkpt lat="46.48029" lon="6.77085"><ele>556.4</ele><time>2023-06-17T15:16:14Z</time></trkpt>
<trkpt lat="46.48028" lon="6.77115"><ele>557.4</ele><time>2023-06-17T15:16:22Z</time></trkpt>
<trkpt lat="46.48027" lon="6.77119"><ele>557.4</ele><time>2023-06-17T15:16:23Z</time></trkpt>
<trkpt lat="46.48026" lon="6.77165"><ele>558.4</ele><time>2023-06-17T15:16:34Z</time></trkpt>
<trkpt lat="46.48025" lon="6.77168"><ele>558.4</ele><time>2023-06-17T15:16:35Z</time></trkpt>
<trkpt lat="46.48023" lon="6.77197"><ele>559.6</ele><time>2023-06-17T15:16:42Z</time></trkpt>
<trkpt lat="46.48022" lon="6.77202"><ele>559.8</ele><time>2023-06-17T15:16:43Z</time></trkpt>
<trkpt lat="46.48019" lon="6.77221"><ele>560.6</ele><time>2023-06-17T15:16:47Z</time></trkpt>
<trkpt lat="46.48014" lon="6.77248"><ele>561.4</ele><time>2023-06-17T15:16:52Z</time></trkpt>
<trkpt lat="46.48013" lon="6.77254"><ele>561.8</ele><time>2023-06-17T15:16:53Z</time></trkpt>
<trkpt lat="46.4801" lon="6.77281"><ele>563</ele><time>2023-06-17T15:16:58Z</time></trkpt>
<trkpt lat="46.48005" lon="6.77315"><ele>564.2</ele><time>2023-06-17T15:17:04Z</time></trkpt>
<trkpt lat="46.48006" lon="6.77339"><ele>565.2</ele><time>2023-06-17T15:17:08Z</time></trkpt>
<trkpt lat="46.48007" lon="6.77345"><ele>565.2</ele><time>2023-06-17T15:17:09Z</time></trkpt>
<trkpt lat="46.48008" lon="6.77351"><ele>565.6</ele><time>2023-06-17T15:17:10Z</time></trkpt>
<trkpt lat="46.48018" lon="6.77381"><ele>566.2</ele><time>2023-06-17T15:17:16Z</time></trkpt>
<trkpt lat="46.48034" lon="6.77395"><ele>566.4</ele><time>2023-06-17T15:17:21Z</time></trkpt>
<trkpt lat="46.48051" lon="6.77395"><ele>566.6</ele><time>2023-06-17T15:17:26Z</time></trkpt>
<trkpt lat="46.48072" lon="6.77381"><ele>566.8</ele><time>2023-06-17T15:17:32Z</time></trkpt>
<trkpt lat="46.4808" lon="6.77376"><ele>566.8</ele><time>2023-06-17T15:17:34Z</time></trkpt>
<trkpt lat="46.48088" lon="6.77373"><ele>566.8</ele><time>2023-06-17T15:17:36Z</time></trkpt>
<trkpt lat="46.48096" lon="6.77372"><ele>567</ele><time>2023-06-17T15:17:38Z</time></trkpt>
<trkpt lat="46.48104" lon="6.77374"><ele>567</ele><time>2023-06-17T15:17:40Z</time></trkpt>
<trkpt lat="46.48116" lon="6.77381"><ele>567</ele><time>2023-06-17T15:17:43Z</time></trkpt>
<trkpt lat="46.48125" lon="6.77394"><ele>567.2</ele><time>2023-06-17T15:17:46Z</time></trkpt>
<trkpt lat="46.48127" lon="6.77398"><ele>567.4</ele><time>2023-06-17T15:17:47Z</time></trkpt>
<trkpt lat="46.48129" lon="6.77404"><ele>567.4</ele><time>2023-06-17T15:17:48Z</time></trkpt>
<trkpt lat="46.48144" lon="6.77436"><ele>568.4</ele><time>2023-06-17T15:17:55Z</time></trkpt>
<trkpt lat="46.48152" lon="6.77448"><ele>568.6</ele><time>2023-06-17T15:17:58Z</time></trkpt>
<trkpt lat="46.4817" lon="6.7747"><ele>569.6</ele><time>2023-06-17T15:18:04Z</time></trkpt>
<trkpt lat="46.48173" lon="6.77474"><ele>569.6</ele><time>2023-06-17T15:18:05Z</time></trkpt>
<trkpt lat="46.48189" lon="6.77499"><ele>570</ele><time>2023-06-17T15:18:11Z</time></trkpt>
<trkpt lat="46.48193" lon="6.77517"><ele>570</ele><time>2023-06-17T15:18:15Z</time></trkpt>
<trkpt lat="46.4819" lon="6.77527"><ele>570</ele><time>2023-06-17T15:18:17Z</time></trkpt>
<trkpt lat="46.48185" lon="6.77539"><ele>569.4</ele><time>2023-06-17T15:18:19Z</time></trkpt>
<trkpt lat="46.48182" lon="6.77545"><ele>568.4</ele><time>2023-06-17T15:18:20Z</time></trkpt>
<trkpt lat="46.48178" lon="6.77551"><ele>568</ele><time>2023-06-17T15:18:21Z</time></trkpt>
<trkpt lat="46.48171" lon="6.7756"><ele>567.6</ele><time>2023-06-17T15:18:23Z</time></trkpt>
<trkpt lat="46.48167" lon="6.77563"><ele>567.4</ele><time>2023-06-17T15:18:24Z</time></trkpt>
<trkpt lat="46.48163" lon="6.77565"><ele>567.2</ele><time>2023-06-17T15:18:25Z</time></trkpt>
<trkpt lat="46.48156" lon="6.77571"><ele>567.6</ele><time>2023-06-17T15:18:28Z</time></trkpt>
<trkpt lat="46.48143" lon="6.77587"><ele>568.2</ele><time>2023-06-17T15:18:34Z</time></trkpt>
<trkpt lat="46.48129" lon="6.77606"><ele>567.6</ele><time>2023-06-17T15:18:38Z</time></trkpt>
<trkpt lat="46.48126" lon="6.77614"><ele>567.2</ele><time>2023-06-17T15:18:39Z</time></trkpt>
<trkpt lat="46.4812" lon="6.77637"><ele>566</ele><time>2023-06-17T15:18:42Z</time></trkpt>
<trkpt lat="46.48114" lon="6.77651"><ele>565.4</ele><time>2023-06-17T15:18:45Z</time></trkpt>
<trkpt lat="46.48113" lon="6.77654"><ele>565.4</ele><time>2023-06-17T15:18:46Z</time></trkpt>
<trkpt lat="46.48116" lon="6.77653"><ele>565</ele><time>2023-06-17T15:18:47Z</time></trkpt>
<trkpt lat="46.48118" lon="6.7765"><ele>564.8</ele><time>2023-06-17T15:18:48Z</time></trkpt>
<trkpt lat="46.48117" lon="6.77646"><ele>564.8</ele><time>2023-06-17T15:18:49Z</time></trkpt>
<trkpt lat="46.48119" lon="6.7764"><ele>565</ele><time>2023-06-17T15:18:51Z</time></trkpt>
<trkpt lat="46.48125" lon="6.77624"><ele>565.6</ele><time>2023-06-17T15:18:56Z</time></trkpt>
<trkpt lat="46.48132" lon="6.77604"><ele>566</ele><time>2023-06-17T15:19:02Z</time></trkpt>
<trkpt lat="46.48132" lon="6.77603"><ele>566.2</ele><time>2023-06-17T15:19:03Z</time></trkpt>
<trkpt lat="46.48129" lon="6.776"><ele>566.6</ele><time>2023-06-17T15:19:06Z</time></trkpt>
<trkpt lat="46.48127" lon="6.776"><ele>566.8</ele><time>2023-06-17T15:19:07Z</time></trkpt>
<trkpt lat="46.48121" lon="6.77599"><ele>567.2</ele><time>2023-06-17T15:19:10Z</time></trkpt>
<trkpt lat="46.48115" lon="6.77595"><ele>567.4</ele><time>2023-06-17T15:19:13Z</time></trkpt>
<trkpt lat="46.48112" lon="6.77593"><ele>567.6</ele><time>2023-06-17T15:19:17Z</time></trkpt>
<trkpt lat="46.48112" lon="6.77593"><ele>567.4</ele><time>2023-06-17T15:19:18Z</time></trkpt>
<trkpt lat="46.48122" lon="6.77597"><ele>567.4</ele><time>2023-06-17T15:19:23Z</time></trkpt>
<trkpt lat="46.48129" lon="6.77602"><ele>567.2</ele><time>2023-06-17T15:19:27Z</time></trkpt>
<trkpt lat="46.48129" lon="6.77604"><ele>567</ele><time>2023-06-17T15:19:28Z</time></trkpt>
<trkpt lat="46.48125" lon="6.77613"><ele>566.8</ele><time>2023-06-17T15:19:31Z</time></trkpt>
<trkpt lat="46.48123" lon="6.77622"><ele>566</ele><time>2023-06-17T15:19:33Z</time></trkpt>
<trkpt lat="46.48119" lon="6.77639"><ele>565.4</ele><time>2023-06-17T15:19:39Z</time></trkpt>
<trkpt lat="46.48113" lon="6.77658"><ele>565.2</ele><time>2023-06-17T15:19:44Z</time></trkpt>
<trkpt lat="46.48112" lon="6.77662"><ele>565</ele><time>2023-06-17T15:19:45Z</time></trkpt>
<trkpt lat="46.48113" lon="6.77677"><ele>564.6</ele><time>2023-06-17T15:19:48Z</time></trkpt>
<trkpt lat="46.48121" lon="6.77693"><ele>564.8</ele><time>2023-06-17T15:19:53Z</time></trkpt>
<trkpt lat="46.48122" lon="6.77695"><ele>565</ele><time>2023-06-17T15:19:54Z</time></trkpt>
<trkpt lat="46.48128" lon="6.77705"><ele>565.8</ele><time>2023-06-17T15:19:59Z</time></trkpt>
<trkpt lat="46.4813" lon="6.77707"><ele>566</ele><time>2023-06-17T15:20:00Z</time></trkpt>
<trkpt lat="46.48137" lon="6.77716"><ele>567</ele><time>2023-06-17T15:20:05Z</time></trkpt>
<trkpt lat="46.48139" lon="6.77718"><ele>567.6</ele><time>2023-06-17T15:20:07Z</time></trkpt>
<trkpt lat="46.48144" lon="6.77721"><ele>568.2</ele><time>2023-06-17T15:20:12Z</time></trkpt>
<trkpt lat="46.48147" lon="6.77724"><ele>568.8</ele><time>2023-06-17T15:20:15Z</time></trkpt>
<trkpt lat="46.4815" lon="6.77729"><ele>569</ele><time>2023-06-17T15:20:18Z</time></trkpt>
<trkpt lat="46.48151" lon="6.7773"><ele>569.2</ele><time>2023-06-17T15:20:19Z</time></trkpt>
<trkpt lat="46.48153" lon="6.77731"><ele>569.2</ele><time>2023-06-17T15:20:20Z</time></trkpt>
<trkpt lat="46.48153" lon="6.77733"><ele>569.2</ele><time>2023-06-17T15:20:21Z</time></trkpt>
<trkpt lat="46.48153" lon="6.77754"><ele>569</ele><time>2023-06-17T15:20:25Z</time></trkpt>
<trkpt lat="46.48154" lon="6.7776"><ele>569</ele><time>2023-06-17T15:20:26Z</time></trkpt>
<trkpt lat="46.48158" lon="6.77789"><ele>568.4</ele><time>2023-06-17T15:20:30Z</time></trkpt>
<trkpt lat="46.48162" lon="6.77803"><ele>568</ele><time>2023-06-17T15:20:32Z</time></trkpt>
<trkpt lat="46.48166" lon="6.77831"><ele>567.6</ele><time>2023-06-17T15:20:35Z</time></trkpt>
<trkpt lat="46.48171" lon="6.77862"><ele>566.6</ele><time>2023-06-17T15:20:38Z</time></trkpt>
<trkpt lat="46.48174" lon="6.77886"><ele>566.2</ele><time>2023-06-17T15:20:40Z</time></trkpt>
<trkpt lat="46.48179" lon="6.77912"><ele>564</ele><time>2023-06-17T15:20:42Z</time></trkpt>
<trkpt lat="46.4818" lon="6.77925"><ele>563.6</ele><time>2023-06-17T15:20:43Z</time></trkpt>
<trkpt lat="46.4818" lon="6.77938"><ele>562.4</ele><time>2023-06-17T15:20:44Z</time></trkpt>
<trkpt lat="46.48179" lon="6.77951"><ele>561.4</ele><time>2023-06-17T15:20:45Z</time></trkpt>
<trkpt lat="46.48176" lon="6.77963"><ele>561.2</ele><time>2023-06-17T15:20:46Z</time></trkpt>
<trkpt lat="46.48172" lon="6.77974"><ele>560</ele><time>2023-06-17T15:20:47Z</time></trkpt>
<trkpt lat="46.48167" lon="6.77983"><ele>559</ele><time>2023-06-17T15:20:48Z</time></trkpt>
<trkpt lat="46.48161" lon="6.77991"><ele>558.2</ele><time>2023-06-17T15:20:49Z</time></trkpt>
<trkpt lat="46.48148" lon="6.78006"><ele>557</ele><time>2023-06-17T15:20:51Z</time></trkpt>
<trkpt lat="46.48142" lon="6.78014"><ele>556.6</ele><time>2023-06-17T15:20:52Z</time></trkpt>
<trkpt lat="46.48129" lon="6.78031"><ele>554.6</ele><time>2023-06-17T15:20:54Z</time></trkpt>
<trkpt lat="46.48107" lon="6.78056"><ele>554</ele><time>2023-06-17T15:20:57Z</time></trkpt>
<trkpt lat="46.481" lon="6.78063"><ele>553.2</ele><time>2023-06-17T15:20:58Z</time></trkpt>
<trkpt lat="46.48094" lon="6.78068"><ele>551.6</ele><time>2023-06-17T15:20:59Z</time></trkpt>
<trkpt lat="46.48083" lon="6.78075"><ele>551.2</ele><time>2023-06-17T15:21:01Z</time></trkpt>
<trkpt lat="46.48075" lon="6.78082"><ele>551</ele><time>2023-06-17T15:21:03Z</time></trkpt>
<trkpt lat="46.4807" lon="6.78085"><ele>550.6</ele><time>2023-06-17T15:21:04Z</time></trkpt>
<trkpt lat="46.48063" lon="6.7809"><ele>550</ele><time>2023-06-17T15:21:06Z</time></trkpt>
<trkpt lat="46.48055" lon="6.781"><ele>550</ele><time>2023-06-17T15:21:09Z</time></trkpt>
<trkpt lat="46.48054" lon="6.78106"><ele>550</ele><time>2023-06-17T15:21:10Z</time></trkpt>
<trkpt lat="46.48054" lon="6.78112"><ele>550</ele><time>2023-06-17T15:21:11Z</time></trkpt>
<trkpt lat="46.48053" lon="6.78131"><ele>549.4</ele><time>2023-06-17T15:21:14Z</time></trkpt>
<trkpt lat="46.48051" lon="6.78156"><ele>549.2</ele><time>2023-06-17T15:21:17Z</time></trkpt>
<trkpt lat="46.48042" lon="6.78172"><ele>548</ele><time>2023-06-17T15:21:19Z</time></trkpt>
<trkpt lat="46.48035" lon="6.7818"><ele>547.6</ele><time>2023-06-17T15:21:20Z</time></trkpt>
<trkpt lat="46.48029" lon="6.78188"><ele>546.8</ele><time>2023-06-17T15:21:21Z</time></trkpt>
<trkpt lat="46.48021" lon="6.78209"><ele>545.6</ele><time>2023-06-17T15:21:23Z</time></trkpt>
<trkpt lat="46.48012" lon="6.78246"><ele>544</ele><time>2023-06-17T15:21:26Z</time></trkpt>
<trkpt lat="46.48008" lon="6.78258"><ele>543.6</ele><time>2023-06-17T15:21:27Z</time></trkpt>
<trkpt lat="46.48003" lon="6.78268"><ele>542.6</ele><time>2023-06-17T15:21:28Z</time></trkpt>
<trkpt lat="46.47998" lon="6.78276"><ele>541.8</ele><time>2023-06-17T15:21:29Z</time></trkpt>
<trkpt lat="46.47992" lon="6.78284"><ele>541.6</ele><time>2023-06-17T15:21:30Z</time></trkpt>
<trkpt lat="46.47986" lon="6.78292"><ele>541.2</ele><time>2023-06-17T15:21:31Z</time></trkpt>
<trkpt lat="46.47982" lon="6.78301"><ele>540.4</ele><time>2023-06-17T15:21:32Z</time></trkpt>
<trkpt lat="46.47972" lon="6.78331"><ele>539</ele><time>2023-06-17T15:21:35Z</time></trkpt>
<trkpt lat="46.4797" lon="6.78342"><ele>538.6</ele><time>2023-06-17T15:21:36Z</time></trkpt>
<trkpt lat="46.47963" lon="6.78401"><ele>538</ele><time>2023-06-17T15:21:41Z</time></trkpt>
<trkpt lat="46.4796" lon="6.78427"><ele>536.6</ele><time>2023-06-17T15:21:43Z</time></trkpt>
<trkpt lat="46.47951" lon="6.78481"><ele>535.6</ele><time>2023-06-17T15:21:47Z</time></trkpt>
<trkpt lat="46.47948" lon="6.78495"><ele>534.8</ele><time>2023-06-17T15:21:48Z</time></trkpt>
<trkpt lat="46.47942" lon="6.78523"><ele>533.2</ele><time>2023-06-17T15:21:50Z</time></trkpt>
<trkpt lat="46.47932" lon="6.78565"><ele>530.8</ele><time>2023-06-17T15:21:53Z</time></trkpt>
<trkpt lat="46.47925" lon="6.78593"><ele>529</ele><time>2023-06-17T15:21:55Z</time></trkpt>
<trkpt lat="46.47912" lon="6.78634"><ele>527.6</ele><time>2023-06-17T15:21:58Z</time></trkpt>
<trkpt lat="46.47903" lon="6.7866"><ele>526.6</ele><time>2023-06-17T15:22:00Z</time></trkpt>
<trkpt lat="46.47898" lon="6.78673"><ele>526</ele><time>2023-06-17T15:22:01Z</time></trkpt>
<trkpt lat="46.47887" lon="6.78697"><ele>525.4</ele><time>2023-06-17T15:22:03Z</time></trkpt>
<trkpt lat="46.47867" lon="6.78741"><ele>524.8</ele><time>2023-06-17T15:22:07Z</time></trkpt>
<trkpt lat="46.47853" lon="6.78771"><ele>524.4</ele><time>2023-06-17T15:22:10Z</time></trkpt>
<trkpt lat="46.47836" lon="6.7881"><ele>524.2</ele><time>2023-06-17T15:22:14Z</time></trkpt>
<trkpt lat="46.47809" lon="6.78888"><ele>523.4</ele><time>2023-06-17T15:22:22Z</time></trkpt>
<trkpt lat="46.47808" lon="6.78899"><ele>523.2</ele><time>2023-06-17T15:22:23Z</time></trkpt>
<trkpt lat="46.47803" lon="6.78942"><ele>523.2</ele><time>2023-06-17T15:22:27Z</time></trkpt>
<trkpt lat="46.47801" lon="6.78957"><ele>524.4</ele><time>2023-06-17T15:22:29Z</time></trkpt>
<trkpt lat="46.47797" lon="6.78986"><ele>525.2</ele><time>2023-06-17T15:22:33Z</time></trkpt>
<trkpt lat="46.47794" lon="6.79"><ele>525.4</ele><time>2023-06-17T15:22:35Z</time></trkpt>
<trkpt lat="46.47793" lon="6.79007"><ele>525.4</ele><time>2023-06-17T15:22:36Z</time></trkpt>
<trkpt lat="46.47795" lon="6.79019"><ele>525.6</ele><time>2023-06-17T15:22:38Z</time></trkpt>
<trkpt lat="46.47798" lon="6.79037"><ele>526</ele><time>2023-06-17T15:22:41Z</time></trkpt>
<trkpt lat="46.47798" lon="6.79055"><ele>526.4</ele><time>2023-06-17T15:22:44Z</time></trkpt>
<trkpt lat="46.47793" lon="6.79078"><ele>526.8</ele><time>2023-06-17T15:22:49Z</time></trkpt>
<trkpt lat="46.4779" lon="6.7909"><ele>527.6</ele><time>2023-06-17T15:22:53Z</time></trkpt>
<trkpt lat="46.4779" lon="6.79092"><ele>527.8</ele><time>2023-06-17T15:22:54Z</time></trkpt>
<trkpt lat="46.47787" lon="6.79101"><ele>528.6</ele><time>2023-06-17T15:22:59Z</time></trkpt>
<trkpt lat="46.47787" lon="6.79102"><ele>528.8</ele><time>2023-06-17T15:23:00Z</time></trkpt>
<trkpt lat="46.47784" lon="6.79112"><ele>529.6</ele><time>2023-06-17T15:23:05Z</time></trkpt>
<trkpt lat="46.47783" lon="6.79116"><ele>530</ele><time>2023-06-17T15:23:07Z</time></trkpt>
<trkpt lat="46.47783" lon="6.79126"><ele>530.6</ele><time>2023-06-17T15:23:11Z</time></trkpt>
<trkpt lat="46.47782" lon="6.79135"><ele>530.8</ele><time>2023-06-17T15:23:14Z</time></trkpt>
<trkpt lat="46.4778" lon="6.79141"><ele>531</ele><time>2023-06-17T15:23:16Z</time></trkpt>
<trkpt lat="46.4778" lon="6.79143"><ele>531</ele><time>2023-06-17T15:23:17Z</time></trkpt>
<trkpt lat="46.47779" lon="6.79152"><ele>531.2</ele><time>2023-06-17T15:23:20Z</time></trkpt>
<trkpt lat="46.47776" lon="6.79159"><ele>531</ele><time>2023-06-17T15:23:22Z</time></trkpt>
<trkpt lat="46.47769" lon="6.7917"><ele>531</ele><time>2023-06-17T15:23:25Z</time></trkpt>
<trkpt lat="46.47748" lon="6.79209"><ele>531.4</ele><time>2023-06-17T15:23:35Z</time></trkpt>
<trkpt lat="46.47741" lon="6.79223"><ele>531.8</ele><time>2023-06-17T15:23:39Z</time></trkpt>
<trkpt lat="46.47735" lon="6.79244"><ele>532.2</ele><time>2023-06-17T15:23:44Z</time></trkpt>
<trkpt lat="46.4773" lon="6.79272"><ele>532.8</ele><time>2023-06-17T15:23:50Z</time></trkpt>
<trkpt lat="46.4773" lon="6.79276"><ele>533</ele><time>2023-06-17T15:23:51Z</time></trkpt>
<trkpt lat="46.47729" lon="6.79288"><ele>533.8</ele><time>2023-06-17T15:23:55Z</time></trkpt>
<trkpt lat="46.47728" lon="6.79299"><ele>534.4</ele><time>2023-06-17T15:23:59Z</time></trkpt>
<trkpt lat="46.47726" lon="6.79307"><ele>534.8</ele><time>2023-06-17T15:24:02Z</time></trkpt>
<trkpt lat="46.47723" lon="6.79322"><ele>536</ele><time>2023-06-17T15:24:08Z</time></trkpt>
<trkpt lat="46.47721" lon="6.79332"><ele>536.8</ele><time>2023-06-17T15:24:12Z</time></trkpt>
<trkpt lat="46.47721" lon="6.79333"><ele>537</ele><time>2023-06-17T15:24:13Z</time></trkpt>
<trkpt lat="46.47719" lon="6.79342"><ele>537.4</ele><time>2023-06-17T15:24:18Z</time></trkpt>
<trkpt lat="46.47716" lon="6.79353"><ele>538.2</ele><time>2023-06-17T15:24:23Z</time></trkpt>
<trkpt lat="46.47715" lon="6.79356"><ele>538.6</ele><time>2023-06-17T15:24:25Z</time></trkpt>
<trkpt lat="46.47714" lon="6.79365"><ele>539.4</ele><time>2023-06-17T15:24:30Z</time></trkpt>
<trkpt lat="46.47713" lon="6.79369"><ele>539.6</ele><time>2023-06-17T15:24:32Z</time></trkpt>
<trkpt lat="46.4771" lon="6.79378"><ele>540.4</ele><time>2023-06-17T15:24:37Z</time></trkpt>
<trkpt lat="46.47708" lon="6.79381"><ele>540.8</ele><time>2023-06-17T15:24:39Z</time></trkpt>
<trkpt lat="46.47704" lon="6.79388"><ele>541.6</ele><time>2023-06-17T15:24:44Z</time></trkpt>
<trkpt lat="46.47703" lon="6.79392"><ele>541.8</ele><time>2023-06-17T15:24:46Z</time></trkpt>
<trkpt lat="46.47699" lon="6.794"><ele>542.6</ele><time>2023-06-17T15:24:51Z</time></trkpt>
<trkpt lat="46.47697" lon="6.79402"><ele>543</ele><time>2023-06-17T15:24:53Z</time></trkpt>
<trkpt lat="46.47694" lon="6.79409"><ele>543.6</ele><time>2023-06-17T15:24:57Z</time></trkpt>
<trkpt lat="46.47693" lon="6.79411"><ele>543.8</ele><time>2023-06-17T15:24:58Z</time></trkpt>
<trkpt lat="46.47688" lon="6.79419"><ele>544.6</ele><time>2023-06-17T15:25:03Z</time></trkpt>
<trkpt lat="46.47686" lon="6.79423"><ele>545</ele><time>2023-06-17T15:25:05Z</time></trkpt>
<trkpt lat="46.47682" lon="6.79432"><ele>545.8</ele><time>2023-06-17T15:25:09Z</time></trkpt>
<trkpt lat="46.47678" lon="6.79449"><ele>546.8</ele><time>2023-06-17T15:25:16Z</time></trkpt>
<trkpt lat="46.47679" lon="6.79464"><ele>547.8</ele><time>2023-06-17T15:25:22Z</time></trkpt>
<trkpt lat="46.47681" lon="6.79472"><ele>548.6</ele><time>2023-06-17T15:25:26Z</time></trkpt>
<trkpt lat="46.47682" lon="6.79475"><ele>549</ele><time>2023-06-17T15:25:28Z</time></trkpt>
<trkpt lat="46.47682" lon="6.79482"><ele>549.6</ele><time>2023-06-17T15:25:33Z</time></trkpt>
<trkpt lat="46.47683" lon="6.79485"><ele>550</ele><time>2023-06-17T15:25:35Z</time></trkpt>
<trkpt lat="46.47683" lon="6.79494"><ele>550.8</ele><time>2023-06-17T15:25:40Z</time></trkpt>
<trkpt lat="46.47681" lon="6.79498"><ele>551</ele><time>2023-06-17T15:25:42Z</time></trkpt>
<trkpt lat="46.47674" lon="6.79509"><ele>551.2</ele><time>2023-06-17T15:25:46Z</time></trkpt>
<trkpt lat="46.47664" lon="6.79531"><ele>551.4</ele><time>2023-06-17T15:25:53Z</time></trkpt>
<trkpt lat="46.47655" lon="6.79562"><ele>552</ele><time>2023-06-17T15:26:02Z</time></trkpt>
<trkpt lat="46.47654" lon="6.79565"><ele>552</ele><time>2023-06-17T15:26:03Z</time></trkpt>
<trkpt lat="46.47649" lon="6.79591"><ele>553</ele><time>2023-06-17T15:26:10Z</time></trkpt>
<trkpt lat="46.47648" lon="6.79598"><ele>553.2</ele><time>2023-06-17T15:26:12Z</time></trkpt>
<trkpt lat="46.47642" lon="6.79621"><ele>554</ele><time>2023-06-17T15:26:18Z</time></trkpt>
<trkpt lat="46.47636" lon="6.79634"><ele>554.6</ele><time>2023-06-17T15:26:22Z</time></trkpt>
<trkpt lat="46.47632" lon="6.79643"><ele>555</ele><time>2023-06-17T15:26:27Z</time></trkpt>
<trkpt lat="46.47626" lon="6.79658"><ele>554.6</ele><time>2023-06-17T15:26:33Z</time></trkpt>
<trkpt lat="46.47618" lon="6.79687"><ele>553.4</ele><time>2023-06-17T15:26:38Z</time></trkpt>
<trkpt lat="46.47617" lon="6.79695"><ele>553</ele><time>2023-06-17T15:26:39Z</time></trkpt>
<trkpt lat="46.47617" lon="6.79704"><ele>552.4</ele><time>2023-06-17T15:26:40Z</time></trkpt>
<trkpt lat="46.47617" lon="6.79724"><ele>551.6</ele><time>2023-06-17T15:26:42Z</time></trkpt>
<trkpt lat="46.47615" lon="6.79735"><ele>551</ele><time>2023-06-17T15:26:43Z</time></trkpt>
<trkpt lat="46.47608" lon="6.79756"><ele>550</ele><time>2023-06-17T15:26:45Z</time></trkpt>
<trkpt lat="46.47597" lon="6.7977"><ele>548.6</ele><time>2023-06-17T15:26:47Z</time></trkpt>
<trkpt lat="46.47593" lon="6.79776"><ele>547.6</ele><time>2023-06-17T15:26:48Z</time></trkpt>
<trkpt lat="46.47589" lon="6.79782"><ele>547</ele><time>2023-06-17T15:26:49Z</time></trkpt>
<trkpt lat="46.47584" lon="6.79796"><ele>547</ele><time>2023-06-17T15:26:51Z</time></trkpt>
<trkpt lat="46.47582" lon="6.79803"><ele>547</ele><time>2023-06-17T15:26:52Z</time></trkpt>
<trkpt lat="46.47575" lon="6.79829"><ele>547.4</ele><time>2023-06-17T15:26:57Z</time></trkpt>
<trkpt lat="46.47574" lon="6.7983"><ele>547.8</ele><time>2023-06-17T15:27:00Z</time></trkpt>
<trkpt lat="46.47576" lon="6.79829"><ele>547.6</ele><time>2023-06-17T15:27:08Z</time></trkpt>
<trkpt lat="46.47577" lon="6.79831"><ele>547.6</ele><time>2023-06-17T15:27:16Z</time></trkpt>
<trkpt lat="46.47577" lon="6.79831"><ele>547.8</ele><time>2023-06-17T15:27:19Z</time></trkpt>
<trkpt lat="46.47577" lon="6.7983"><ele>547.8</ele><time>2023-06-17T15:27:22Z</time></trkpt>
<trkpt lat="46.47577" lon="6.79831"><ele>547.6</ele><time>2023-06-17T15:27:31Z</time></trkpt>
<trkpt lat="46.47577" lon="6.79831"><ele>547.6</ele><time>2023-06-17T15:27:44Z</time></trkpt>
<trkpt lat="46.47579" lon="6.79831"><ele>547.6</ele><time>2023-06-17T15:27:56Z</time></trkpt>
<trkpt lat="46.47579" lon="6.79831"><ele>547.6</ele><time>2023-06-17T15:28:06Z</time></trkpt>
<trkpt lat="46.47577" lon="6.79839"><ele>547.8</ele><time>2023-06-17T15:28:13Z</time></trkpt>
<trkpt lat="46.47576" lon="6.79859"><ele>547.8</ele><time>2023-06-17T15:28:18Z</time></trkpt>
<trkpt lat="46.47585" lon="6.79892"><ele>547.6</ele><time>2023-06-17T15:28:25Z</time></trkpt>
<trkpt lat="46.47603" lon="6.79912"><ele>547.4</ele><time>2023-06-17T15:28:31Z</time></trkpt>
<trkpt lat="46.47608" lon="6.79923"><ele>547.6</ele><time>2023-06-17T15:28:35Z</time></trkpt>
<trkpt lat="46.47611" lon="6.79931"><ele>548.2</ele><time>2023-06-17T15:28:40Z</time></trkpt>
<trkpt lat="46.47613" lon="6.79933"><ele>548.2</ele><time>2023-06-17T15:28:42Z</time></trkpt>
<trkpt lat="46.47613" lon="6.79931"><ele>548.2</ele><time>2023-06-17T15:28:43Z</time></trkpt>
<trkpt lat="46.47609" lon="6.79923"><ele>548.2</ele><time>2023-06-17T15:28:46Z</time></trkpt>
<trkpt lat="46.47607" lon="6.79921"><ele>548</ele><time>2023-06-17T15:28:47Z</time></trkpt>
<trkpt lat="46.47606" lon="6.79922"><ele>548</ele><time>2023-06-17T15:28:48Z</time></trkpt>
<trkpt lat="46.47603" lon="6.79926"><ele>547.6</ele><time>2023-06-17T15:28:50Z</time></trkpt>
<trkpt lat="46.47598" lon="6.7994"><ele>546.4</ele><time>2023-06-17T15:28:54Z</time></trkpt>
<trkpt lat="46.47597" lon="6.79942"><ele>546</ele><time>2023-06-17T15:28:55Z</time></trkpt>
<trkpt lat="46.47595" lon="6.79943"><ele>545.2</ele><time>2023-06-17T15:28:56Z</time></trkpt>
<trkpt lat="46.47593" lon="6.79946"><ele>544</ele><time>2023-06-17T15:28:58Z</time></trkpt>
<trkpt lat="46.47593" lon="6.79947"><ele>543.6</ele><time>2023-06-17T15:28:59Z</time></trkpt>
<trkpt lat="46.4759" lon="6.79946"><ele>543.4</ele><time>2023-06-17T15:29:06Z</time></trkpt>
<trkpt lat="46.47596" lon="6.79939"><ele>544.6</ele><time>2023-06-17T15:29:13Z</time></trkpt>
<trkpt lat="46.47599" lon="6.79935"><ele>545.2</ele><time>2023-06-17T15:29:16Z</time></trkpt>
<trkpt lat="46.47601" lon="6.79931"><ele>545.8</ele><time>2023-06-17T15:29:20Z</time></trkpt>
<trkpt lat="46.47601" lon="6.7993"><ele>546.2</ele><time>2023-06-17T15:29:21Z</time></trkpt>
<trkpt lat="46.47603" lon="6.7992"><ele>546.8</ele><time>2023-06-17T15:29:27Z</time></trkpt>
<trkpt lat="46.47605" lon="6.79919"><ele>547</ele><time>2023-06-17T15:29:28Z</time></trkpt>
<trkpt lat="46.47607" lon="6.79919"><ele>547.2</ele><time>2023-06-17T15:29:29Z</time></trkpt>
<trkpt lat="46.47608" lon="6.79919"><ele>547.2</ele><time>2023-06-17T15:29:30Z</time></trkpt>
<trkpt lat="46.47609" lon="6.79919"><ele>547.4</ele><time>2023-06-17T15:29:31Z</time></trkpt>
<trkpt lat="46.4761" lon="6.79921"><ele>547.6</ele><time>2023-06-17T15:29:32Z</time></trkpt>
<trkpt lat="46.4761" lon="6.79923"><ele>547.6</ele><time>2023-06-17T15:29:33Z</time></trkpt>
<trkpt lat="46.4761" lon="6.79926"><ele>547.6</ele><time>2023-06-17T15:29:34Z</time></trkpt>
<trkpt lat="46.4761" lon="6.79932"><ele>548.2</ele><time>2023-06-17T15:29:37Z</time></trkpt>
<trkpt lat="46.4761" lon="6.79937"><ele>548.4</ele><time>2023-06-17T15:29:39Z</time></trkpt>
<trkpt lat="46.47609" lon="6.79939"><ele>548.6</ele><time>2023-06-17T15:29:40Z</time></trkpt>
<trkpt lat="46.47608" lon="6.79941"><ele>548.6</ele><time>2023-06-17T15:29:41Z</time></trkpt>
<trkpt lat="46.47607" lon="6.79943"><ele>548.8</ele><time>2023-06-17T15:29:42Z</time></trkpt>
<trkpt lat="46.47605" lon="6.79947"><ele>549</ele><time>2023-06-17T15:29:44Z</time></trkpt>
<trkpt lat="46.47603" lon="6.7995"><ele>549.4</ele><time>2023-06-17T15:29:46Z</time></trkpt>
<trkpt lat="46.47597" lon="6.79958"><ele>550.4</ele><time>2023-06-17T15:29:51Z</time></trkpt>
<trkpt lat="46.47594" lon="6.7996"><ele>550.6</ele><time>2023-06-17T15:29:53Z</time></trkpt>
<trkpt lat="46.4759" lon="6.79966"><ele>551.2</ele><time>2023-06-17T15:29:56Z</time></trkpt>
<trkpt lat="46.47588" lon="6.79975"><ele>551.6</ele><time>2023-06-17T15:30:00Z</time></trkpt>
<trkpt lat="46.47588" lon="6.79978"><ele>552</ele><time>2023-06-17T15:30:01Z</time></trkpt>
<trkpt lat="46.47587" lon="6.79982"><ele>552.4</ele><time>2023-06-17T15:30:03Z</time></trkpt>
<trkpt lat="46.47585" lon="6.80002"><ele>552.6</ele><time>2023-06-17T15:30:09Z</time></trkpt>
<trkpt lat="46.47584" lon="6.80017"><ele>553</ele><time>2023-06-17T15:30:14Z</time></trkpt>
<trkpt lat="46.47583" lon="6.8002"><ele>553.2</ele><time>2023-06-17T15:30:15Z</time></trkpt>
<trkpt lat="46.47582" lon="6.80028"><ele>553.2</ele><time>2023-06-17T15:30:18Z</time></trkpt>
<trkpt lat="46.4758" lon="6.8003"><ele>553.2</ele><time>2023-06-17T15:30:20Z</time></trkpt>
<trkpt lat="46.47579" lon="6.8003"><ele>553.4</ele><time>2023-06-17T15:30:25Z</time></trkpt>
<trkpt lat="46.47579" lon="6.8003"><ele>553.6</ele><time>2023-06-17T15:30:31Z</time></trkpt>
<trkpt lat="46.47579" lon="6.80033"><ele>553.4</ele><time>2023-06-17T15:30:34Z</time></trkpt>
<trkpt lat="46.47579" lon="6.80039"><ele>553.4</ele><time>2023-06-17T15:30:36Z</time></trkpt>
<trkpt lat="46.47577" lon="6.8005"><ele>553.2</ele><time>2023-06-17T15:30:39Z</time></trkpt>
<trkpt lat="46.47576" lon="6.80064"><ele>553.2</ele><time>2023-06-17T15:30:42Z</time></trkpt>
<trkpt lat="46.47569" lon="6.80094"><ele>552.8</ele><time>2023-06-17T15:30:48Z</time></trkpt>
<trkpt lat="46.4756" lon="6.80123"><ele>552</ele><time>2023-06-17T15:30:53Z</time></trkpt>
<trkpt lat="46.47556" lon="6.80136"><ele>550.6</ele><time>2023-06-17T15:30:56Z</time></trkpt>
<trkpt lat="46.47551" lon="6.80153"><ele>549.4</ele><time>2023-06-17T15:30:59Z</time></trkpt>
<trkpt lat="46.47549" lon="6.8016"><ele>548.6</ele><time>2023-06-17T15:31:00Z</time></trkpt>
<trkpt lat="46.47547" lon="6.80168"><ele>548</ele><time>2023-06-17T15:31:01Z</time></trkpt>
<trkpt lat="46.4754" lon="6.80185"><ele>546.4</ele><time>2023-06-17T15:31:03Z</time></trkpt>
<trkpt lat="46.47533" lon="6.80209"><ele>544.4</ele><time>2023-06-17T15:31:05Z</time></trkpt>
<trkpt lat="46.4753" lon="6.80221"><ele>543.4</ele><time>2023-06-17T15:31:06Z</time></trkpt>
<trkpt lat="46.47526" lon="6.80234"><ele>542.6</ele><time>2023-06-17T15:31:07Z</time></trkpt>
<trkpt lat="46.47523" lon="6.80248"><ele>542</ele><time>2023-06-17T15:31:08Z</time></trkpt>
<trkpt lat="46.4752" lon="6.80262"><ele>540.8</ele><time>2023-06-17T15:31:09Z</time></trkpt>
<trkpt lat="46.47517" lon="6.80277"><ele>539.8</ele><time>2023-06-17T15:31:10Z</time></trkpt>
<trkpt lat="46.47514" lon="6.80307"><ele>538.4</ele><time>2023-06-17T15:31:12Z</time></trkpt>
<trkpt lat="46.47514" lon="6.80336"><ele>537.2</ele><time>2023-06-17T15:31:14Z</time></trkpt>
<trkpt lat="46.47512" lon="6.80367"><ele>535.8</ele><time>2023-06-17T15:31:16Z</time></trkpt>
<trkpt lat="46.47511" lon="6.80382"><ele>535.6</ele><time>2023-06-17T15:31:17Z</time></trkpt>
<trkpt lat="46.47509" lon="6.80396"><ele>535.4</ele><time>2023-06-17T15:31:18Z</time></trkpt>
<trkpt lat="46.47502" lon="6.80422"><ele>535</ele><time>2023-06-17T15:31:20Z</time></trkpt>
<trkpt lat="46.47499" lon="6.80435"><ele>534.8</ele><time>2023-06-17T15:31:21Z</time></trkpt>
<trkpt lat="46.47493" lon="6.80472"><ele>535</ele><time>2023-06-17T15:31:24Z</time></trkpt>
<trkpt lat="46.47482" lon="6.80512"><ele>535.6</ele><time>2023-06-17T15:31:28Z</time></trkpt>
<trkpt lat="46.4748" lon="6.80522"><ele>535.6</ele><time>2023-06-17T15:31:29Z</time></trkpt>
<trkpt lat="46.47471" lon="6.80566"><ele>533.4</ele><time>2023-06-17T15:31:33Z</time></trkpt>
<trkpt lat="46.47467" lon="6.80578"><ele>532.6</ele><time>2023-06-17T15:31:34Z</time></trkpt>
<trkpt lat="46.47462" lon="6.8059"><ele>531.2</ele><time>2023-06-17T15:31:35Z</time></trkpt>
<trkpt lat="46.47457" lon="6.80601"><ele>529</ele><time>2023-06-17T15:31:36Z</time></trkpt>
<trkpt lat="46.47451" lon="6.80611"><ele>527.8</ele><time>2023-06-17T15:31:37Z</time></trkpt>
<trkpt lat="46.4744" lon="6.8063"><ele>526</ele><time>2023-06-17T15:31:39Z</time></trkpt>
<trkpt lat="46.47431" lon="6.8065"><ele>525</ele><time>2023-06-17T15:31:41Z</time></trkpt>
<trkpt lat="46.47423" lon="6.80668"><ele>523.6</ele><time>2023-06-17T15:31:43Z</time></trkpt>
<trkpt lat="46.47402" lon="6.80693"><ele>522.4</ele><time>2023-06-17T15:31:47Z</time></trkpt>
<trkpt lat="46.47399" lon="6.80698"><ele>521.8</ele><time>2023-06-17T15:31:48Z</time></trkpt>
<trkpt lat="46.47396" lon="6.80703"><ele>520.6</ele><time>2023-06-17T15:31:49Z</time></trkpt>
<trkpt lat="46.47394" lon="6.80709"><ele>520.2</ele><time>2023-06-17T15:31:50Z</time></trkpt>
<trkpt lat="46.47393" lon="6.80714"><ele>519.8</ele><time>2023-06-17T15:31:51Z</time></trkpt>
<trkpt lat="46.47391" lon="6.80725"><ele>519.4</ele><time>2023-06-17T15:31:53Z</time></trkpt>
<trkpt lat="46.4739" lon="6.80742"><ele>519.4</ele><time>2023-06-17T15:31:56Z</time></trkpt>
<trkpt lat="46.4739" lon="6.80756"><ele>520.2</ele><time>2023-06-17T15:32:00Z</time></trkpt>
<trkpt lat="46.4739" lon="6.80758"><ele>520.4</ele><time>2023-06-17T15:32:01Z</time></trkpt>
<trkpt lat="46.47391" lon="6.80769"><ele>521.2</ele><time>2023-06-17T15:32:06Z</time></trkpt>
<trkpt lat="46.47392" lon="6.80773"><ele>521.6</ele><time>2023-06-17T15:32:08Z</time></trkpt>
<trkpt lat="46.47394" lon="6.80782"><ele>522.4</ele><time>2023-06-17T15:32:12Z</time></trkpt>
<trkpt lat="46.47393" lon="6.80788"><ele>522.6</ele><time>2023-06-17T15:32:14Z</time></trkpt>
<trkpt lat="46.47393" lon="6.80794"><ele>523</ele><time>2023-06-17T15:32:17Z</time></trkpt>
<trkpt lat="46.47394" lon="6.80796"><ele>523.4</ele><time>2023-06-17T15:32:18Z</time></trkpt>
<trkpt lat="46.47394" lon="6.80798"><ele>523.4</ele><time>2023-06-17T15:32:19Z</time></trkpt>
<trkpt lat="46.47395" lon="6.808"><ele>523.6</ele><time>2023-06-17T15:32:20Z</time></trkpt>
<trkpt lat="46.47395" lon="6.80802"><ele>523.8</ele><time>2023-06-17T15:32:21Z</time></trkpt>
<trkpt lat="46.47396" lon="6.80807"><ele>524.2</ele><time>2023-06-17T15:32:23Z</time></trkpt>
<trkpt lat="46.47396" lon="6.80812"><ele>524.4</ele><time>2023-06-17T15:32:25Z</time></trkpt>
<trkpt lat="46.47395" lon="6.8082"><ele>525</ele><time>2023-06-17T15:32:28Z</time></trkpt>
<trkpt lat="46.47393" lon="6.8083"><ele>525</ele><time>2023-06-17T15:32:31Z</time></trkpt>
<trkpt lat="46.47388" lon="6.80862"><ele>523.8</ele><time>2023-06-17T15:32:35Z</time></trkpt>
<trkpt lat="46.47385" lon="6.80885"><ele>522.2</ele><time>2023-06-17T15:32:37Z</time></trkpt>
<trkpt lat="46.47383" lon="6.80911"><ele>520.2</ele><time>2023-06-17T15:32:39Z</time></trkpt>
<trkpt lat="46.47385" lon="6.8095"><ele>519</ele><time>2023-06-17T15:32:42Z</time></trkpt>
<trkpt lat="46.47387" lon="6.80973"><ele>518.6</ele><time>2023-06-17T15:32:44Z</time></trkpt>
<trkpt lat="46.47393" lon="6.81049"><ele>518.6</ele><time>2023-06-17T15:32:51Z</time></trkpt>
<trkpt lat="46.47396" lon="6.81114"><ele>519.2</ele><time>2023-06-17T15:32:58Z</time></trkpt>
<trkpt lat="46.47393" lon="6.81129"><ele>519.6</ele><time>2023-06-17T15:33:00Z</time></trkpt>
<trkpt lat="46.47388" lon="6.81144"><ele>519.6</ele><time>2023-06-17T15:33:02Z</time></trkpt>
<trkpt lat="46.47382" lon="6.81169"><ele>519</ele><time>2023-06-17T15:33:05Z</time></trkpt>
<trkpt lat="46.47379" lon="6.81192"><ele>517.4</ele><time>2023-06-17T15:33:07Z</time></trkpt>
<trkpt lat="46.47379" lon="6.81227"><ele>516.2</ele><time>2023-06-17T15:33:10Z</time></trkpt>
<trkpt lat="46.47379" lon="6.81247"><ele>516.2</ele><time>2023-06-17T15:33:12Z</time></trkpt>
<trkpt lat="46.47379" lon="6.81255"><ele>516.2</ele><time>2023-06-17T15:33:13Z</time></trkpt>
<trkpt lat="46.47378" lon="6.81263"><ele>516.8</ele><time>2023-06-17T15:33:14Z</time></trkpt>
<trkpt lat="46.47378" lon="6.8127"><ele>517.4</ele><time>2023-06-17T15:33:15Z</time></trkpt>
<trkpt lat="46.4738" lon="6.81293"><ele>517.8</ele><time>2023-06-17T15:33:18Z</time></trkpt>
<trkpt lat="46.47386" lon="6.81323"><ele>518.6</ele><time>2023-06-17T15:33:23Z</time></trkpt>
<trkpt lat="46.47388" lon="6.81329"><ele>518.6</ele><time>2023-06-17T15:33:24Z</time></trkpt>
<trkpt lat="46.47404" lon="6.81388"><ele>519.4</ele><time>2023-06-17T15:33:34Z</time></trkpt>
<trkpt lat="46.47406" lon="6.81392"><ele>519.6</ele><time>2023-06-17T15:33:35Z</time></trkpt>
<trkpt lat="46.47411" lon="6.81412"><ele>520.2</ele><time>2023-06-17T15:33:40Z</time></trkpt>
<trkpt lat="46.47415" lon="6.81424"><ele>520.8</ele><time>2023-06-17T15:33:44Z</time></trkpt>
<trkpt lat="46.47418" lon="6.81437"><ele>521.6</ele><time>2023-06-17T15:33:48Z</time></trkpt>
<trkpt lat="46.47419" lon="6.81442"><ele>522</ele><time>2023-06-17T15:33:50Z</time></trkpt>
<trkpt lat="46.47423" lon="6.81453"><ele>522.6</ele><time>2023-06-17T15:33:54Z</time></trkpt>
<trkpt lat="46.47428" lon="6.81468"><ele>522.6</ele><time>2023-06-17T15:33:58Z</time></trkpt>
<trkpt lat="46.47428" lon="6.81479"><ele>522.6</ele><time>2023-06-17T15:34:00Z</time></trkpt>
<trkpt lat="46.47428" lon="6.81494"><ele>522.2</ele><time>2023-06-17T15:34:02Z</time></trkpt>
<trkpt lat="46.47432" lon="6.81526"><ele>520.8</ele><time>2023-06-17T15:34:06Z</time></trkpt>
<trkpt lat="46.47435" lon="6.81534"><ele>520.6</ele><time>2023-06-17T15:34:07Z</time></trkpt>
<trkpt lat="46.47438" lon="6.81542"><ele>520.4</ele><time>2023-06-17T15:34:08Z</time></trkpt>
<trkpt lat="46.47446" lon="6.81557"><ele>519.6</ele><time>2023-06-17T15:34:10Z</time></trkpt>
<trkpt lat="46.47449" lon="6.81566"><ele>519.4</ele><time>2023-06-17T15:34:11Z</time></trkpt>
<trkpt lat="46.47452" lon="6.81585"><ele>518.8</ele><time>2023-06-17T15:34:13Z</time></trkpt>
<trkpt lat="46.47452" lon="6.81596"><ele>518.6</ele><time>2023-06-17T15:34:14Z</time></trkpt>
<trkpt lat="46.4745" lon="6.81606"><ele>518.6</ele><time>2023-06-17T15:34:15Z</time></trkpt>
<trkpt lat="46.47444" lon="6.81635"><ele>518.4</ele><time>2023-06-17T15:34:18Z</time></trkpt>
<trkpt lat="46.47437" lon="6.81663"><ele>517.4</ele><time>2023-06-17T15:34:21Z</time></trkpt>
<trkpt lat="46.47438" lon="6.81684"><ele>517</ele><time>2023-06-17T15:34:23Z</time></trkpt>
<trkpt lat="46.47441" lon="6.8173"><ele>516.2</ele><time>2023-06-17T15:34:27Z</time></trkpt>
<trkpt lat="46.47442" lon="6.81743"><ele>515.6</ele><time>2023-06-17T15:34:28Z</time></trkpt>
<trkpt lat="46.47443" lon="6.81756"><ele>514.8</ele><time>2023-06-17T15:34:29Z</time></trkpt>
<trkpt lat="46.47445" lon="6.81782"><ele>513.2</ele><time>2023-06-17T15:34:31Z</time></trkpt>
<trkpt lat="46.47448" lon="6.81842"><ele>512.4</ele><time>2023-06-17T15:34:36Z</time></trkpt>
<trkpt lat="46.47449" lon="6.81886"><ele>513</ele><time>2023-06-17T15:34:41Z</time></trkpt>
<trkpt lat="46.47447" lon="6.81901"><ele>513.4</ele><time>2023-06-17T15:34:43Z</time></trkpt>
<trkpt lat="46.47445" lon="6.81908"><ele>513.6</ele><time>2023-06-17T15:34:44Z</time></trkpt>
<trkpt lat="46.47444" lon="6.81915"><ele>513.8</ele><time>2023-06-17T15:34:45Z</time></trkpt>
<trkpt lat="46.47445" lon="6.8192"><ele>513.8</ele><time>2023-06-17T15:34:46Z</time></trkpt>
<trkpt lat="46.47447" lon="6.81924"><ele>514.2</ele><time>2023-06-17T15:34:47Z</time></trkpt>
<trkpt lat="46.47454" lon="6.81927"><ele>515</ele><time>2023-06-17T15:34:49Z</time></trkpt>
<trkpt lat="46.47454" lon="6.8193"><ele>515.2</ele><time>2023-06-17T15:34:50Z</time></trkpt>
<trkpt lat="46.47458" lon="6.81932"><ele>516</ele><time>2023-06-17T15:34:53Z</time></trkpt>
<trkpt lat="46.47459" lon="6.81932"><ele>516.2</ele><time>2023-06-17T15:34:54Z</time></trkpt>
<trkpt lat="46.47466" lon="6.81933"><ele>517.2</ele><time>2023-06-17T15:35:00Z</time></trkpt>
<trkpt lat="46.47467" lon="6.81933"><ele>517.6</ele><time>2023-06-17T15:35:01Z</time></trkpt>
<trkpt lat="46.47467" lon="6.81933"><ele>517.6</ele><time>2023-06-17T15:35:01Z</time></trkpt>
<trkpt lat="46.47467" lon="6.81933"><ele>517.6</ele><time>2023-06-17T15:35:01Z</time></trkpt>
<trkpt lat="46.47479" lon="6.81941"><ele>519.8</ele><time>2023-06-17T15:35:13Z</time></trkpt>
<trkpt lat="46.47489" lon="6.81957"><ele>520.8</ele><time>2023-06-17T15:35:18Z</time></trkpt>
<trkpt lat="46.4749" lon="6.8196"><ele>520.8</ele><time>2023-06-17T15:35:19Z</time></trkpt>
<trkpt lat="46.47489" lon="6.81975"><ele>521.6</ele><time>2023-06-17T15:35:23Z</time></trkpt>
<trkpt lat="46.4749" lon="6.81981"><ele>522</ele><time>2023-06-17T15:35:25Z</time></trkpt>
<trkpt lat="46.4749" lon="6.81992"><ele>522.8</ele><time>2023-06-17T15:35:30Z</time></trkpt>
<trkpt lat="46.4749" lon="6.81994"><ele>523</ele><time>2023-06-17T15:35:31Z</time></trkpt>
<trkpt lat="46.4749" lon="6.81997"><ele>523.2</ele><time>2023-06-17T15:35:32Z</time></trkpt>
<trkpt lat="46.47489" lon="6.82"><ele>523.4</ele><time>2023-06-17T15:35:34Z</time></trkpt>
<trkpt lat="46.47487" lon="6.82007"><ele>524.2</ele><time>2023-06-17T15:35:39Z</time></trkpt>
<trkpt lat="46.47487" lon="6.8201"><ele>524.6</ele><time>2023-06-17T15:35:41Z</time></trkpt>
<trkpt lat="46.47483" lon="6.82018"><ele>525.4</ele><time>2023-06-17T15:35:46Z</time></trkpt>
<trkpt lat="46.47482" lon="6.8202"><ele>525.6</ele><time>2023-06-17T15:35:48Z</time></trkpt>
<trkpt lat="46.4748" lon="6.82027"><ele>526.4</ele><time>2023-06-17T15:35:53Z</time></trkpt>
<trkpt lat="46.47479" lon="6.8203"><ele>526.8</ele><time>2023-06-17T15:35:55Z</time></trkpt>
<trkpt lat="46.47476" lon="6.82036"><ele>527.6</ele><time>2023-06-17T15:36:00Z</time></trkpt>
<trkpt lat="46.47476" lon="6.82038"><ele>527.6</ele><time>2023-06-17T15:36:01Z</time></trkpt>
<trkpt lat="46.47473" lon="6.82048"><ele>528.8</ele><time>2023-06-17T15:36:08Z</time></trkpt>
<trkpt lat="46.47474" lon="6.82057"><ele>529.8</ele><time>2023-06-17T15:36:14Z</time></trkpt>
<trkpt lat="46.47474" lon="6.82059"><ele>530.2</ele><time>2023-06-17T15:36:15Z</time></trkpt>
<trkpt lat="46.47474" lon="6.82069"><ele>531</ele><time>2023-06-17T15:36:21Z</time></trkpt>
<trkpt lat="46.47474" lon="6.8207"><ele>531.2</ele><time>2023-06-17T15:36:22Z</time></trkpt>
<trkpt lat="46.47476" lon="6.82076"><ele>532</ele><time>2023-06-17T15:36:27Z</time></trkpt>
<trkpt lat="46.47477" lon="6.82077"><ele>532.2</ele><time>2023-06-17T15:36:28Z</time></trkpt>
<trkpt lat="46.4748" lon="6.82084"><ele>532.8</ele><time>2023-06-17T15:36:35Z</time></trkpt>
<trkpt lat="46.47481" lon="6.82086"><ele>533.2</ele><time>2023-06-17T15:36:37Z</time></trkpt>
<trkpt lat="46.47484" lon="6.82092"><ele>533.8</ele><time>2023-06-17T15:36:42Z</time></trkpt>
<trkpt lat="46.47487" lon="6.82095"><ele>534.2</ele><time>2023-06-17T15:36:46Z</time></trkpt>
<trkpt lat="46.47489" lon="6.82099"><ele>534.8</ele><time>2023-06-17T15:36:50Z</time></trkpt>
<trkpt lat="46.4749" lon="6.82103"><ele>535.2</ele><time>2023-06-17T15:36:54Z</time></trkpt>
<trkpt lat="46.47492" lon="6.82107"><ele>535.8</ele><time>2023-06-17T15:36:57Z</time></trkpt>
<trkpt lat="46.47494" lon="6.82109"><ele>536.4</ele><time>2023-06-17T15:37:00Z</time></trkpt>
<trkpt lat="46.47497" lon="6.82113"><ele>537</ele><time>2023-06-17T15:37:04Z</time></trkpt>
<trkpt lat="46.47497" lon="6.82115"><ele>537.4</ele><time>2023-06-17T15:37:06Z</time></trkpt>
<trkpt lat="46.475" lon="6.8212"><ele>538</ele><time>2023-06-17T15:37:11Z</time></trkpt>
<trkpt lat="46.47502" lon="6.82122"><ele>538.4</ele><time>2023-06-17T15:37:14Z</time></trkpt>
<trkpt lat="46.47504" lon="6.82126"><ele>539</ele><time>2023-06-17T15:37:18Z</time></trkpt>
<trkpt lat="46.47505" lon="6.82129"><ele>539.4</ele><time>2023-06-17T15:37:21Z</time></trkpt>
<trkpt lat="46.47507" lon="6.82133"><ele>540.2</ele><time>2023-06-17T15:37:25Z</time></trkpt>
<trkpt lat="46.47508" lon="6.82136"><ele>540.4</ele><time>2023-06-17T15:37:27Z</time></trkpt>
<trkpt lat="46.47509" lon="6.82139"><ele>540.8</ele><time>2023-06-17T15:37:29Z</time></trkpt>
<trkpt lat="46.4751" lon="6.82141"><ele>541.2</ele><time>2023-06-17T15:37:31Z</time></trkpt>
<trkpt lat="46.47511" lon="6.82143"><ele>541.8</ele><time>2023-06-17T15:37:33Z</time></trkpt>
<trkpt lat="46.47513" lon="6.82148"><ele>542.6</ele><time>2023-06-17T15:37:38Z</time></trkpt>
<trkpt lat="46.47514" lon="6.8215"><ele>543</ele><time>2023-06-17T15:37:40Z</time></trkpt>
<trkpt lat="46.47517" lon="6.82155"><ele>544</ele><time>2023-06-17T15:37:45Z</time></trkpt>
<trkpt lat="46.47519" lon="6.82161"><ele>545</ele><time>2023-06-17T15:37:50Z</time></trkpt>
<trkpt lat="46.4752" lon="6.82163"><ele>545.4</ele><time>2023-06-17T15:37:52Z</time></trkpt>
<trkpt lat="46.47521" lon="6.82168"><ele>546.2</ele><time>2023-06-17T15:37:56Z</time></trkpt>
<trkpt lat="46.47521" lon="6.82172"><ele>546.6</ele><time>2023-06-17T15:37:59Z</time></trkpt>
<trkpt lat="46.47522" lon="6.82177"><ele>547.2</ele><time>2023-06-17T15:38:02Z</time></trkpt>
<trkpt lat="46.47524" lon="6.82181"><ele>547.8</ele><time>2023-06-17T15:38:06Z</time></trkpt>
<trkpt lat="46.47524" lon="6.82183"><ele>548</ele><time>2023-06-17T15:38:07Z</time></trkpt>
<trkpt lat="46.47524" lon="6.82184"><ele>548.2</ele><time>2023-06-17T15:38:08Z</time></trkpt>
<trkpt lat="46.47523" lon="6.82189"><ele>548.6</ele><time>2023-06-17T15:38:11Z</time></trkpt>
<trkpt lat="46.47523" lon="6.82192"><ele>549</ele><time>2023-06-17T15:38:14Z</time></trkpt>
<trkpt lat="46.47524" lon="6.82196"><ele>549.2</ele><time>2023-06-17T15:38:17Z</time></trkpt>
<trkpt lat="46.47524" lon="6.82198"><ele>549.4</ele><time>2023-06-17T15:38:18Z</time></trkpt>
<trkpt lat="46.47523" lon="6.82208"><ele>550.4</ele><time>2023-06-17T15:38:25Z</time></trkpt>
<trkpt lat="46.47523" lon="6.8221"><ele>550.4</ele><time>2023-06-17T15:38:26Z</time></trkpt>
<trkpt lat="46.47524" lon="6.82219"><ele>551.6</ele><time>2023-06-17T15:38:32Z</time></trkpt>
<trkpt lat="46.47525" lon="6.8223"><ele>552.4</ele><time>2023-06-17T15:38:39Z</time></trkpt>
<trkpt lat="46.47525" lon="6.82232"><ele>552.6</ele><time>2023-06-17T15:38:40Z</time></trkpt>
<trkpt lat="46.47525" lon="6.82235"><ele>552.8</ele><time>2023-06-17T15:38:42Z</time></trkpt>
<trkpt lat="46.47525" lon="6.82241"><ele>553.4</ele><time>2023-06-17T15:38:46Z</time></trkpt>
<trkpt lat="46.47526" lon="6.82246"><ele>553.8</ele><time>2023-06-17T15:38:49Z</time></trkpt>
<trkpt lat="46.47525" lon="6.82252"><ele>554.4</ele><time>2023-06-17T15:38:54Z</time></trkpt>
<trkpt lat="46.47526" lon="6.82255"><ele>555</ele><time>2023-06-17T15:38:56Z</time></trkpt>
<trkpt lat="46.47528" lon="6.82262"><ele>555.4</ele><time>2023-06-17T15:39:01Z</time></trkpt>
<trkpt lat="46.47529" lon="6.82267"><ele>556</ele><time>2023-06-17T15:39:05Z</time></trkpt>
<trkpt lat="46.47531" lon="6.82269"><ele>556.2</ele><time>2023-06-17T15:39:07Z</time></trkpt>
<trkpt lat="46.47533" lon="6.82276"><ele>556.8</ele><time>2023-06-17T15:39:12Z</time></trkpt>
<trkpt lat="46.47533" lon="6.82277"><ele>557</ele><time>2023-06-17T15:39:13Z</time></trkpt>
<trkpt lat="46.47535" lon="6.82287"><ele>558.2</ele><time>2023-06-17T15:39:20Z</time></trkpt>
<trkpt lat="46.47539" lon="6.82293"><ele>559.2</ele><time>2023-06-17T15:39:26Z</time></trkpt>
<trkpt lat="46.47544" lon="6.82297"><ele>560</ele><time>2023-06-17T15:39:32Z</time></trkpt>
<trkpt lat="46.47545" lon="6.82298"><ele>560.2</ele><time>2023-06-17T15:39:33Z</time></trkpt>
<trkpt lat="46.47545" lon="6.82299"><ele>560.6</ele><time>2023-06-17T15:39:34Z</time></trkpt>
<trkpt lat="46.47549" lon="6.82302"><ele>561.2</ele><time>2023-06-17T15:39:39Z</time></trkpt>
<trkpt lat="46.47552" lon="6.82301"><ele>561.6</ele><time>2023-06-17T15:39:43Z</time></trkpt>
<trkpt lat="46.47555" lon="6.82301"><ele>562</ele><time>2023-06-17T15:39:46Z</time></trkpt>
<trkpt lat="46.47556" lon="6.82302"><ele>562.4</ele><time>2023-06-17T15:39:49Z</time></trkpt>
<trkpt lat="46.47557" lon="6.82303"><ele>562.6</ele><time>2023-06-17T15:39:50Z</time></trkpt>
<trkpt lat="46.47558" lon="6.82303"><ele>563</ele><time>2023-06-17T15:39:52Z</time></trkpt>
<trkpt lat="46.4756" lon="6.82303"><ele>563</ele><time>2023-06-17T15:39:53Z</time></trkpt>
<trkpt lat="46.47565" lon="6.82302"><ele>563.8</ele><time>2023-06-17T15:39:57Z</time></trkpt>
<trkpt lat="46.47571" lon="6.82305"><ele>564.8</ele><time>2023-06-17T15:40:02Z</time></trkpt>
<trkpt lat="46.47574" lon="6.82309"><ele>565.4</ele><time>2023-06-17T15:40:05Z</time></trkpt>
<trkpt lat="46.47577" lon="6.82312"><ele>566</ele><time>2023-06-17T15:40:08Z</time></trkpt>
<trkpt lat="46.47582" lon="6.82318"><ele>567</ele><time>2023-06-17T15:40:13Z</time></trkpt>
<trkpt lat="46.47583" lon="6.8232"><ele>567.2</ele><time>2023-06-17T15:40:14Z</time></trkpt>
<trkpt lat="46.47587" lon="6.8233"><ele>568.2</ele><time>2023-06-17T15:40:20Z</time></trkpt>
<trkpt lat="46.47588" lon="6.82335"><ele>568.6</ele><time>2023-06-17T15:40:23Z</time></trkpt>
<trkpt lat="46.47592" lon="6.82344"><ele>569.4</ele><time>2023-06-17T15:40:29Z</time></trkpt>
<trkpt lat="46.47594" lon="6.82349"><ele>569.8</ele><time>2023-06-17T15:40:32Z</time></trkpt>
<trkpt lat="46.47597" lon="6.82359"><ele>570.6</ele><time>2023-06-17T15:40:37Z</time></trkpt>
<trkpt lat="46.47597" lon="6.82362"><ele>570.8</ele><time>2023-06-17T15:40:39Z</time></trkpt>
<trkpt lat="46.47595" lon="6.82366"><ele>571.4</ele><time>2023-06-17T15:40:42Z</time></trkpt>
<trkpt lat="46.47594" lon="6.82367"><ele>571.6</ele><time>2023-06-17T15:40:43Z</time></trkpt>
<trkpt lat="46.47591" lon="6.82369"><ele>572</ele><time>2023-06-17T15:40:45Z</time></trkpt>
<trkpt lat="46.47579" lon="6.82374"><ele>572</ele><time>2023-06-17T15:40:52Z</time></trkpt>
<trkpt lat="46.47568" lon="6.82377"><ele>572</ele><time>2023-06-17T15:41:00Z</time></trkpt>
<trkpt lat="46.47566" lon="6.82376"><ele>572.4</ele><time>2023-06-17T15:41:07Z</time></trkpt>
<trkpt lat="46.47566" lon="6.82376"><ele>572.4</ele><time>2023-06-17T15:41:09Z</time></trkpt>
<trkpt lat="46.47566" lon="6.82376"><ele>572.4</ele><time>2023-06-17T15:41:18Z</time></trkpt>
<trkpt lat="46.47565" lon="6.82379"><ele>572.4</ele><time>2023-06-17T15:41:27Z</time></trkpt>
<trkpt lat="46.47565" lon="6.82379"><ele>572.6</ele><time>2023-06-17T15:41:34Z</time></trkpt>
<trkpt lat="46.47565" lon="6.82379"><ele>572.6</ele><time>2023-06-17T15:41:38Z</time></trkpt>
<trkpt lat="46.47565" lon="6.82379"><ele>572.6</ele><time>2023-06-17T15:41:42Z</time></trkpt>
<trkpt lat="46.47565" lon="6.82378"><ele>572.6</ele><time>2023-06-17T15:41:49Z</time></trkpt>
<trkpt lat="46.47565" lon="6.82378"><ele>572.4</ele><time>2023-06-17T15:41:57Z</time></trkpt>
<trkpt lat="46.47565" lon="6.82379"><ele>572.4</ele><time>2023-06-17T15:42:01Z</time></trkpt>
<trkpt lat="46.47564" lon="6.8238"><ele>572.4</ele><time>2023-06-17T15:42:08Z</time></trkpt>
<trkpt lat="46.47565" lon="6.82379"><ele>572.4</ele><time>2023-06-17T15:42:15Z</time></trkpt>
<trkpt lat="46.47566" lon="6.82376"><ele>572.4</ele><time>2023-06-17T15:42:20Z</time></trkpt>
<trkpt lat="46.47568" lon="6.82376"><ele>572.4</ele><time>2023-06-17T15:42:22Z</time></trkpt>
<trkpt lat="46.47571" lon="6.82374"><ele>572.4</ele><time>2023-06-17T15:42:25Z</time></trkpt>
<trkpt lat="46.47576" lon="6.82365"><ele>572.8</ele><time>2023-06-17T15:42:33Z</time></trkpt>
<trkpt lat="46.47583" lon="6.82362"><ele>572.8</ele><time>2023-06-17T15:42:39Z</time></trkpt>
<trkpt lat="46.47583" lon="6.82363"><ele>572.8</ele><time>2023-06-17T15:42:40Z</time></trkpt>
<trkpt lat="46.47589" lon="6.82372"><ele>572.6</ele><time>2023-06-17T15:42:45Z</time></trkpt>
<trkpt lat="46.47591" lon="6.82375"><ele>572.6</ele><time>2023-06-17T15:42:47Z</time></trkpt>
<trkpt lat="46.47594" lon="6.82377"><ele>572.6</ele><time>2023-06-17T15:42:53Z</time></trkpt>
<trkpt lat="46.47594" lon="6.82377"><ele>572.8</ele><time>2023-06-17T15:43:00Z</time></trkpt>
<trkpt lat="46.47594" lon="6.82377"><ele>572.6</ele><time>2023-06-17T15:43:06Z</time></trkpt>
<trkpt lat="46.47594" lon="6.82377"><ele>572.6</ele><time>2023-06-17T15:43:09Z</time></trkpt>
<trkpt lat="46.47594" lon="6.82377"><ele>572.6</ele><time>2023-06-17T15:43:17Z</time></trkpt>
<trkpt lat="46.47594" lon="6.82376"><ele>572.6</ele><time>2023-06-17T15:43:26Z</time></trkpt>
<trkpt lat="46.47594" lon="6.82375"><ele>572.4</ele><time>2023-06-17T15:43:32Z</time></trkpt>
<trkpt lat="46.47594" lon="6.82375"><ele>572.4</ele><time>2023-06-17T15:43:33Z</time></trkpt>
<trkpt lat="46.47594" lon="6.82376"><ele>572.2</ele><time>2023-06-17T15:43:36Z</time></trkpt>
<trkpt lat="46.47593" lon="6.82375"><ele>572.4</ele><time>2023-06-17T15:43:44Z</time></trkpt>
<trkpt lat="46.47593" lon="6.82375"><ele>572.6</ele><time>2023-06-17T15:43:52Z</time></trkpt>
<trkpt lat="46.47593" lon="6.82375"><ele>572.6</ele><time>2023-06-17T15:43:53Z</time></trkpt>
<trkpt lat="46.47593" lon="6.82375"><ele>572.6</ele><time>2023-06-17T15:43:55Z</time></trkpt>
<trkpt lat="46.47593" lon="6.82375"><ele>572.6</ele><time>2023-06-17T15:43:56Z</time></trkpt>
<trkpt lat="46.47593" lon="6.82375"><ele>572.6</ele><time>2023-06-17T15:43:58Z</time></trkpt>
<trkpt lat="46.47593" lon="6.82375"><ele>572.6</ele><time>2023-06-17T15:44:01Z</time></trkpt>
<trkpt lat="46.47592" lon="6.82377"><ele>572.6</ele><time>2023-06-17T15:44:04Z</time></trkpt>
<trkpt lat="46.47592" lon="6.82376"><ele>572.6</ele><time>2023-06-17T15:44:07Z</time></trkpt>
<trkpt lat="46.47592" lon="6.82376"><ele>572.6</ele><time>2023-06-17T15:44:19Z</time></trkpt>
<trkpt lat="46.47595" lon="6.82376"><ele>572.6</ele><time>2023-06-17T15:44:22Z</time></trkpt>
<trkpt lat="46.47599" lon="6.82374"><ele>572.6</ele><time>2023-06-17T15:44:25Z</time></trkpt>
<trkpt lat="46.47605" lon="6.82375"><ele>572.6</ele><time>2023-06-17T15:44:29Z</time></trkpt>
<trkpt lat="46.47607" lon="6.82377"><ele>572.8</ele><time>2023-06-17T15:44:31Z</time></trkpt>
<trkpt lat="46.47611" lon="6.8239"><ele>572.8</ele><time>2023-06-17T15:44:35Z</time></trkpt>
<trkpt lat="46.47619" lon="6.82412"><ele>573</ele><time>2023-06-17T15:44:41Z</time></trkpt>
<trkpt lat="46.47619" lon="6.82415"><ele>573.6</ele><time>2023-06-17T15:44:43Z</time></trkpt>
<trkpt lat="46.47621" lon="6.82421"><ele>574.2</ele><time>2023-06-17T15:44:47Z</time></trkpt>
<trkpt lat="46.47622" lon="6.82427"><ele>574.8</ele><time>2023-06-17T15:44:51Z</time></trkpt>
<trkpt lat="46.47622" lon="6.8243"><ele>575</ele><time>2023-06-17T15:44:53Z</time></trkpt>
<trkpt lat="46.47623" lon="6.82432"><ele>575.2</ele><time>2023-06-17T15:44:54Z</time></trkpt>
<trkpt lat="46.47623" lon="6.82436"><ele>575.6</ele><time>2023-06-17T15:44:57Z</time></trkpt>
<trkpt lat="46.47624" lon="6.82437"><ele>575.8</ele><time>2023-06-17T15:44:58Z</time></trkpt>
<trkpt lat="46.47624" lon="6.82439"><ele>576</ele><time>2023-06-17T15:44:59Z</time></trkpt>
<trkpt lat="46.47624" lon="6.82441"><ele>576.2</ele><time>2023-06-17T15:45:01Z</time></trkpt>
<trkpt lat="46.47624" lon="6.82444"><ele>576.4</ele><time>2023-06-17T15:45:03Z</time></trkpt>
<trkpt lat="46.47624" lon="6.82447"><ele>576.8</ele><time>2023-06-17T15:45:06Z</time></trkpt>
<trkpt lat="46.47625" lon="6.82453"><ele>577.6</ele><time>2023-06-17T15:45:10Z</time></trkpt>
<trkpt lat="46.47626" lon="6.82456"><ele>577.8</ele><time>2023-06-17T15:45:12Z</time></trkpt>
<trkpt lat="46.47626" lon="6.82457"><ele>578</ele><time>2023-06-17T15:45:13Z</time></trkpt>
<trkpt lat="46.47628" lon="6.82466"><ele>579</ele><time>2023-06-17T15:45:19Z</time></trkpt>
<trkpt lat="46.47628" lon="6.82467"><ele>579</ele><time>2023-06-17T15:45:20Z</time></trkpt>
<trkpt lat="46.4763" lon="6.82477"><ele>579.8</ele><time>2023-06-17T15:45:26Z</time></trkpt>
<trkpt lat="46.4763" lon="6.8248"><ele>580.2</ele><time>2023-06-17T15:45:28Z</time></trkpt>
<trkpt lat="46.47632" lon="6.82487"><ele>580.6</ele><time>2023-06-17T15:45:33Z</time></trkpt>
<trkpt lat="46.47634" lon="6.82495"><ele>581.2</ele><time>2023-06-17T15:45:37Z</time></trkpt>
<trkpt lat="46.47634" lon="6.825"><ele>581.4</ele><time>2023-06-17T15:45:39Z</time></trkpt>
<trkpt lat="46.47635" lon="6.82514"><ele>582</ele><time>2023-06-17T15:45:44Z</time></trkpt>
<trkpt lat="46.47639" lon="6.8253"><ele>582.2</ele><time>2023-06-17T15:45:50Z</time></trkpt>
<trkpt lat="46.47642" lon="6.82541"><ele>582.8</ele><time>2023-06-17T15:45:54Z</time></trkpt>
<trkpt lat="46.47647" lon="6.82565"><ele>583.2</ele><time>2023-06-17T15:46:02Z</time></trkpt>
<trkpt lat="46.4765" lon="6.82581"><ele>583.2</ele><time>2023-06-17T15:46:07Z</time></trkpt>
<trkpt lat="46.47652" lon="6.82587"><ele>583.4</ele><time>2023-06-17T15:46:09Z</time></trkpt>
<trkpt lat="46.47655" lon="6.82613"><ele>584</ele><time>2023-06-17T15:46:16Z</time></trkpt>
<trkpt lat="46.47662" lon="6.82641"><ele>584</ele><time>2023-06-17T15:46:22Z</time></trkpt>
<trkpt lat="46.47664" lon="6.82652"><ele>584.6</ele><time>2023-06-17T15:46:25Z</time></trkpt>
<trkpt lat="46.47666" lon="6.82658"><ele>584.8</ele><time>2023-06-17T15:46:27Z</time></trkpt>
<trkpt lat="46.4767" lon="6.8267"><ele>585.4</ele><time>2023-06-17T15:46:32Z</time></trkpt>
<trkpt lat="46.4767" lon="6.82671"><ele>585.6</ele><time>2023-06-17T15:46:33Z</time></trkpt>
<trkpt lat="46.47672" lon="6.82671"><ele>585.8</ele><time>2023-06-17T15:46:35Z</time></trkpt>
<trkpt lat="46.47674" lon="6.82669"><ele>586.2</ele><time>2023-06-17T15:46:38Z</time></trkpt>
<trkpt lat="46.47676" lon="6.82664"><ele>586.6</ele><time>2023-06-17T15:46:40Z</time></trkpt>
<trkpt lat="46.47679" lon="6.82658"><ele>587.4</ele><time>2023-06-17T15:46:44Z</time></trkpt>
<trkpt lat="46.4768" lon="6.82656"><ele>587.6</ele><time>2023-06-17T15:46:46Z</time></trkpt>
<trkpt lat="46.47681" lon="6.82649"><ele>588.6</ele><time>2023-06-17T15:46:52Z</time></trkpt>
<trkpt lat="46.47681" lon="6.82648"><ele>588.8</ele><time>2023-06-17T15:46:53Z</time></trkpt>
<trkpt lat="46.47681" lon="6.8264"><ele>589.8</ele><time>2023-06-17T15:46:59Z</time></trkpt>
<trkpt lat="46.4768" lon="6.82637"><ele>590</ele><time>2023-06-17T15:47:00Z</time></trkpt>
<trkpt lat="46.47678" lon="6.82622"><ele>590.8</ele><time>2023-06-17T15:47:08Z</time></trkpt>
<trkpt lat="46.47677" lon="6.82619"><ele>591</ele><time>2023-06-17T15:47:10Z</time></trkpt>
<trkpt lat="46.47676" lon="6.82608"><ele>592</ele><time>2023-06-17T15:47:17Z</time></trkpt>
<trkpt lat="46.47677" lon="6.82604"><ele>592.2</ele><time>2023-06-17T15:47:19Z</time></trkpt>
<trkpt lat="46.47677" lon="6.82592"><ele>593</ele><time>2023-06-17T15:47:25Z</time></trkpt>
<trkpt lat="46.47677" lon="6.82589"><ele>593.2</ele><time>2023-06-17T15:47:27Z</time></trkpt>
<trkpt lat="46.47678" lon="6.82586"><ele>593.4</ele><time>2023-06-17T15:47:29Z</time></trkpt>
<trkpt lat="46.4768" lon="6.82584"><ele>593.6</ele><time>2023-06-17T15:47:31Z</time></trkpt>
<trkpt lat="46.47681" lon="6.82575"><ele>594.2</ele><time>2023-06-17T15:47:37Z</time></trkpt>
<trkpt lat="46.47685" lon="6.8257"><ele>595.2</ele><time>2023-06-17T15:47:43Z</time></trkpt>
<trkpt lat="46.47689" lon="6.82565"><ele>596.2</ele><time>2023-06-17T15:47:50Z</time></trkpt>
<trkpt lat="46.4769" lon="6.82564"><ele>596.4</ele><time>2023-06-17T15:47:51Z</time></trkpt>
<trkpt lat="46.47693" lon="6.82559"><ele>597.2</ele><time>2023-06-17T15:47:57Z</time></trkpt>
<trkpt lat="46.47693" lon="6.82558"><ele>597.4</ele><time>2023-06-17T15:47:58Z</time></trkpt>
<trkpt lat="46.47694" lon="6.82552"><ele>598</ele><time>2023-06-17T15:48:02Z</time></trkpt>
<trkpt lat="46.47694" lon="6.82547"><ele>598.6</ele><time>2023-06-17T15:48:06Z</time></trkpt>
<trkpt lat="46.47694" lon="6.82544"><ele>599</ele><time>2023-06-17T15:48:08Z</time></trkpt>
<trkpt lat="46.47696" lon="6.82539"><ele>599.6</ele><time>2023-06-17T15:48:13Z</time></trkpt>
<trkpt lat="46.47697" lon="6.82534"><ele>600.4</ele><time>2023-06-17T15:48:17Z</time></trkpt>
<trkpt lat="46.47698" lon="6.82532"><ele>600.8</ele><time>2023-06-17T15:48:19Z</time></trkpt>
<trkpt lat="46.477" lon="6.82529"><ele>601.2</ele><time>2023-06-17T15:48:22Z</time></trkpt>
<trkpt lat="46.47701" lon="6.82524"><ele>601.8</ele><time>2023-06-17T15:48:27Z</time></trkpt>
<trkpt lat="46.47701" lon="6.82521"><ele>602</ele><time>2023-06-17T15:48:29Z</time></trkpt>
<trkpt lat="46.47702" lon="6.82517"><ele>602.4</ele><time>2023-06-17T15:48:32Z</time></trkpt>
<trkpt lat="46.47702" lon="6.82514"><ele>602.6</ele><time>2023-06-17T15:48:34Z</time></trkpt>
<trkpt lat="46.47703" lon="6.82513"><ele>602.8</ele><time>2023-06-17T15:48:35Z</time></trkpt>
<trkpt lat="46.47704" lon="6.82503"><ele>603.8</ele><time>2023-06-17T15:48:41Z</time></trkpt>
<trkpt lat="46.47704" lon="6.82502"><ele>603.8</ele><time>2023-06-17T15:48:42Z</time></trkpt>
<trkpt lat="46.47706" lon="6.82494"><ele>604.8</ele><time>2023-06-17T15:48:49Z</time></trkpt>
<trkpt lat="46.47707" lon="6.82487"><ele>605.8</ele><time>2023-06-17T15:48:55Z</time></trkpt>
<trkpt lat="46.47708" lon="6.82487"><ele>606</ele><time>2023-06-17T15:48:56Z</time></trkpt>
<trkpt lat="46.4771" lon="6.82483"><ele>606.6</ele><time>2023-06-17T15:49:01Z</time></trkpt>
<trkpt lat="46.4771" lon="6.8248"><ele>607</ele><time>2023-06-17T15:49:04Z</time></trkpt>
<trkpt lat="46.47711" lon="6.82476"><ele>607.6</ele><time>2023-06-17T15:49:08Z</time></trkpt>
<trkpt lat="46.47714" lon="6.82476"><ele>608.2</ele><time>2023-06-17T15:49:11Z</time></trkpt>
<trkpt lat="46.47716" lon="6.82473"><ele>608.8</ele><time>2023-06-17T15:49:14Z</time></trkpt>
<trkpt lat="46.47717" lon="6.82468"><ele>609.2</ele><time>2023-06-17T15:49:19Z</time></trkpt>
<trkpt lat="46.47717" lon="6.82467"><ele>609.4</ele><time>2023-06-17T15:49:20Z</time></trkpt>
<trkpt lat="46.47716" lon="6.82466"><ele>609.6</ele><time>2023-06-17T15:49:21Z</time></trkpt>
<trkpt lat="46.47715" lon="6.82461"><ele>610</ele><time>2023-06-17T15:49:25Z</time></trkpt>
<trkpt lat="46.47715" lon="6.8246"><ele>610.2</ele><time>2023-06-17T15:49:26Z</time></trkpt>
<trkpt lat="46.47716" lon="6.82454"><ele>610.8</ele><time>2023-06-17T15:49:31Z</time></trkpt>
<trkpt lat="46.47712" lon="6.82452"><ele>611.2</ele><time>2023-06-17T15:49:36Z</time></trkpt>
<trkpt lat="46.47712" lon="6.82452"><ele>611.6</ele><time>2023-06-17T15:49:37Z</time></trkpt>
<trkpt lat="46.47711" lon="6.82448"><ele>612</ele><time>2023-06-17T15:49:40Z</time></trkpt>
<trkpt lat="46.47712" lon="6.82445"><ele>612.2</ele><time>2023-06-17T15:49:43Z</time></trkpt>
<trkpt lat="46.47713" lon="6.82444"><ele>612.2</ele><time>2023-06-17T15:49:44Z</time></trkpt>
<trkpt lat="46.47714" lon="6.82444"><ele>612.4</ele><time>2023-06-17T15:49:47Z</time></trkpt>
<trkpt lat="46.47718" lon="6.82443"><ele>612.8</ele><time>2023-06-17T15:49:53Z</time></trkpt>
<trkpt lat="46.47719" lon="6.82439"><ele>613.2</ele><time>2023-06-17T15:49:57Z</time></trkpt>
<trkpt lat="46.47721" lon="6.82436"><ele>614</ele><time>2023-06-17T15:50:01Z</time></trkpt>
<trkpt lat="46.47722" lon="6.82435"><ele>614.4</ele><time>2023-06-17T15:50:03Z</time></trkpt>
<trkpt lat="46.47722" lon="6.82431"><ele>614.8</ele><time>2023-06-17T15:50:06Z</time></trkpt>
<trkpt lat="46.47722" lon="6.82429"><ele>615.6</ele><time>2023-06-17T15:50:10Z</time></trkpt>
<trkpt lat="46.47722" lon="6.82428"><ele>615.8</ele><time>2023-06-17T15:50:12Z</time></trkpt>
<trkpt lat="46.47723" lon="6.82423"><ele>616.6</ele><time>2023-06-17T15:50:18Z</time></trkpt>
<trkpt lat="46.47723" lon="6.82415"><ele>617.6</ele><time>2023-06-17T15:50:25Z</time></trkpt>
<trkpt lat="46.47723" lon="6.82414"><ele>617.8</ele><time>2023-06-17T15:50:26Z</time></trkpt>
<trkpt lat="46.47725" lon="6.8241"><ele>618.6</ele><time>2023-06-17T15:50:31Z</time></trkpt>
<trkpt lat="46.47725" lon="6.82408"><ele>619</ele><time>2023-06-17T15:50:33Z</time></trkpt>
<trkpt lat="46.47725" lon="6.82401"><ele>620</ele><time>2023-06-17T15:50:39Z</time></trkpt>
<trkpt lat="46.47725" lon="6.824"><ele>620</ele><time>2023-06-17T15:50:40Z</time></trkpt>
<trkpt lat="46.47726" lon="6.82394"><ele>621</ele><time>2023-06-17T15:50:45Z</time></trkpt>
<trkpt lat="46.47728" lon="6.82392"><ele>621.2</ele><time>2023-06-17T15:50:47Z</time></trkpt>
<trkpt lat="46.47731" lon="6.82391"><ele>621.4</ele><time>2023-06-17T15:50:50Z</time></trkpt>
<trkpt lat="46.47733" lon="6.82393"><ele>621.8</ele><time>2023-06-17T15:50:52Z</time></trkpt>
<trkpt lat="46.47735" lon="6.82395"><ele>622</ele><time>2023-06-17T15:50:54Z</time></trkpt>
<trkpt lat="46.47739" lon="6.82402"><ele>622.6</ele><time>2023-06-17T15:50:59Z</time></trkpt>
<trkpt lat="46.47742" lon="6.82409"><ele>623.2</ele><time>2023-06-17T15:51:04Z</time></trkpt>
<trkpt lat="46.47743" lon="6.82412"><ele>623.6</ele><time>2023-06-17T15:51:06Z</time></trkpt>
<trkpt lat="46.47745" lon="6.82421"><ele>624.4</ele><time>2023-06-17T15:51:12Z</time></trkpt>
<trkpt lat="46.47746" lon="6.82422"><ele>624.6</ele><time>2023-06-17T15:51:13Z</time></trkpt>
<trkpt lat="46.47747" lon="6.82425"><ele>624.8</ele><time>2023-06-17T15:51:15Z</time></trkpt>
<trkpt lat="46.47749" lon="6.82424"><ele>625.2</ele><time>2023-06-17T15:51:17Z</time></trkpt>
<trkpt lat="46.47751" lon="6.82422"><ele>625.4</ele><time>2023-06-17T15:51:19Z</time></trkpt>
<trkpt lat="46.47752" lon="6.8242"><ele>625.6</ele><time>2023-06-17T15:51:21Z</time></trkpt>
<trkpt lat="46.47753" lon="6.82413"><ele>626.2</ele><time>2023-06-17T15:51:26Z</time></trkpt>
<trkpt lat="46.47754" lon="6.82409"><ele>626.8</ele><time>2023-06-17T15:51:29Z</time></trkpt>
<trkpt lat="46.47755" lon="6.82405"><ele>627</ele><time>2023-06-17T15:51:32Z</time></trkpt>
<trkpt lat="46.47757" lon="6.82398"><ele>628</ele><time>2023-06-17T15:51:38Z</time></trkpt>
<trkpt lat="46.47758" lon="6.82395"><ele>628.2</ele><time>2023-06-17T15:51:40Z</time></trkpt>
<trkpt lat="46.4776" lon="6.8239"><ele>629</ele><time>2023-06-17T15:51:45Z</time></trkpt>
<trkpt lat="46.4776" lon="6.8239"><ele>629.2</ele><time>2023-06-17T15:51:46Z</time></trkpt>
<trkpt lat="46.47765" lon="6.82384"><ele>630</ele><time>2023-06-17T15:51:53Z</time></trkpt>
<trkpt lat="46.47766" lon="6.82384"><ele>630.2</ele><time>2023-06-17T15:51:54Z</time></trkpt>
<trkpt lat="46.47769" lon="6.82379"><ele>630.8</ele><time>2023-06-17T15:51:59Z</time></trkpt>
<trkpt lat="46.47771" lon="6.82379"><ele>631.2</ele><time>2023-06-17T15:52:01Z</time></trkpt>
<trkpt lat="46.47775" lon="6.82376"><ele>632</ele><time>2023-06-17T15:52:07Z</time></trkpt>
<trkpt lat="46.47777" lon="6.82376"><ele>632.4</ele><time>2023-06-17T15:52:09Z</time></trkpt>
<trkpt lat="46.47781" lon="6.82373"><ele>633</ele><time>2023-06-17T15:52:14Z</time></trkpt>
<trkpt lat="46.47783" lon="6.82372"><ele>633.6</ele><time>2023-06-17T15:52:17Z</time></trkpt>
<trkpt lat="46.47787" lon="6.82371"><ele>633.8</ele><time>2023-06-17T15:52:20Z</time></trkpt>
<trkpt lat="46.47789" lon="6.8237"><ele>634.6</ele><time>2023-06-17T15:52:23Z</time></trkpt>
<trkpt lat="46.47792" lon="6.82369"><ele>635</ele><time>2023-06-17T15:52:27Z</time></trkpt>
<trkpt lat="46.47797" lon="6.82368"><ele>635.8</ele><time>2023-06-17T15:52:31Z</time></trkpt>
<trkpt lat="46.47799" lon="6.82367"><ele>636.2</ele><time>2023-06-17T15:52:33Z</time></trkpt>
<trkpt lat="46.47801" lon="6.82358"><ele>636.6</ele><time>2023-06-17T15:52:39Z</time></trkpt>
<trkpt lat="46.478" lon="6.82354"><ele>637</ele><time>2023-06-17T15:52:41Z</time></trkpt>
<trkpt lat="46.478" lon="6.82342"><ele>637.6</ele><time>2023-06-17T15:52:48Z</time></trkpt>
<trkpt lat="46.478" lon="6.82336"><ele>638</ele><time>2023-06-17T15:52:51Z</time></trkpt>
<trkpt lat="46.47799" lon="6.82326"><ele>638.8</ele><time>2023-06-17T15:52:56Z</time></trkpt>
<trkpt lat="46.47798" lon="6.82316"><ele>639.2</ele><time>2023-06-17T15:53:00Z</time></trkpt>
<trkpt lat="46.47797" lon="6.82305"><ele>639.8</ele><time>2023-06-17T15:53:05Z</time></trkpt>
<trkpt lat="46.47798" lon="6.82293"><ele>640.2</ele><time>2023-06-17T15:53:10Z</time></trkpt>
<trkpt lat="46.47798" lon="6.82285"><ele>640.6</ele><time>2023-06-17T15:53:14Z</time></trkpt>
<trkpt lat="46.47799" lon="6.8227"><ele>641.2</ele><time>2023-06-17T15:53:20Z</time></trkpt>
<trkpt lat="46.47799" lon="6.82267"><ele>641.2</ele><time>2023-06-17T15:53:21Z</time></trkpt>
<trkpt lat="46.47801" lon="6.82243"><ele>642.2</ele><time>2023-06-17T15:53:31Z</time></trkpt>
<trkpt lat="46.47802" lon="6.8224"><ele>642.4</ele><time>2023-06-17T15:53:32Z</time></trkpt>
<trkpt lat="46.47806" lon="6.8222"><ele>643.4</ele><time>2023-06-17T15:53:41Z</time></trkpt>
<trkpt lat="46.47806" lon="6.82216"><ele>643.4</ele><time>2023-06-17T15:53:43Z</time></trkpt>
<trkpt lat="46.47806" lon="6.82205"><ele>644.4</ele><time>2023-06-17T15:53:50Z</time></trkpt>
<trkpt lat="46.47807" lon="6.82204"><ele>644.6</ele><time>2023-06-17T15:53:51Z</time></trkpt>
<trkpt lat="46.47807" lon="6.82197"><ele>645.2</ele><time>2023-06-17T15:53:56Z</time></trkpt>
<trkpt lat="46.47806" lon="6.82195"><ele>645.4</ele><time>2023-06-17T15:53:58Z</time></trkpt>
<trkpt lat="46.47806" lon="6.82194"><ele>645.6</ele><time>2023-06-17T15:53:59Z</time></trkpt>
<trkpt lat="46.47806" lon="6.82191"><ele>646</ele><time>2023-06-17T15:54:01Z</time></trkpt>
<trkpt lat="46.47807" lon="6.82183"><ele>646.4</ele><time>2023-06-17T15:54:06Z</time></trkpt>
<trkpt lat="46.47807" lon="6.82183"><ele>646.6</ele><time>2023-06-17T15:54:07Z</time></trkpt>
<trkpt lat="46.47808" lon="6.82181"><ele>646.8</ele><time>2023-06-17T15:54:08Z</time></trkpt>
<trkpt lat="46.47809" lon="6.82178"><ele>647.2</ele><time>2023-06-17T15:54:11Z</time></trkpt>
<trkpt lat="46.47808" lon="6.82177"><ele>647.4</ele><time>2023-06-17T15:54:12Z</time></trkpt>
<trkpt lat="46.47808" lon="6.82173"><ele>647.6</ele><time>2023-06-17T15:54:15Z</time></trkpt>
<trkpt lat="46.47809" lon="6.82172"><ele>647.8</ele><time>2023-06-17T15:54:16Z</time></trkpt>
<trkpt lat="46.47809" lon="6.8217"><ele>648.2</ele><time>2023-06-17T15:54:18Z</time></trkpt>
<trkpt lat="46.4781" lon="6.82164"><ele>648.8</ele><time>2023-06-17T15:54:24Z</time></trkpt>
<trkpt lat="46.4781" lon="6.82163"><ele>649</ele><time>2023-06-17T15:54:25Z</time></trkpt>
<trkpt lat="46.4781" lon="6.82161"><ele>649.2</ele><time>2023-06-17T15:54:26Z</time></trkpt>
<trkpt lat="46.47811" lon="6.82155"><ele>649.8</ele><time>2023-06-17T15:54:31Z</time></trkpt>
<trkpt lat="46.47811" lon="6.82153"><ele>650</ele><time>2023-06-17T15:54:32Z</time></trkpt>
<trkpt lat="46.47811" lon="6.82145"><ele>650.6</ele><time>2023-06-17T15:54:38Z</time></trkpt>
<trkpt lat="46.4781" lon="6.82142"><ele>651</ele><time>2023-06-17T15:54:41Z</time></trkpt>
<trkpt lat="46.47809" lon="6.82139"><ele>651.6</ele><time>2023-06-17T15:54:44Z</time></trkpt>
<trkpt lat="46.4781" lon="6.82137"><ele>651.8</ele><time>2023-06-17T15:54:46Z</time></trkpt>
<trkpt lat="46.47812" lon="6.82136"><ele>652.2</ele><time>2023-06-17T15:54:48Z</time></trkpt>
<trkpt lat="46.47812" lon="6.82135"><ele>652.4</ele><time>2023-06-17T15:54:49Z</time></trkpt>
<trkpt lat="46.47812" lon="6.82132"><ele>652.6</ele><time>2023-06-17T15:54:52Z</time></trkpt>
<trkpt lat="46.4781" lon="6.82131"><ele>652.6</ele><time>2023-06-17T15:54:54Z</time></trkpt>
<trkpt lat="46.47809" lon="6.8213"><ele>652.8</ele><time>2023-06-17T15:54:55Z</time></trkpt>
<trkpt lat="46.47811" lon="6.82128"><ele>653.2</ele><time>2023-06-17T15:54:57Z</time></trkpt>
<trkpt lat="46.47812" lon="6.82128"><ele>653.2</ele><time>2023-06-17T15:54:58Z</time></trkpt>
<trkpt lat="46.47817" lon="6.82128"><ele>653.8</ele><time>2023-06-17T15:55:04Z</time></trkpt>
<trkpt lat="46.47814" lon="6.82122"><ele>654.4</ele><time>2023-06-17T15:55:09Z</time></trkpt>
<trkpt lat="46.47814" lon="6.82121"><ele>654.4</ele><time>2023-06-17T15:55:10Z</time></trkpt>
<trkpt lat="46.47812" lon="6.82116"><ele>655</ele><time>2023-06-17T15:55:15Z</time></trkpt>
<trkpt lat="46.47811" lon="6.82114"><ele>655.2</ele><time>2023-06-17T15:55:17Z</time></trkpt>
<trkpt lat="46.4781" lon="6.82113"><ele>655.4</ele><time>2023-06-17T15:55:18Z</time></trkpt>
<trkpt lat="46.47809" lon="6.82113"><ele>655.6</ele><time>2023-06-17T15:55:19Z</time></trkpt>
<trkpt lat="46.47808" lon="6.82109"><ele>656</ele><time>2023-06-17T15:55:22Z</time></trkpt>
<trkpt lat="46.47809" lon="6.82108"><ele>656.2</ele><time>2023-06-17T15:55:23Z</time></trkpt>
<trkpt lat="46.47808" lon="6.82105"><ele>656.6</ele><time>2023-06-17T15:55:25Z</time></trkpt>
<trkpt lat="46.47808" lon="6.82104"><ele>656.8</ele><time>2023-06-17T15:55:26Z</time></trkpt>
<trkpt lat="46.47808" lon="6.82103"><ele>656.8</ele><time>2023-06-17T15:55:27Z</time></trkpt>
<trkpt lat="46.47809" lon="6.82096"><ele>657.6</ele><time>2023-06-17T15:55:33Z</time></trkpt>
<trkpt lat="46.47808" lon="6.82095"><ele>657.8</ele><time>2023-06-17T15:55:34Z</time></trkpt>
<trkpt lat="46.47807" lon="6.82092"><ele>658.4</ele><time>2023-06-17T15:55:37Z</time></trkpt>
<trkpt lat="46.47807" lon="6.8209"><ele>658.8</ele><time>2023-06-17T15:55:39Z</time></trkpt>
<trkpt lat="46.47807" lon="6.82088"><ele>659</ele><time>2023-06-17T15:55:40Z</time></trkpt>
<trkpt lat="46.47806" lon="6.82082"><ele>660</ele><time>2023-06-17T15:55:46Z</time></trkpt>
<trkpt lat="46.47807" lon="6.82074"><ele>660.8</ele><time>2023-06-17T15:55:52Z</time></trkpt>
<trkpt lat="46.47807" lon="6.82073"><ele>661</ele><time>2023-06-17T15:55:53Z</time></trkpt>
<trkpt lat="46.47806" lon="6.82068"><ele>661.6</ele><time>2023-06-17T15:55:58Z</time></trkpt>
<trkpt lat="46.47806" lon="6.82066"><ele>662</ele><time>2023-06-17T15:56:00Z</time></trkpt>
<trkpt lat="46.47804" lon="6.82065"><ele>662.6</ele><time>2023-06-17T15:56:02Z</time></trkpt>
<trkpt lat="46.47802" lon="6.82063"><ele>663</ele><time>2023-06-17T15:56:04Z</time></trkpt>
<trkpt lat="46.47802" lon="6.82062"><ele>663.2</ele><time>2023-06-17T15:56:05Z</time></trkpt>
<trkpt lat="46.47802" lon="6.82055"><ele>664.2</ele><time>2023-06-17T15:56:10Z</time></trkpt>
<trkpt lat="46.47802" lon="6.82052"><ele>664.6</ele><time>2023-06-17T15:56:12Z</time></trkpt>
<trkpt lat="46.47803" lon="6.82047"><ele>665.2</ele><time>2023-06-17T15:56:16Z</time></trkpt>
<trkpt lat="46.47805" lon="6.82045"><ele>665.8</ele><time>2023-06-17T15:56:19Z</time></trkpt>
<trkpt lat="46.47806" lon="6.82044"><ele>666</ele><time>2023-06-17T15:56:20Z</time></trkpt>
<trkpt lat="46.47808" lon="6.82045"><ele>666.2</ele><time>2023-06-17T15:56:22Z</time></trkpt>
<trkpt lat="46.4781" lon="6.82047"><ele>667</ele><time>2023-06-17T15:56:26Z</time></trkpt>
<trkpt lat="46.47813" lon="6.82046"><ele>667.4</ele><time>2023-06-17T15:56:30Z</time></trkpt>
<trkpt lat="46.47813" lon="6.82045"><ele>667.6</ele><time>2023-06-17T15:56:31Z</time></trkpt>
<trkpt lat="46.47812" lon="6.82043"><ele>667.6</ele><time>2023-06-17T15:56:32Z</time></trkpt>
<trkpt lat="46.47811" lon="6.82035"><ele>668.4</ele><time>2023-06-17T15:56:38Z</time></trkpt>
<trkpt lat="46.47811" lon="6.82033"><ele>668.6</ele><time>2023-06-17T15:56:40Z</time></trkpt>
<trkpt lat="46.47809" lon="6.82027"><ele>669.2</ele><time>2023-06-17T15:56:45Z</time></trkpt>
<trkpt lat="46.47811" lon="6.82025"><ele>669.8</ele><time>2023-06-17T15:56:49Z</time></trkpt>
<trkpt lat="46.47812" lon="6.82018"><ele>670.6</ele><time>2023-06-17T15:56:56Z</time></trkpt>
<trkpt lat="46.4781" lon="6.82015"><ele>671</ele><time>2023-06-17T15:56:59Z</time></trkpt>
<trkpt lat="46.47807" lon="6.82013"><ele>671.4</ele><time>2023-06-17T15:57:03Z</time></trkpt>
<trkpt lat="46.47805" lon="6.82009"><ele>671.8</ele><time>2023-06-17T15:57:06Z</time></trkpt>
<trkpt lat="46.47806" lon="6.82008"><ele>672</ele><time>2023-06-17T15:57:07Z</time></trkpt>
<trkpt lat="46.47807" lon="6.82008"><ele>672</ele><time>2023-06-17T15:57:08Z</time></trkpt>
<trkpt lat="46.47812" lon="6.82004"><ele>672.8</ele><time>2023-06-17T15:57:15Z</time></trkpt>
<trkpt lat="46.47813" lon="6.82004"><ele>672.8</ele><time>2023-06-17T15:57:16Z</time></trkpt>
<trkpt lat="46.47814" lon="6.82001"><ele>673.2</ele><time>2023-06-17T15:57:18Z</time></trkpt>
<trkpt lat="46.47814" lon="6.82"><ele>673.2</ele><time>2023-06-17T15:57:19Z</time></trkpt>
<trkpt lat="46.47812" lon="6.81994"><ele>674.2</ele><time>2023-06-17T15:57:24Z</time></trkpt>
<trkpt lat="46.47811" lon="6.81992"><ele>674.4</ele><time>2023-06-17T15:57:25Z</time></trkpt>
<trkpt lat="46.47811" lon="6.81986"><ele>675.4</ele><time>2023-06-17T15:57:29Z</time></trkpt>
<trkpt lat="46.47813" lon="6.81985"><ele>675.6</ele><time>2023-06-17T15:57:31Z</time></trkpt>
<trkpt lat="46.47815" lon="6.81979"><ele>676.4</ele><time>2023-06-17T15:57:36Z</time></trkpt>
<trkpt lat="46.47815" lon="6.81977"><ele>676.8</ele><time>2023-06-17T15:57:38Z</time></trkpt>
<trkpt lat="46.47814" lon="6.81973"><ele>677.4</ele><time>2023-06-17T15:57:42Z</time></trkpt>
<trkpt lat="46.47815" lon="6.81965"><ele>678.4</ele><time>2023-06-17T15:57:50Z</time></trkpt>
<trkpt lat="46.47815" lon="6.81964"><ele>678.6</ele><time>2023-06-17T15:57:51Z</time></trkpt>
<trkpt lat="46.47814" lon="6.81958"><ele>679.4</ele><time>2023-06-17T15:57:57Z</time></trkpt>
<trkpt lat="46.47814" lon="6.81956"><ele>679.8</ele><time>2023-06-17T15:57:59Z</time></trkpt>
<trkpt lat="46.47814" lon="6.81953"><ele>680.2</ele><time>2023-06-17T15:58:02Z</time></trkpt>
<trkpt lat="46.47815" lon="6.81948"><ele>680.8</ele><time>2023-06-17T15:58:06Z</time></trkpt>
<trkpt lat="46.47815" lon="6.81945"><ele>681.2</ele><time>2023-06-17T15:58:09Z</time></trkpt>
<trkpt lat="46.47815" lon="6.81941"><ele>681.8</ele><time>2023-06-17T15:58:13Z</time></trkpt>
<trkpt lat="46.47815" lon="6.81936"><ele>682.4</ele><time>2023-06-17T15:58:17Z</time></trkpt>
<trkpt lat="46.47815" lon="6.81932"><ele>683</ele><time>2023-06-17T15:58:21Z</time></trkpt>
<trkpt lat="46.47814" lon="6.8193"><ele>683.4</ele><time>2023-06-17T15:58:24Z</time></trkpt>
<trkpt lat="46.47814" lon="6.81929"><ele>683.6</ele><time>2023-06-17T15:58:25Z</time></trkpt>
<trkpt lat="46.47815" lon="6.81925"><ele>684.2</ele><time>2023-06-17T15:58:28Z</time></trkpt>
<trkpt lat="46.47816" lon="6.81924"><ele>684.4</ele><time>2023-06-17T15:58:30Z</time></trkpt>
<trkpt lat="46.47818" lon="6.81918"><ele>685.2</ele><time>2023-06-17T15:58:36Z</time></trkpt>
<trkpt lat="46.47818" lon="6.81917"><ele>685.2</ele><time>2023-06-17T15:58:37Z</time></trkpt>
<trkpt lat="46.4782" lon="6.81909"><ele>686.2</ele><time>2023-06-17T15:58:45Z</time></trkpt>
<trkpt lat="46.4782" lon="6.81908"><ele>686.4</ele><time>2023-06-17T15:58:46Z</time></trkpt>
<trkpt lat="46.47821" lon="6.81904"><ele>686.8</ele><time>2023-06-17T15:58:50Z</time></trkpt>
<trkpt lat="46.47822" lon="6.81903"><ele>687</ele><time>2023-06-17T15:58:52Z</time></trkpt>
<trkpt lat="46.47823" lon="6.81902"><ele>687.2</ele><time>2023-06-17T15:58:54Z</time></trkpt>
<trkpt lat="46.47825" lon="6.819"><ele>687.4</ele><time>2023-06-17T15:58:56Z</time></trkpt>
<trkpt lat="46.47827" lon="6.81894"><ele>688.2</ele><time>2023-06-17T15:59:02Z</time></trkpt>
<trkpt lat="46.47827" lon="6.81893"><ele>688.4</ele><time>2023-06-17T15:59:03Z</time></trkpt>
<trkpt lat="46.47829" lon="6.81887"><ele>689.4</ele><time>2023-06-17T15:59:10Z</time></trkpt>
<trkpt lat="46.47832" lon="6.8188"><ele>690</ele><time>2023-06-17T15:59:16Z</time></trkpt>
<trkpt lat="46.47832" lon="6.8188"><ele>690.2</ele><time>2023-06-17T15:59:18Z</time></trkpt>
<trkpt lat="46.47832" lon="6.8188"><ele>690.4</ele><time>2023-06-17T15:59:19Z</time></trkpt>
<trkpt lat="46.47834" lon="6.81875"><ele>691.6</ele><time>2023-06-17T15:59:26Z</time></trkpt>
<trkpt lat="46.47836" lon="6.81874"><ele>692.2</ele><time>2023-06-17T15:59:30Z</time></trkpt>
<trkpt lat="46.47837" lon="6.81873"><ele>692.2</ele><time>2023-06-17T15:59:32Z</time></trkpt>
<trkpt lat="46.47837" lon="6.81871"><ele>692.6</ele><time>2023-06-17T15:59:35Z</time></trkpt>
<trkpt lat="46.47838" lon="6.81868"><ele>693.2</ele><time>2023-06-17T15:59:39Z</time></trkpt>
<trkpt lat="46.47838" lon="6.81866"><ele>693.4</ele><time>2023-06-17T15:59:40Z</time></trkpt>
<trkpt lat="46.47838" lon="6.81865"><ele>693.6</ele><time>2023-06-17T15:59:42Z</time></trkpt>
<trkpt lat="46.4784" lon="6.81863"><ele>694.2</ele><time>2023-06-17T15:59:45Z</time></trkpt>
<trkpt lat="46.47841" lon="6.81859"><ele>694.6</ele><time>2023-06-17T15:59:48Z</time></trkpt>
<trkpt lat="46.47843" lon="6.81857"><ele>695.2</ele><time>2023-06-17T15:59:51Z</time></trkpt>
<trkpt lat="46.47845" lon="6.81854"><ele>695.8</ele><time>2023-06-17T15:59:55Z</time></trkpt>
<trkpt lat="46.47847" lon="6.8185"><ele>696.6</ele><time>2023-06-17T16:00:00Z</time></trkpt>
<trkpt lat="46.47847" lon="6.81848"><ele>697</ele><time>2023-06-17T16:00:02Z</time></trkpt>
<trkpt lat="46.47848" lon="6.81843"><ele>697.6</ele><time>2023-06-17T16:00:07Z</time></trkpt>
<trkpt lat="46.47849" lon="6.8184"><ele>698.2</ele><time>2023-06-17T16:00:10Z</time></trkpt>
<trkpt lat="46.4785" lon="6.81838"><ele>698.8</ele><time>2023-06-17T16:00:14Z</time></trkpt>
<trkpt lat="46.4785" lon="6.81836"><ele>699.2</ele><time>2023-06-17T16:00:16Z</time></trkpt>
<trkpt lat="46.4785" lon="6.81833"><ele>699.6</ele><time>2023-06-17T16:00:20Z</time></trkpt>
<trkpt lat="46.47849" lon="6.81831"><ele>700.4</ele><time>2023-06-17T16:00:24Z</time></trkpt>
<trkpt lat="46.47848" lon="6.81828"><ele>701</ele><time>2023-06-17T16:00:28Z</time></trkpt>
<trkpt lat="46.47848" lon="6.81824"><ele>701.6</ele><time>2023-06-17T16:00:32Z</time></trkpt>
<trkpt lat="46.47848" lon="6.81822"><ele>702</ele><time>2023-06-17T16:00:35Z</time></trkpt>
<trkpt lat="46.47849" lon="6.81818"><ele>702.6</ele><time>2023-06-17T16:00:39Z</time></trkpt>
<trkpt lat="46.47849" lon="6.81816"><ele>703</ele><time>2023-06-17T16:00:42Z</time></trkpt>
<trkpt lat="46.47849" lon="6.81811"><ele>703.6</ele><time>2023-06-17T16:00:47Z</time></trkpt>
<trkpt lat="46.47848" lon="6.81808"><ele>704</ele><time>2023-06-17T16:00:50Z</time></trkpt>
<trkpt lat="46.47847" lon="6.81806"><ele>704.6</ele><time>2023-06-17T16:00:53Z</time></trkpt>
<trkpt lat="46.47848" lon="6.81801"><ele>705.4</ele><time>2023-06-17T16:00:57Z</time></trkpt>
<trkpt lat="46.4785" lon="6.81799"><ele>705.8</ele><time>2023-06-17T16:01:00Z</time></trkpt>
<trkpt lat="46.47851" lon="6.81795"><ele>706.4</ele><time>2023-06-17T16:01:04Z</time></trkpt>
<trkpt lat="46.47852" lon="6.81792"><ele>706.8</ele><time>2023-06-17T16:01:08Z</time></trkpt>
<trkpt lat="46.47852" lon="6.8179"><ele>707.2</ele><time>2023-06-17T16:01:11Z</time></trkpt>
<trkpt lat="46.47852" lon="6.81787"><ele>707.8</ele><time>2023-06-17T16:01:15Z</time></trkpt>
<trkpt lat="46.47853" lon="6.81785"><ele>708</ele><time>2023-06-17T16:01:18Z</time></trkpt>
<trkpt lat="46.47853" lon="6.81778"><ele>709</ele><time>2023-06-17T16:01:23Z</time></trkpt>
<trkpt lat="46.47853" lon="6.81776"><ele>709.2</ele><time>2023-06-17T16:01:25Z</time></trkpt>
<trkpt lat="46.47854" lon="6.81773"><ele>710</ele><time>2023-06-17T16:01:30Z</time></trkpt>
<trkpt lat="46.47854" lon="6.8177"><ele>710.4</ele><time>2023-06-17T16:01:33Z</time></trkpt>
<trkpt lat="46.47853" lon="6.81765"><ele>711.2</ele><time>2023-06-17T16:01:39Z</time></trkpt>
<trkpt lat="46.47854" lon="6.81764"><ele>711.4</ele><time>2023-06-17T16:01:40Z</time></trkpt>
<trkpt lat="46.47854" lon="6.81758"><ele>712</ele><time>2023-06-17T16:01:44Z</time></trkpt>
<trkpt lat="46.47853" lon="6.81757"><ele>712.2</ele><time>2023-06-17T16:01:45Z</time></trkpt>
<trkpt lat="46.47853" lon="6.81756"><ele>712.2</ele><time>2023-06-17T16:01:46Z</time></trkpt>
<trkpt lat="46.47852" lon="6.81753"><ele>712.4</ele><time>2023-06-17T16:01:48Z</time></trkpt>
<trkpt lat="46.4785" lon="6.8175"><ele>713</ele><time>2023-06-17T16:01:51Z</time></trkpt>
<trkpt lat="46.4785" lon="6.81748"><ele>713.2</ele><time>2023-06-17T16:01:52Z</time></trkpt>
<trkpt lat="46.4785" lon="6.81736"><ele>714</ele><time>2023-06-17T16:01:59Z</time></trkpt>
<trkpt lat="46.47849" lon="6.81728"><ele>714.2</ele><time>2023-06-17T16:02:02Z</time></trkpt>
<trkpt lat="46.47849" lon="6.81718"><ele>714.4</ele><time>2023-06-17T16:02:05Z</time></trkpt>
<trkpt lat="46.47849" lon="6.81693"><ele>714.4</ele><time>2023-06-17T16:02:12Z</time></trkpt>
<trkpt lat="46.47851" lon="6.81668"><ele>714.8</ele><time>2023-06-17T16:02:20Z</time></trkpt>
<trkpt lat="46.47852" lon="6.81661"><ele>715.4</ele><time>2023-06-17T16:02:23Z</time></trkpt>
<trkpt lat="46.47852" lon="6.81652"><ele>716.2</ele><time>2023-06-17T16:02:27Z</time></trkpt>
<trkpt lat="46.47852" lon="6.81648"><ele>716.4</ele><time>2023-06-17T16:02:29Z</time></trkpt>
<trkpt lat="46.47854" lon="6.81636"><ele>716.8</ele><time>2023-06-17T16:02:35Z</time></trkpt>
<trkpt lat="46.47855" lon="6.81626"><ele>716.6</ele><time>2023-06-17T16:02:38Z</time></trkpt>
<trkpt lat="46.47855" lon="6.81615"><ele>716.2</ele><time>2023-06-17T16:02:40Z</time></trkpt>
<trkpt lat="46.47854" lon="6.81609"><ele>716</ele><time>2023-06-17T16:02:41Z</time></trkpt>
<trkpt lat="46.47849" lon="6.81584"><ele>714.8</ele><time>2023-06-17T16:02:44Z</time></trkpt>
<trkpt lat="46.47846" lon="6.81553"><ele>713.4</ele><time>2023-06-17T16:02:47Z</time></trkpt>
<trkpt lat="46.47845" lon="6.81541"><ele>712.8</ele><time>2023-06-17T16:02:48Z</time></trkpt>
<trkpt lat="46.47846" lon="6.81528"><ele>712.2</ele><time>2023-06-17T16:02:49Z</time></trkpt>
<trkpt lat="46.47848" lon="6.8149"><ele>710.4</ele><time>2023-06-17T16:02:52Z</time></trkpt>
<trkpt lat="46.47854" lon="6.81446"><ele>709.8</ele><time>2023-06-17T16:02:56Z</time></trkpt>
<trkpt lat="46.47855" lon="6.81436"><ele>709.8</ele><time>2023-06-17T16:02:57Z</time></trkpt>
<trkpt lat="46.47863" lon="6.81384"><ele>710.4</ele><time>2023-06-17T16:03:03Z</time></trkpt>
<trkpt lat="46.47869" lon="6.81354"><ele>711.2</ele><time>2023-06-17T16:03:08Z</time></trkpt>
<trkpt lat="46.47871" lon="6.81351"><ele>711.6</ele><time>2023-06-17T16:03:09Z</time></trkpt>
<trkpt lat="46.47876" lon="6.81342"><ele>712.4</ele><time>2023-06-17T16:03:13Z</time></trkpt>
<trkpt lat="46.47877" lon="6.81339"><ele>712.8</ele><time>2023-06-17T16:03:14Z</time></trkpt>
<trkpt lat="46.47883" lon="6.81326"><ele>713.4</ele><time>2023-06-17T16:03:18Z</time></trkpt>
<trkpt lat="46.47899" lon="6.81306"><ele>712.4</ele><time>2023-06-17T16:03:23Z</time></trkpt>
<trkpt lat="46.47907" lon="6.81291"><ele>712.2</ele><time>2023-06-17T16:03:26Z</time></trkpt>
<trkpt lat="46.47909" lon="6.81281"><ele>712.4</ele><time>2023-06-17T16:03:28Z</time></trkpt>
<trkpt lat="46.47907" lon="6.81259"><ele>713.2</ele><time>2023-06-17T16:03:33Z</time></trkpt>
<trkpt lat="46.47907" lon="6.81253"><ele>713.8</ele><time>2023-06-17T16:03:35Z</time></trkpt>
<trkpt lat="46.47906" lon="6.8124"><ele>714.8</ele><time>2023-06-17T16:03:40Z</time></trkpt>
<trkpt lat="46.4791" lon="6.81217"><ele>715.8</ele><time>2023-06-17T16:03:48Z</time></trkpt>
<trkpt lat="46.4791" lon="6.81214"><ele>715.8</ele><time>2023-06-17T16:03:49Z</time></trkpt>
<trkpt lat="46.47917" lon="6.8119"><ele>716.8</ele><time>2023-06-17T16:03:57Z</time></trkpt>
<trkpt lat="46.47918" lon="6.81188"><ele>716.8</ele><time>2023-06-17T16:03:58Z</time></trkpt>
<trkpt lat="46.47923" lon="6.81174"><ele>717.6</ele><time>2023-06-17T16:04:03Z</time></trkpt>
<trkpt lat="46.47924" lon="6.81166"><ele>717.8</ele><time>2023-06-17T16:04:06Z</time></trkpt>
<trkpt lat="46.47927" lon="6.81151"><ele>718.8</ele><time>2023-06-17T16:04:12Z</time></trkpt>
<trkpt lat="46.47927" lon="6.81148"><ele>719</ele><time>2023-06-17T16:04:13Z</time></trkpt>
<trkpt lat="46.47931" lon="6.8113"><ele>720</ele><time>2023-06-17T16:04:20Z</time></trkpt>
<trkpt lat="46.47932" lon="6.81124"><ele>720.2</ele><time>2023-06-17T16:04:22Z</time></trkpt>
<trkpt lat="46.47936" lon="6.81112"><ele>721</ele><time>2023-06-17T16:04:27Z</time></trkpt>
<trkpt lat="46.47937" lon="6.81109"><ele>721.2</ele><time>2023-06-17T16:04:28Z</time></trkpt>
<trkpt lat="46.47939" lon="6.81103"><ele>721.6</ele><time>2023-06-17T16:04:31Z</time></trkpt>
<trkpt lat="46.47942" lon="6.81095"><ele>722.2</ele><time>2023-06-17T16:04:36Z</time></trkpt>
<trkpt lat="46.47944" lon="6.81089"><ele>722.4</ele><time>2023-06-17T16:04:39Z</time></trkpt>
<trkpt lat="46.47949" lon="6.81077"><ele>723.2</ele><time>2023-06-17T16:04:46Z</time></trkpt>
<trkpt lat="46.4795" lon="6.81074"><ele>723.4</ele><time>2023-06-17T16:04:47Z</time></trkpt>
<trkpt lat="46.47952" lon="6.81063"><ele>723.8</ele><time>2023-06-17T16:04:53Z</time></trkpt>
<trkpt lat="46.47954" lon="6.81055"><ele>724.4</ele><time>2023-06-17T16:04:57Z</time></trkpt>
<trkpt lat="46.47955" lon="6.81048"><ele>724.8</ele><time>2023-06-17T16:05:01Z</time></trkpt>
<trkpt lat="46.47956" lon="6.81038"><ele>725.4</ele><time>2023-06-17T16:05:06Z</time></trkpt>
<trkpt lat="46.47957" lon="6.81031"><ele>725.8</ele><time>2023-06-17T16:05:09Z</time></trkpt>
<trkpt lat="46.47958" lon="6.81021"><ele>726.4</ele><time>2023-06-17T16:05:14Z</time></trkpt>
<trkpt lat="46.4796" lon="6.81016"><ele>726.8</ele><time>2023-06-17T16:05:17Z</time></trkpt>
<trkpt lat="46.47962" lon="6.8101"><ele>727.4</ele><time>2023-06-17T16:05:21Z</time></trkpt>
<trkpt lat="46.47966" lon="6.81003"><ele>727.8</ele><time>2023-06-17T16:05:25Z</time></trkpt>
<trkpt lat="46.47972" lon="6.80993"><ele>728.4</ele><time>2023-06-17T16:05:30Z</time></trkpt>
<trkpt lat="46.47974" lon="6.8099"><ele>728.8</ele><time>2023-06-17T16:05:33Z</time></trkpt>
<trkpt lat="46.47978" lon="6.80986"><ele>729.4</ele><time>2023-06-17T16:05:37Z</time></trkpt>
<trkpt lat="46.47981" lon="6.80981"><ele>730</ele><time>2023-06-17T16:05:41Z</time></trkpt>
<trkpt lat="46.47984" lon="6.80976"><ele>730.6</ele><time>2023-06-17T16:05:45Z</time></trkpt>
<trkpt lat="46.47985" lon="6.80974"><ele>731</ele><time>2023-06-17T16:05:48Z</time></trkpt>
<trkpt lat="46.47988" lon="6.8097"><ele>731.6</ele><time>2023-06-17T16:05:52Z</time></trkpt>
<trkpt lat="46.47991" lon="6.80966"><ele>732.4</ele><time>2023-06-17T16:05:56Z</time></trkpt>
<trkpt lat="46.47992" lon="6.80962"><ele>732.8</ele><time>2023-06-17T16:05:59Z</time></trkpt>
<trkpt lat="46.47995" lon="6.80956"><ele>733.6</ele><time>2023-06-17T16:06:04Z</time></trkpt>
<trkpt lat="46.47996" lon="6.80954"><ele>734</ele><time>2023-06-17T16:06:06Z</time></trkpt>
<trkpt lat="46.48003" lon="6.80947"><ele>734.8</ele><time>2023-06-17T16:06:13Z</time></trkpt>
<trkpt lat="46.48004" lon="6.80946"><ele>735</ele><time>2023-06-17T16:06:14Z</time></trkpt>
<trkpt lat="46.48011" lon="6.80938"><ele>736</ele><time>2023-06-17T16:06:22Z</time></trkpt>
<trkpt lat="46.48013" lon="6.80935"><ele>736.4</ele><time>2023-06-17T16:06:24Z</time></trkpt>
<trkpt lat="46.48019" lon="6.80929"><ele>737.2</ele><time>2023-06-17T16:06:30Z</time></trkpt>
<trkpt lat="46.48026" lon="6.80922"><ele>738.2</ele><time>2023-06-17T16:06:39Z</time></trkpt>
<trkpt lat="46.48035" lon="6.80914"><ele>739.2</ele><time>2023-06-17T16:06:47Z</time></trkpt>
<trkpt lat="46.48036" lon="6.80913"><ele>739.2</ele><time>2023-06-17T16:06:48Z</time></trkpt>
<trkpt lat="46.48044" lon="6.80907"><ele>740</ele><time>2023-06-17T16:06:55Z</time></trkpt>
<trkpt lat="46.48047" lon="6.80903"><ele>740.2</ele><time>2023-06-17T16:06:59Z</time></trkpt>
<trkpt lat="46.4805" lon="6.80899"><ele>740.6</ele><time>2023-06-17T16:07:03Z</time></trkpt>
<trkpt lat="46.48058" lon="6.80889"><ele>741.2</ele><time>2023-06-17T16:07:09Z</time></trkpt>
<trkpt lat="46.48059" lon="6.80887"><ele>741.4</ele><time>2023-06-17T16:07:10Z</time></trkpt>
<trkpt lat="46.48064" lon="6.80875"><ele>742</ele><time>2023-06-17T16:07:17Z</time></trkpt>
<trkpt lat="46.48066" lon="6.80871"><ele>742.4</ele><time>2023-06-17T16:07:20Z</time></trkpt>
<trkpt lat="46.48071" lon="6.8086"><ele>742.6</ele><time>2023-06-17T16:07:25Z</time></trkpt>
<trkpt lat="46.48081" lon="6.80848"><ele>743.2</ele><time>2023-06-17T16:07:32Z</time></trkpt>
<trkpt lat="46.48083" lon="6.80846"><ele>743.4</ele><time>2023-06-17T16:07:34Z</time></trkpt>
<trkpt lat="46.4809" lon="6.8084"><ele>743.8</ele><time>2023-06-17T16:07:39Z</time></trkpt>
<trkpt lat="46.48098" lon="6.80834"><ele>744.4</ele><time>2023-06-17T16:07:44Z</time></trkpt>
<trkpt lat="46.48101" lon="6.80831"><ele>744.6</ele><time>2023-06-17T16:07:47Z</time></trkpt>
<trkpt lat="46.48109" lon="6.80826"><ele>745.6</ele><time>2023-06-17T16:07:54Z</time></trkpt>
<trkpt lat="46.48116" lon="6.8082"><ele>746.2</ele><time>2023-06-17T16:08:01Z</time></trkpt>
<trkpt lat="46.48118" lon="6.80818"><ele>746.6</ele><time>2023-06-17T16:08:03Z</time></trkpt>
<trkpt lat="46.48122" lon="6.80812"><ele>747.4</ele><time>2023-06-17T16:08:09Z</time></trkpt>
<trkpt lat="46.48123" lon="6.80809"><ele>747.8</ele><time>2023-06-17T16:08:11Z</time></trkpt>
<trkpt lat="46.48126" lon="6.80806"><ele>748.2</ele><time>2023-06-17T16:08:14Z</time></trkpt>
<trkpt lat="46.48127" lon="6.80804"><ele>748.4</ele><time>2023-06-17T16:08:16Z</time></trkpt>
<trkpt lat="46.48128" lon="6.80802"><ele>748.6</ele><time>2023-06-17T16:08:18Z</time></trkpt>
<trkpt lat="46.4813" lon="6.80801"><ele>748.8</ele><time>2023-06-17T16:08:20Z</time></trkpt>
<trkpt lat="46.48136" lon="6.80796"><ele>749.6</ele><time>2023-06-17T16:08:26Z</time></trkpt>
<trkpt lat="46.48138" lon="6.80794"><ele>750</ele><time>2023-06-17T16:08:29Z</time></trkpt>
<trkpt lat="46.48142" lon="6.80792"><ele>750.6</ele><time>2023-06-17T16:08:33Z</time></trkpt>
<trkpt lat="46.48145" lon="6.80789"><ele>751</ele><time>2023-06-17T16:08:37Z</time></trkpt>
<trkpt lat="46.48148" lon="6.80786"><ele>751.6</ele><time>2023-06-17T16:08:41Z</time></trkpt>
<trkpt lat="46.48153" lon="6.80782"><ele>752</ele><time>2023-06-17T16:08:45Z</time></trkpt>
<trkpt lat="46.48155" lon="6.80778"><ele>752.4</ele><time>2023-06-17T16:08:49Z</time></trkpt>
<trkpt lat="46.48157" lon="6.80776"><ele>753</ele><time>2023-06-17T16:08:52Z</time></trkpt>
<trkpt lat="46.4816" lon="6.80773"><ele>753.4</ele><time>2023-06-17T16:08:56Z</time></trkpt>
<trkpt lat="46.48165" lon="6.80768"><ele>754.2</ele><time>2023-06-17T16:09:01Z</time></trkpt>
<trkpt lat="46.48168" lon="6.80765"><ele>754.6</ele><time>2023-06-17T16:09:05Z</time></trkpt>
<trkpt lat="46.48172" lon="6.80763"><ele>755.2</ele><time>2023-06-17T16:09:08Z</time></trkpt>
<trkpt lat="46.48177" lon="6.80758"><ele>755.8</ele><time>2023-06-17T16:09:13Z</time></trkpt>
<trkpt lat="46.4818" lon="6.80754"><ele>756.2</ele><time>2023-06-17T16:09:17Z</time></trkpt>
<trkpt lat="46.48182" lon="6.80751"><ele>756.8</ele><time>2023-06-17T16:09:21Z</time></trkpt>
<trkpt lat="46.48184" lon="6.80747"><ele>757.4</ele><time>2023-06-17T16:09:25Z</time></trkpt>
<trkpt lat="46.48184" lon="6.80743"><ele>758</ele><time>2023-06-17T16:09:29Z</time></trkpt>
<trkpt lat="46.48184" lon="6.8074"><ele>758.6</ele><time>2023-06-17T16:09:33Z</time></trkpt>
<trkpt lat="46.48185" lon="6.80736"><ele>759.2</ele><time>2023-06-17T16:09:37Z</time></trkpt>
<trkpt lat="46.48188" lon="6.80731"><ele>759.8</ele><time>2023-06-17T16:09:42Z</time></trkpt>
<trkpt lat="46.48192" lon="6.80728"><ele>760.4</ele><time>2023-06-17T16:09:46Z</time></trkpt>
<trkpt lat="46.48194" lon="6.80725"><ele>761</ele><time>2023-06-17T16:09:49Z</time></trkpt>
<trkpt lat="46.48195" lon="6.8072"><ele>761.6</ele><time>2023-06-17T16:09:54Z</time></trkpt>
<trkpt lat="46.48196" lon="6.80717"><ele>762</ele><time>2023-06-17T16:09:57Z</time></trkpt>
<trkpt lat="46.48197" lon="6.80711"><ele>763</ele><time>2023-06-17T16:10:03Z</time></trkpt>
<trkpt lat="46.48197" lon="6.8071"><ele>763</ele><time>2023-06-17T16:10:04Z</time></trkpt>
<trkpt lat="46.48201" lon="6.80703"><ele>764.2</ele><time>2023-06-17T16:10:11Z</time></trkpt>
<trkpt lat="46.48203" lon="6.80694"><ele>765.2</ele><time>2023-06-17T16:10:19Z</time></trkpt>
<trkpt lat="46.48207" lon="6.80685"><ele>766</ele><time>2023-06-17T16:10:26Z</time></trkpt>
<trkpt lat="46.48209" lon="6.80679"><ele>766.2</ele><time>2023-06-17T16:10:29Z</time></trkpt>
<trkpt lat="46.4821" lon="6.80671"><ele>766.8</ele><time>2023-06-17T16:10:34Z</time></trkpt>
<trkpt lat="46.48212" lon="6.80664"><ele>767.2</ele><time>2023-06-17T16:10:39Z</time></trkpt>
<trkpt lat="46.48214" lon="6.80659"><ele>767.6</ele><time>2023-06-17T16:10:42Z</time></trkpt>
<trkpt lat="46.48217" lon="6.80646"><ele>768.4</ele><time>2023-06-17T16:10:48Z</time></trkpt>
<trkpt lat="46.48218" lon="6.80642"><ele>768.8</ele><time>2023-06-17T16:10:50Z</time></trkpt>
<trkpt lat="46.48221" lon="6.80632"><ele>769.4</ele><time>2023-06-17T16:10:56Z</time></trkpt>
<trkpt lat="46.48221" lon="6.80627"><ele>770</ele><time>2023-06-17T16:10:59Z</time></trkpt>
<trkpt lat="46.48224" lon="6.80622"><ele>770.6</ele><time>2023-06-17T16:11:04Z</time></trkpt>
<trkpt lat="46.48225" lon="6.80619"><ele>770.8</ele><time>2023-06-17T16:11:06Z</time></trkpt>
<trkpt lat="46.48228" lon="6.8061"><ele>771.6</ele><time>2023-06-17T16:11:11Z</time></trkpt>
<trkpt lat="46.4823" lon="6.80603"><ele>771.8</ele><time>2023-06-17T16:11:14Z</time></trkpt>
<trkpt lat="46.48235" lon="6.80593"><ele>772.6</ele><time>2023-06-17T16:11:20Z</time></trkpt>
<trkpt lat="46.48236" lon="6.80592"><ele>772.6</ele><time>2023-06-17T16:11:21Z</time></trkpt>
<trkpt lat="46.48242" lon="6.80577"><ele>772.6</ele><time>2023-06-17T16:11:27Z</time></trkpt>
<trkpt lat="46.48249" lon="6.80557"><ele>771.6</ele><time>2023-06-17T16:11:32Z</time></trkpt>
<trkpt lat="46.4825" lon="6.80553"><ele>771.4</ele><time>2023-06-17T16:11:33Z</time></trkpt>
<trkpt lat="46.48256" lon="6.80534"><ele>770.2</ele><time>2023-06-17T16:11:37Z</time></trkpt>
<trkpt lat="46.48262" lon="6.80523"><ele>769</ele><time>2023-06-17T16:11:39Z</time></trkpt>
<trkpt lat="46.48274" lon="6.80499"><ele>767.6</ele><time>2023-06-17T16:11:42Z</time></trkpt>
<trkpt lat="46.48277" lon="6.80491"><ele>766.6</ele><time>2023-06-17T16:11:43Z</time></trkpt>
<trkpt lat="46.48284" lon="6.80477"><ele>765.6</ele><time>2023-06-17T16:11:45Z</time></trkpt>
<trkpt lat="46.48292" lon="6.80461"><ele>764.6</ele><time>2023-06-17T16:11:48Z</time></trkpt>
<trkpt lat="46.48294" lon="6.80454"><ele>764.6</ele><time>2023-06-17T16:11:49Z</time></trkpt>
<trkpt lat="46.48296" lon="6.80446"><ele>764</ele><time>2023-06-17T16:11:50Z</time></trkpt>
<trkpt lat="46.48298" lon="6.80436"><ele>763.2</ele><time>2023-06-17T16:11:51Z</time></trkpt>
<trkpt lat="46.48299" lon="6.80426"><ele>762.8</ele><time>2023-06-17T16:11:52Z</time></trkpt>
<trkpt lat="46.48304" lon="6.80405"><ele>761</ele><time>2023-06-17T16:11:54Z</time></trkpt>
<trkpt lat="46.48313" lon="6.80374"><ele>759.2</ele><time>2023-06-17T16:11:57Z</time></trkpt>
<trkpt lat="46.48315" lon="6.80363"><ele>758.6</ele><time>2023-06-17T16:11:58Z</time></trkpt>
<trkpt lat="46.48316" lon="6.80353"><ele>758.2</ele><time>2023-06-17T16:11:59Z</time></trkpt>
<trkpt lat="46.48319" lon="6.80345"><ele>757.6</ele><time>2023-06-17T16:12:00Z</time></trkpt>
<trkpt lat="46.48322" lon="6.80338"><ele>757.6</ele><time>2023-06-17T16:12:01Z</time></trkpt>
<trkpt lat="46.48331" lon="6.80329"><ele>757.6</ele><time>2023-06-17T16:12:03Z</time></trkpt>
<trkpt lat="46.48336" lon="6.80327"><ele>757.6</ele><time>2023-06-17T16:12:04Z</time></trkpt>
<trkpt lat="46.48341" lon="6.80325"><ele>757.8</ele><time>2023-06-17T16:12:05Z</time></trkpt>
<trkpt lat="46.48352" lon="6.80323"><ele>757.8</ele><time>2023-06-17T16:12:07Z</time></trkpt>
<trkpt lat="46.48361" lon="6.80325"><ele>757.8</ele><time>2023-06-17T16:12:09Z</time></trkpt>
<trkpt lat="46.48366" lon="6.80327"><ele>757.8</ele><time>2023-06-17T16:12:10Z</time></trkpt>
<trkpt lat="46.4838" lon="6.80335"><ele>758</ele><time>2023-06-17T16:12:14Z</time></trkpt>
<trkpt lat="46.48396" lon="6.80344"><ele>759.2</ele><time>2023-06-17T16:12:20Z</time></trkpt>
<trkpt lat="46.48414" lon="6.80353"><ele>760.2</ele><time>2023-06-17T16:12:27Z</time></trkpt>
<trkpt lat="46.48428" lon="6.80359"><ele>760.6</ele><time>2023-06-17T16:12:33Z</time></trkpt>
<trkpt lat="46.48444" lon="6.80355"><ele>760.4</ele><time>2023-06-17T16:12:38Z</time></trkpt>
<trkpt lat="46.48472" lon="6.80341"><ele>760.2</ele><time>2023-06-17T16:12:46Z</time></trkpt>
<trkpt lat="46.48492" lon="6.80336"><ele>760.8</ele><time>2023-06-17T16:12:53Z</time></trkpt>
<trkpt lat="46.48498" lon="6.80335"><ele>761.4</ele><time>2023-06-17T16:12:56Z</time></trkpt>
<trkpt lat="46.48505" lon="6.80333"><ele>762</ele><time>2023-06-17T16:13:00Z</time></trkpt>
<trkpt lat="46.48507" lon="6.80334"><ele>762.4</ele><time>2023-06-17T16:13:02Z</time></trkpt>
<trkpt lat="46.48514" lon="6.80333"><ele>763.2</ele><time>2023-06-17T16:13:06Z</time></trkpt>
<trkpt lat="46.48518" lon="6.80333"><ele>763.6</ele><time>2023-06-17T16:13:08Z</time></trkpt>
<trkpt lat="46.48525" lon="6.80333"><ele>764.6</ele><time>2023-06-17T16:13:12Z</time></trkpt>
<trkpt lat="46.48527" lon="6.80333"><ele>764.8</ele><time>2023-06-17T16:13:13Z</time></trkpt>
<trkpt lat="46.48534" lon="6.80334"><ele>765.6</ele><time>2023-06-17T16:13:17Z</time></trkpt>
<trkpt lat="46.48537" lon="6.80335"><ele>766</ele><time>2023-06-17T16:13:19Z</time></trkpt>
<trkpt lat="46.48547" lon="6.80336"><ele>766.6</ele><time>2023-06-17T16:13:24Z</time></trkpt>
<trkpt lat="46.4855" lon="6.80336"><ele>767</ele><time>2023-06-17T16:13:26Z</time></trkpt>
<trkpt lat="46.48562" lon="6.8034"><ele>767.6</ele><time>2023-06-17T16:13:33Z</time></trkpt>
<trkpt lat="46.4857" lon="6.80342"><ele>768</ele><time>2023-06-17T16:13:37Z</time></trkpt>
<trkpt lat="46.48575" lon="6.80344"><ele>768</ele><time>2023-06-17T16:13:39Z</time></trkpt>
<trkpt lat="46.48593" lon="6.80352"><ele>768.2</ele><time>2023-06-17T16:13:47Z</time></trkpt>
<trkpt lat="46.48606" lon="6.80354"><ele>767.6</ele><time>2023-06-17T16:13:51Z</time></trkpt>
<trkpt lat="46.48613" lon="6.80355"><ele>767.4</ele><time>2023-06-17T16:13:53Z</time></trkpt>
<trkpt lat="46.48617" lon="6.80355"><ele>766.8</ele><time>2023-06-17T16:13:55Z</time></trkpt>
<trkpt lat="46.48619" lon="6.80353"><ele>766.6</ele><time>2023-06-17T16:13:57Z</time></trkpt>
<trkpt lat="46.48616" lon="6.80337"><ele>765.4</ele><time>2023-06-17T16:14:00Z</time></trkpt>
<trkpt lat="46.48615" lon="6.80319"><ele>764.4</ele><time>2023-06-17T16:14:02Z</time></trkpt>
<trkpt lat="46.48614" lon="6.80307"><ele>763.2</ele><time>2023-06-17T16:14:03Z</time></trkpt>
<trkpt lat="46.48614" lon="6.80296"><ele>762.4</ele><time>2023-06-17T16:14:04Z</time></trkpt>
<trkpt lat="46.48613" lon="6.80285"><ele>761.4</ele><time>2023-06-17T16:14:05Z</time></trkpt>
<trkpt lat="46.48616" lon="6.80261"><ele>760.4</ele><time>2023-06-17T16:14:07Z</time></trkpt>
<trkpt lat="46.48617" lon="6.80249"><ele>759.6</ele><time>2023-06-17T16:14:08Z</time></trkpt>
<trkpt lat="46.48618" lon="6.80237"><ele>758.8</ele><time>2023-06-17T16:14:09Z</time></trkpt>
<trkpt lat="46.48618" lon="6.80224"><ele>758.2</ele><time>2023-06-17T16:14:10Z</time></trkpt>
<trkpt lat="46.48618" lon="6.80197"><ele>756.4</ele><time>2023-06-17T16:14:12Z</time></trkpt>
<trkpt lat="46.48617" lon="6.80182"><ele>755.4</ele><time>2023-06-17T16:14:13Z</time></trkpt>
<trkpt lat="46.48615" lon="6.80168"><ele>754.2</ele><time>2023-06-17T16:14:14Z</time></trkpt>
<trkpt lat="46.48613" lon="6.80154"><ele>751.8</ele><time>2023-06-17T16:14:15Z</time></trkpt>
<trkpt lat="46.48609" lon="6.8013"><ele>750.2</ele><time>2023-06-17T16:14:17Z</time></trkpt>
<trkpt lat="46.48604" lon="6.80106"><ele>748</ele><time>2023-06-17T16:14:19Z</time></trkpt>
<trkpt lat="46.48603" lon="6.80094"><ele>746.2</ele><time>2023-06-17T16:14:20Z</time></trkpt>
<trkpt lat="46.48602" lon="6.80083"><ele>745.4</ele><time>2023-06-17T16:14:21Z</time></trkpt>
<trkpt lat="46.486" lon="6.80074"><ele>744.6</ele><time>2023-06-17T16:14:22Z</time></trkpt>
<trkpt lat="46.48598" lon="6.80065"><ele>744</ele><time>2023-06-17T16:14:23Z</time></trkpt>
<trkpt lat="46.48595" lon="6.80056"><ele>743.4</ele><time>2023-06-17T16:14:24Z</time></trkpt>
<trkpt lat="46.48591" lon="6.80048"><ele>742.6</ele><time>2023-06-17T16:14:25Z</time></trkpt>
<trkpt lat="46.48586" lon="6.8004"><ele>742</ele><time>2023-06-17T16:14:26Z</time></trkpt>
<trkpt lat="46.48576" lon="6.80024"><ele>741.4</ele><time>2023-06-17T16:14:28Z</time></trkpt>
<trkpt lat="46.4856" lon="6.79999"><ele>740.8</ele><time>2023-06-17T16:14:31Z</time></trkpt>
<trkpt lat="46.4855" lon="6.79981"><ele>739.6</ele><time>2023-06-17T16:14:33Z</time></trkpt>
<trkpt lat="46.48536" lon="6.79952"><ele>738.2</ele><time>2023-06-17T16:14:36Z</time></trkpt>
<trkpt lat="46.48523" lon="6.79919"><ele>736.4</ele><time>2023-06-17T16:14:39Z</time></trkpt>
<trkpt lat="46.4852" lon="6.79904"><ele>735.4</ele><time>2023-06-17T16:14:40Z</time></trkpt>
<trkpt lat="46.48517" lon="6.79889"><ele>733.8</ele><time>2023-06-17T16:14:41Z</time></trkpt>
<trkpt lat="46.48513" lon="6.79874"><ele>732</ele><time>2023-06-17T16:14:42Z</time></trkpt>
<trkpt lat="46.48508" lon="6.79859"><ele>730.8</ele><time>2023-06-17T16:14:43Z</time></trkpt>
<trkpt lat="46.48502" lon="6.79845"><ele>730.4</ele><time>2023-06-17T16:14:44Z</time></trkpt>
<trkpt lat="46.48494" lon="6.79833"><ele>729.4</ele><time>2023-06-17T16:14:45Z</time></trkpt>
<trkpt lat="46.48485" lon="6.79823"><ele>729</ele><time>2023-06-17T16:14:46Z</time></trkpt>
<trkpt lat="46.48475" lon="6.79815"><ele>727.8</ele><time>2023-06-17T16:14:47Z</time></trkpt>
<trkpt lat="46.48465" lon="6.79809"><ele>726.2</ele><time>2023-06-17T16:14:48Z</time></trkpt>
<trkpt lat="46.48455" lon="6.79804"><ele>724.8</ele><time>2023-06-17T16:14:49Z</time></trkpt>
<trkpt lat="46.48445" lon="6.79801"><ele>724.4</ele><time>2023-06-17T16:14:50Z</time></trkpt>
<trkpt lat="46.48435" lon="6.79798"><ele>724.2</ele><time>2023-06-17T16:14:51Z</time></trkpt>
<trkpt lat="46.48424" lon="6.79796"><ele>723.8</ele><time>2023-06-17T16:14:52Z</time></trkpt>
<trkpt lat="46.48386" lon="6.79785"><ele>722.6</ele><time>2023-06-17T16:14:56Z</time></trkpt>
<trkpt lat="46.48377" lon="6.79782"><ele>722.4</ele><time>2023-06-17T16:14:57Z</time></trkpt>
<trkpt lat="46.48336" lon="6.7977"><ele>722.2</ele><time>2023-06-17T16:15:02Z</time></trkpt>
<trkpt lat="46.48329" lon="6.7977"><ele>722</ele><time>2023-06-17T16:15:03Z</time></trkpt>
<trkpt lat="46.48287" lon="6.79771"><ele>721.6</ele><time>2023-06-17T16:15:09Z</time></trkpt>
<trkpt lat="46.48252" lon="6.79772"><ele>720.2</ele><time>2023-06-17T16:15:14Z</time></trkpt>
<trkpt lat="46.48245" lon="6.79769"><ele>720</ele><time>2023-06-17T16:15:15Z</time></trkpt>
<trkpt lat="46.48238" lon="6.79765"><ele>718.8</ele><time>2023-06-17T16:15:16Z</time></trkpt>
<trkpt lat="46.4823" lon="6.79749"><ele>717.6</ele><time>2023-06-17T16:15:18Z</time></trkpt>
<trkpt lat="46.48218" lon="6.79717"><ele>716.8</ele><time>2023-06-17T16:15:22Z</time></trkpt>
<trkpt lat="46.48217" lon="6.79709"><ele>716.6</ele><time>2023-06-17T16:15:23Z</time></trkpt>
<trkpt lat="46.48217" lon="6.79702"><ele>716.4</ele><time>2023-06-17T16:15:24Z</time></trkpt>
<trkpt lat="46.48222" lon="6.79687"><ele>715.6</ele><time>2023-06-17T16:15:26Z</time></trkpt>
<trkpt lat="46.48226" lon="6.7968"><ele>715</ele><time>2023-06-17T16:15:27Z</time></trkpt>
<trkpt lat="46.48229" lon="6.79675"><ele>715</ele><time>2023-06-17T16:15:28Z</time></trkpt>
<trkpt lat="46.48236" lon="6.79667"><ele>715</ele><time>2023-06-17T16:15:30Z</time></trkpt>
<trkpt lat="46.48249" lon="6.79649"><ele>716.2</ele><time>2023-06-17T16:15:35Z</time></trkpt>
<trkpt lat="46.48252" lon="6.79646"><ele>716.4</ele><time>2023-06-17T16:15:36Z</time></trkpt>
<trkpt lat="46.48256" lon="6.79639"><ele>716.6</ele><time>2023-06-17T16:15:38Z</time></trkpt>
<trkpt lat="46.48264" lon="6.79616"><ele>717.2</ele><time>2023-06-17T16:15:44Z</time></trkpt>
<trkpt lat="46.48265" lon="6.79612"><ele>717.4</ele><time>2023-06-17T16:15:45Z</time></trkpt>
<trkpt lat="46.48273" lon="6.79584"><ele>718.2</ele><time>2023-06-17T16:15:52Z</time></trkpt>
<trkpt lat="46.48274" lon="6.7958"><ele>718.4</ele><time>2023-06-17T16:15:53Z</time></trkpt>
<trkpt lat="46.48282" lon="6.79556"><ele>719.4</ele><time>2023-06-17T16:16:00Z</time></trkpt>
<trkpt lat="46.48283" lon="6.79552"><ele>719.4</ele><time>2023-06-17T16:16:01Z</time></trkpt>
<trkpt lat="46.48292" lon="6.79531"><ele>720.2</ele><time>2023-06-17T16:16:08Z</time></trkpt>
<trkpt lat="46.48301" lon="6.79499"><ele>720.4</ele><time>2023-06-17T16:16:16Z</time></trkpt>
<trkpt lat="46.48317" lon="6.79464"><ele>719.4</ele><time>2023-06-17T16:16:23Z</time></trkpt>
<trkpt lat="46.48327" lon="6.7945"><ele>718.4</ele><time>2023-06-17T16:16:26Z</time></trkpt>
<trkpt lat="46.48337" lon="6.7943"><ele>719</ele><time>2023-06-17T16:16:30Z</time></trkpt>
<trkpt lat="46.48339" lon="6.79425"><ele>719.4</ele><time>2023-06-17T16:16:31Z</time></trkpt>
<trkpt lat="46.48347" lon="6.79413"><ele>719.6</ele><time>2023-06-17T16:16:34Z</time></trkpt>
<trkpt lat="46.48357" lon="6.794"><ele>719.4</ele><time>2023-06-17T16:16:37Z</time></trkpt>
<trkpt lat="46.48385" lon="6.79375"><ele>718.4</ele><time>2023-06-17T16:16:43Z</time></trkpt>
<trkpt lat="46.48392" lon="6.7937"><ele>718</ele><time>2023-06-17T16:16:44Z</time></trkpt>
<trkpt lat="46.48415" lon="6.79357"><ele>716.2</ele><time>2023-06-17T16:16:47Z</time></trkpt>
<trkpt lat="46.48423" lon="6.79351"><ele>715.2</ele><time>2023-06-17T16:16:48Z</time></trkpt>
<trkpt lat="46.48438" lon="6.79338"><ele>714</ele><time>2023-06-17T16:16:50Z</time></trkpt>
<trkpt lat="46.48455" lon="6.79325"><ele>713.4</ele><time>2023-06-17T16:16:52Z</time></trkpt>
<trkpt lat="46.48463" lon="6.79319"><ele>712.8</ele><time>2023-06-17T16:16:53Z</time></trkpt>
<trkpt lat="46.48489" lon="6.79297"><ele>711.6</ele><time>2023-06-17T16:16:56Z</time></trkpt>
<trkpt lat="46.48506" lon="6.79279"><ele>708.8</ele><time>2023-06-17T16:16:58Z</time></trkpt>
<trkpt lat="46.48515" lon="6.79271"><ele>707.8</ele><time>2023-06-17T16:16:59Z</time></trkpt>
<trkpt lat="46.4855" lon="6.79244"><ele>707.2</ele><time>2023-06-17T16:17:03Z</time></trkpt>
<trkpt lat="46.48577" lon="6.79225"><ele>706.4</ele><time>2023-06-17T16:17:06Z</time></trkpt>
<trkpt lat="46.48595" lon="6.79207"><ele>704.6</ele><time>2023-06-17T16:17:08Z</time></trkpt>
<trkpt lat="46.48603" lon="6.79196"><ele>703.2</ele><time>2023-06-17T16:17:09Z</time></trkpt>
<trkpt lat="46.48612" lon="6.79184"><ele>701.2</ele><time>2023-06-17T16:17:10Z</time></trkpt>
<trkpt lat="46.48621" lon="6.79172"><ele>699</ele><time>2023-06-17T16:17:11Z</time></trkpt>
<trkpt lat="46.48629" lon="6.79159"><ele>698.4</ele><time>2023-06-17T16:17:12Z</time></trkpt>
<trkpt lat="46.48637" lon="6.79145"><ele>698</ele><time>2023-06-17T16:17:13Z</time></trkpt>
<trkpt lat="46.48665" lon="6.79102"><ele>697</ele><time>2023-06-17T16:17:17Z</time></trkpt>
<trkpt lat="46.48673" lon="6.79093"><ele>697</ele><time>2023-06-17T16:17:18Z</time></trkpt>
<trkpt lat="46.48703" lon="6.7906"><ele>696.4</ele><time>2023-06-17T16:17:22Z</time></trkpt>
<trkpt lat="46.4872" lon="6.79046"><ele>695</ele><time>2023-06-17T16:17:24Z</time></trkpt>
<trkpt lat="46.48737" lon="6.7903"><ele>693.8</ele><time>2023-06-17T16:17:26Z</time></trkpt>
<trkpt lat="46.48757" lon="6.79015"><ele>692</ele><time>2023-06-17T16:17:28Z</time></trkpt>
<trkpt lat="46.48778" lon="6.79002"><ele>690</ele><time>2023-06-17T16:17:30Z</time></trkpt>
<trkpt lat="46.48799" lon="6.78986"><ele>688.6</ele><time>2023-06-17T16:17:32Z</time></trkpt>
<trkpt lat="46.48819" lon="6.78968"><ele>687</ele><time>2023-06-17T16:17:34Z</time></trkpt>
<trkpt lat="46.48839" lon="6.78952"><ele>685.8</ele><time>2023-06-17T16:17:36Z</time></trkpt>
<trkpt lat="46.48849" lon="6.78947"><ele>685.6</ele><time>2023-06-17T16:17:37Z</time></trkpt>
<trkpt lat="46.48885" lon="6.7893"><ele>686</ele><time>2023-06-17T16:17:41Z</time></trkpt>
<trkpt lat="46.48899" lon="6.78917"><ele>686.2</ele><time>2023-06-17T16:17:43Z</time></trkpt>
<trkpt lat="46.48911" lon="6.78899"><ele>686.6</ele><time>2023-06-17T16:17:45Z</time></trkpt>
<trkpt lat="46.48918" lon="6.7889"><ele>686.4</ele><time>2023-06-17T16:17:46Z</time></trkpt>
<trkpt lat="46.48933" lon="6.78878"><ele>686</ele><time>2023-06-17T16:17:48Z</time></trkpt>
<trkpt lat="46.4894" lon="6.78873"><ele>685.6</ele><time>2023-06-17T16:17:49Z</time></trkpt>
<trkpt lat="46.48953" lon="6.78861"><ele>684.2</ele><time>2023-06-17T16:17:51Z</time></trkpt>
<trkpt lat="46.48957" lon="6.78853"><ele>684.2</ele><time>2023-06-17T16:17:52Z</time></trkpt>
<trkpt lat="46.4896" lon="6.78844"><ele>684.2</ele><time>2023-06-17T16:17:53Z</time></trkpt>
<trkpt lat="46.48966" lon="6.78821"><ele>684.6</ele><time>2023-06-17T16:17:56Z</time></trkpt>
<trkpt lat="46.48967" lon="6.7881"><ele>684.8</ele><time>2023-06-17T16:17:59Z</time></trkpt>
<trkpt lat="46.48966" lon="6.78802"><ele>685.2</ele><time>2023-06-17T16:18:04Z</time></trkpt>
<trkpt lat="46.48965" lon="6.78802"><ele>685.2</ele><time>2023-06-17T16:18:05Z</time></trkpt>
<trkpt lat="46.48965" lon="6.78807"><ele>685</ele><time>2023-06-17T16:18:07Z</time></trkpt>
<trkpt lat="46.48964" lon="6.7881"><ele>684.8</ele><time>2023-06-17T16:18:08Z</time></trkpt>
<trkpt lat="46.48957" lon="6.78812"><ele>684.8</ele><time>2023-06-17T16:18:10Z</time></trkpt>
<trkpt lat="46.48943" lon="6.78807"><ele>684.6</ele><time>2023-06-17T16:18:15Z</time></trkpt>
<trkpt lat="46.48923" lon="6.788"><ele>685.4</ele><time>2023-06-17T16:18:21Z</time></trkpt>
<trkpt lat="46.48903" lon="6.78792"><ele>686.2</ele><time>2023-06-17T16:18:27Z</time></trkpt>
<trkpt lat="46.48897" lon="6.78789"><ele>686.2</ele><time>2023-06-17T16:18:29Z</time></trkpt>
<trkpt lat="46.48873" lon="6.78784"><ele>686</ele><time>2023-06-17T16:18:36Z</time></trkpt>
<trkpt lat="46.48865" lon="6.78783"><ele>685.8</ele><time>2023-06-17T16:18:38Z</time></trkpt>
<trkpt lat="46.48843" lon="6.78783"><ele>685.8</ele><time>2023-06-17T16:18:44Z</time></trkpt>
<trkpt lat="46.48807" lon="6.78784"><ele>685.4</ele><time>2023-06-17T16:18:55Z</time></trkpt>
<trkpt lat="46.48779" lon="6.78788"><ele>684.8</ele><time>2023-06-17T16:19:02Z</time></trkpt>
<trkpt lat="46.4876" lon="6.78791"><ele>684</ele><time>2023-06-17T16:19:06Z</time></trkpt>
<trkpt lat="46.48748" lon="6.78794"><ele>683.4</ele><time>2023-06-17T16:19:08Z</time></trkpt>
<trkpt lat="46.48741" lon="6.78796"><ele>682.8</ele><time>2023-06-17T16:19:09Z</time></trkpt>
<trkpt lat="46.48726" lon="6.788"><ele>681.8</ele><time>2023-06-17T16:19:11Z</time></trkpt>
<trkpt lat="46.48717" lon="6.78803"><ele>680.6</ele><time>2023-06-17T16:19:12Z</time></trkpt>
<trkpt lat="46.48696" lon="6.78809"><ele>679.2</ele><time>2023-06-17T16:19:14Z</time></trkpt>
<trkpt lat="46.48686" lon="6.78812"><ele>678</ele><time>2023-06-17T16:19:15Z</time></trkpt>
<trkpt lat="46.48676" lon="6.78815"><ele>676.2</ele><time>2023-06-17T16:19:16Z</time></trkpt>
<trkpt lat="46.48666" lon="6.78818"><ele>674.2</ele><time>2023-06-17T16:19:17Z</time></trkpt>
<trkpt lat="46.48656" lon="6.78821"><ele>673.4</ele><time>2023-06-17T16:19:18Z</time></trkpt>
<trkpt lat="46.48645" lon="6.78823"><ele>672.6</ele><time>2023-06-17T16:19:19Z</time></trkpt>
<trkpt lat="46.48625" lon="6.78828"><ele>671.4</ele><time>2023-06-17T16:19:21Z</time></trkpt>
<trkpt lat="46.48607" lon="6.78834"><ele>670.8</ele><time>2023-06-17T16:19:23Z</time></trkpt>
<trkpt lat="46.48597" lon="6.78837"><ele>670.4</ele><time>2023-06-17T16:19:24Z</time></trkpt>
<trkpt lat="46.48588" lon="6.78842"><ele>670</ele><time>2023-06-17T16:19:25Z</time></trkpt>
<trkpt lat="46.48563" lon="6.78858"><ele>669</ele><time>2023-06-17T16:19:28Z</time></trkpt>
<trkpt lat="46.48556" lon="6.78866"><ele>668.8</ele><time>2023-06-17T16:19:29Z</time></trkpt>
<trkpt lat="46.48545" lon="6.78883"><ele>667.8</ele><time>2023-06-17T16:19:31Z</time></trkpt>
<trkpt lat="46.4854" lon="6.78892"><ele>667</ele><time>2023-06-17T16:19:32Z</time></trkpt>
<trkpt lat="46.48521" lon="6.78917"><ele>665.8</ele><time>2023-06-17T16:19:35Z</time></trkpt>
<trkpt lat="46.48514" lon="6.78925"><ele>665.4</ele><time>2023-06-17T16:19:36Z</time></trkpt>
<trkpt lat="46.48507" lon="6.78931"><ele>664.8</ele><time>2023-06-17T16:19:37Z</time></trkpt>
<trkpt lat="46.48498" lon="6.78936"><ele>664.4</ele><time>2023-06-17T16:19:38Z</time></trkpt>
<trkpt lat="46.4848" lon="6.78946"><ele>663.2</ele><time>2023-06-17T16:19:40Z</time></trkpt>
<trkpt lat="46.48471" lon="6.78955"><ele>662.4</ele><time>2023-06-17T16:19:41Z</time></trkpt>
<trkpt lat="46.48464" lon="6.78965"><ele>661.6</ele><time>2023-06-17T16:19:42Z</time></trkpt>
<trkpt lat="46.48456" lon="6.78976"><ele>659.8</ele><time>2023-06-17T16:19:43Z</time></trkpt>
<trkpt lat="46.48448" lon="6.78987"><ele>658.2</ele><time>2023-06-17T16:19:44Z</time></trkpt>
<trkpt lat="46.48421" lon="6.79017"><ele>656</ele><time>2023-06-17T16:19:47Z</time></trkpt>
<trkpt lat="46.4841" lon="6.79025"><ele>654.8</ele><time>2023-06-17T16:19:48Z</time></trkpt>
<trkpt lat="46.48399" lon="6.7903"><ele>654.4</ele><time>2023-06-17T16:19:49Z</time></trkpt>
<trkpt lat="46.48388" lon="6.79034"><ele>653.4</ele><time>2023-06-17T16:19:50Z</time></trkpt>
<trkpt lat="46.48378" lon="6.79036"><ele>652.8</ele><time>2023-06-17T16:19:51Z</time></trkpt>
<trkpt lat="46.48368" lon="6.79037"><ele>652.2</ele><time>2023-06-17T16:19:52Z</time></trkpt>
<trkpt lat="46.48348" lon="6.79036"><ele>650.6</ele><time>2023-06-17T16:19:54Z</time></trkpt>
<trkpt lat="46.48339" lon="6.79036"><ele>650.4</ele><time>2023-06-17T16:19:55Z</time></trkpt>
<trkpt lat="46.4832" lon="6.79033"><ele>649.6</ele><time>2023-06-17T16:19:57Z</time></trkpt>
<trkpt lat="46.48311" lon="6.79034"><ele>648.6</ele><time>2023-06-17T16:19:58Z</time></trkpt>
<trkpt lat="46.48302" lon="6.79036"><ele>648.2</ele><time>2023-06-17T16:19:59Z</time></trkpt>
<trkpt lat="46.48293" lon="6.79038"><ele>647.8</ele><time>2023-06-17T16:20:00Z</time></trkpt>
<trkpt lat="46.48284" lon="6.79042"><ele>647.4</ele><time>2023-06-17T16:20:01Z</time></trkpt>
<trkpt lat="46.48259" lon="6.79055"><ele>646.8</ele><time>2023-06-17T16:20:04Z</time></trkpt>
<trkpt lat="46.48252" lon="6.7906"><ele>646.4</ele><time>2023-06-17T16:20:05Z</time></trkpt>
<trkpt lat="46.48231" lon="6.79072"><ele>645.6</ele><time>2023-06-17T16:20:08Z</time></trkpt>
<trkpt lat="46.4822" lon="6.79079"><ele>645.4</ele><time>2023-06-17T16:20:10Z</time></trkpt>
<trkpt lat="46.48212" lon="6.79085"><ele>644.4</ele><time>2023-06-17T16:20:12Z</time></trkpt>
<trkpt lat="46.48208" lon="6.79087"><ele>644</ele><time>2023-06-17T16:20:13Z</time></trkpt>
<trkpt lat="46.48204" lon="6.79088"><ele>642.8</ele><time>2023-06-17T16:20:14Z</time></trkpt>
<trkpt lat="46.482" lon="6.79086"><ele>642.4</ele><time>2023-06-17T16:20:15Z</time></trkpt>
<trkpt lat="46.48197" lon="6.79081"><ele>642</ele><time>2023-06-17T16:20:16Z</time></trkpt>
<trkpt lat="46.48199" lon="6.79073"><ele>641.2</ele><time>2023-06-17T16:20:17Z</time></trkpt>
<trkpt lat="46.48202" lon="6.79066"><ele>640.2</ele><time>2023-06-17T16:20:18Z</time></trkpt>
<trkpt lat="46.48204" lon="6.79057"><ele>640</ele><time>2023-06-17T16:20:19Z</time></trkpt>
<trkpt lat="46.48211" lon="6.79036"><ele>638.4</ele><time>2023-06-17T16:20:21Z</time></trkpt>
<trkpt lat="46.48214" lon="6.79025"><ele>637.4</ele><time>2023-06-17T16:20:22Z</time></trkpt>
<trkpt lat="46.48215" lon="6.79013"><ele>636.8</ele><time>2023-06-17T16:20:23Z</time></trkpt>
<trkpt lat="46.48217" lon="6.79"><ele>635.6</ele><time>2023-06-17T16:20:24Z</time></trkpt>
<trkpt lat="46.48218" lon="6.78976"><ele>634.4</ele><time>2023-06-17T16:20:26Z</time></trkpt>
<trkpt lat="46.48218" lon="6.78947"><ele>634.4</ele><time>2023-06-17T16:20:29Z</time></trkpt>
<trkpt lat="46.48219" lon="6.7894"><ele>634.4</ele><time>2023-06-17T16:20:30Z</time></trkpt>
<trkpt lat="46.48223" lon="6.78912"><ele>634.8</ele><time>2023-06-17T16:20:35Z</time></trkpt>
<trkpt lat="46.48229" lon="6.78868"><ele>634.2</ele><time>2023-06-17T16:20:41Z</time></trkpt>
<trkpt lat="46.48232" lon="6.7885"><ele>633.2</ele><time>2023-06-17T16:20:43Z</time></trkpt>
<trkpt lat="46.48239" lon="6.78822"><ele>632</ele><time>2023-06-17T16:20:46Z</time></trkpt>
<trkpt lat="46.48242" lon="6.78812"><ele>631.4</ele><time>2023-06-17T16:20:47Z</time></trkpt>
<trkpt lat="46.48246" lon="6.78802"><ele>630.8</ele><time>2023-06-17T16:20:48Z</time></trkpt>
<trkpt lat="46.48256" lon="6.78782"><ele>629.2</ele><time>2023-06-17T16:20:50Z</time></trkpt>
<trkpt lat="46.4826" lon="6.78771"><ele>628</ele><time>2023-06-17T16:20:51Z</time></trkpt>
<trkpt lat="46.48268" lon="6.78748"><ele>626.8</ele><time>2023-06-17T16:20:53Z</time></trkpt>
<trkpt lat="46.48279" lon="6.78713"><ele>625.2</ele><time>2023-06-17T16:20:56Z</time></trkpt>
<trkpt lat="46.48283" lon="6.787"><ele>624.6</ele><time>2023-06-17T16:20:57Z</time></trkpt>
<trkpt lat="46.48285" lon="6.78687"><ele>623.4</ele><time>2023-06-17T16:20:58Z</time></trkpt>
<trkpt lat="46.48285" lon="6.78657"><ele>620.8</ele><time>2023-06-17T16:21:00Z</time></trkpt>
<trkpt lat="46.48283" lon="6.78643"><ele>619.4</ele><time>2023-06-17T16:21:01Z</time></trkpt>
<trkpt lat="46.48281" lon="6.78629"><ele>618.6</ele><time>2023-06-17T16:21:02Z</time></trkpt>
<trkpt lat="46.48277" lon="6.78617"><ele>618.4</ele><time>2023-06-17T16:21:03Z</time></trkpt>
<trkpt lat="46.48273" lon="6.78608"><ele>618.4</ele><time>2023-06-17T16:21:04Z</time></trkpt>
<trkpt lat="46.48266" lon="6.78591"><ele>618.6</ele><time>2023-06-17T16:21:06Z</time></trkpt>
<trkpt lat="46.48259" lon="6.78579"><ele>619.8</ele><time>2023-06-17T16:21:09Z</time></trkpt>
<trkpt lat="46.48255" lon="6.78575"><ele>619.8</ele><time>2023-06-17T16:21:12Z</time></trkpt>
<trkpt lat="46.48253" lon="6.78577"><ele>619.8</ele><time>2023-06-17T16:21:13Z</time></trkpt>
<trkpt lat="46.4825" lon="6.7859"><ele>619.6</ele><time>2023-06-17T16:21:16Z</time></trkpt>
<trkpt lat="46.48249" lon="6.78598"><ele>619.2</ele><time>2023-06-17T16:21:17Z</time></trkpt>
<trkpt lat="46.48247" lon="6.78618"><ele>618.6</ele><time>2023-06-17T16:21:19Z</time></trkpt>
<trkpt lat="46.48247" lon="6.78629"><ele>617.8</ele><time>2023-06-17T16:21:20Z</time></trkpt>
<trkpt lat="46.48245" lon="6.78641"><ele>617.2</ele><time>2023-06-17T16:21:21Z</time></trkpt>
<trkpt lat="46.48242" lon="6.78653"><ele>616</ele><time>2023-06-17T16:21:22Z</time></trkpt>
<trkpt lat="46.48236" lon="6.78663"><ele>615</ele><time>2023-06-17T16:21:23Z</time></trkpt>
<trkpt lat="46.48218" lon="6.78678"><ele>614.2</ele><time>2023-06-17T16:21:25Z</time></trkpt>
<trkpt lat="46.48208" lon="6.78684"><ele>612.2</ele><time>2023-06-17T16:21:26Z</time></trkpt>
<trkpt lat="46.48198" lon="6.7869"><ele>610.8</ele><time>2023-06-17T16:21:27Z</time></trkpt>
<trkpt lat="46.48198" lon="6.7869"><ele>610.8</ele><time>2023-06-17T16:21:27Z</time></trkpt>
<trkpt lat="46.48198" lon="6.7869"><ele>610.8</ele><time>2023-06-17T16:21:27Z</time></trkpt>
<trkpt lat="46.48162" lon="6.78721"><ele>607</ele><time>2023-06-17T16:21:31Z</time></trkpt>
<trkpt lat="46.48155" lon="6.7873"><ele>606.6</ele><time>2023-06-17T16:21:32Z</time></trkpt>
<trkpt lat="46.48149" lon="6.78742"><ele>604.8</ele><time>2023-06-17T16:21:33Z</time></trkpt>
<trkpt lat="46.48144" lon="6.78757"><ele>602.2</ele><time>2023-06-17T16:21:34Z</time></trkpt>
<trkpt lat="46.48139" lon="6.78772"><ele>601</ele><time>2023-06-17T16:21:35Z</time></trkpt>
<trkpt lat="46.48134" lon="6.78787"><ele>599.6</ele><time>2023-06-17T16:21:36Z</time></trkpt>
<trkpt lat="46.48124" lon="6.78816"><ele>597.8</ele><time>2023-06-17T16:21:38Z</time></trkpt>
<trkpt lat="46.48114" lon="6.78844"><ele>594.8</ele><time>2023-06-17T16:21:40Z</time></trkpt>
<trkpt lat="46.48109" lon="6.78857"><ele>593.8</ele><time>2023-06-17T16:21:41Z</time></trkpt>
<trkpt lat="46.48097" lon="6.78881"><ele>590.8</ele><time>2023-06-17T16:21:43Z</time></trkpt>
<trkpt lat="46.48084" lon="6.78897"><ele>589.8</ele><time>2023-06-17T16:21:45Z</time></trkpt>
<trkpt lat="46.48069" lon="6.78894"><ele>589.4</ele><time>2023-06-17T16:21:47Z</time></trkpt>
<trkpt lat="46.48069" lon="6.78877"><ele>589.2</ele><time>2023-06-17T16:21:49Z</time></trkpt>
<trkpt lat="46.48078" lon="6.78854"><ele>588.4</ele><time>2023-06-17T16:21:52Z</time></trkpt>
<trkpt lat="46.4808" lon="6.78846"><ele>588</ele><time>2023-06-17T16:21:53Z</time></trkpt>
<trkpt lat="46.48082" lon="6.78837"><ele>587.4</ele><time>2023-06-17T16:21:54Z</time></trkpt>
<trkpt lat="46.48085" lon="6.7881"><ele>586.2</ele><time>2023-06-17T16:21:57Z</time></trkpt>
<trkpt lat="46.48086" lon="6.788"><ele>586</ele><time>2023-06-17T16:21:58Z</time></trkpt>
<trkpt lat="46.48086" lon="6.7879"><ele>586</ele><time>2023-06-17T16:21:59Z</time></trkpt>
<trkpt lat="46.48083" lon="6.7874"><ele>584.8</ele><time>2023-06-17T16:22:04Z</time></trkpt>
<trkpt lat="46.48082" lon="6.7873"><ele>583.8</ele><time>2023-06-17T16:22:05Z</time></trkpt>
<trkpt lat="46.48078" lon="6.78664"><ele>583.4</ele><time>2023-06-17T16:22:12Z</time></trkpt>
<trkpt lat="46.48074" lon="6.78611"><ele>583.2</ele><time>2023-06-17T16:22:17Z</time></trkpt>
<trkpt lat="46.48069" lon="6.78563"><ele>582.6</ele><time>2023-06-17T16:22:21Z</time></trkpt>
<trkpt lat="46.48068" lon="6.78539"><ele>582</ele><time>2023-06-17T16:22:23Z</time></trkpt>
<trkpt lat="46.48064" lon="6.78502"><ele>581.2</ele><time>2023-06-17T16:22:26Z</time></trkpt>
<trkpt lat="46.48063" lon="6.7845"><ele>580.8</ele><time>2023-06-17T16:22:30Z</time></trkpt>
<trkpt lat="46.48068" lon="6.78426"><ele>580.4</ele><time>2023-06-17T16:22:32Z</time></trkpt>
<trkpt lat="46.48075" lon="6.78405"><ele>580.6</ele><time>2023-06-17T16:22:34Z</time></trkpt>
<trkpt lat="46.48079" lon="6.78396"><ele>580.6</ele><time>2023-06-17T16:22:35Z</time></trkpt>
<trkpt lat="46.48091" lon="6.78373"><ele>581.2</ele><time>2023-06-17T16:22:38Z</time></trkpt>
<trkpt lat="46.48109" lon="6.7834"><ele>582.4</ele><time>2023-06-17T16:22:43Z</time></trkpt>
<trkpt lat="46.48112" lon="6.78334"><ele>582.6</ele><time>2023-06-17T16:22:44Z</time></trkpt>
<trkpt lat="46.48115" lon="6.78328"><ele>582.8</ele><time>2023-06-17T16:22:45Z</time></trkpt>
<trkpt lat="46.48118" lon="6.78323"><ele>583</ele><time>2023-06-17T16:22:46Z</time></trkpt>
<trkpt lat="46.4812" lon="6.78317"><ele>583.2</ele><time>2023-06-17T16:22:47Z</time></trkpt>
<trkpt lat="46.48123" lon="6.78312"><ele>583.4</ele><time>2023-06-17T16:22:48Z</time></trkpt>
<trkpt lat="46.48129" lon="6.783"><ele>583.6</ele><time>2023-06-17T16:22:50Z</time></trkpt>
<trkpt lat="46.48137" lon="6.78283"><ele>584</ele><time>2023-06-17T16:22:53Z</time></trkpt>
<trkpt lat="46.48142" lon="6.78272"><ele>584.6</ele><time>2023-06-17T16:22:55Z</time></trkpt>
<trkpt lat="46.48147" lon="6.78255"><ele>584.8</ele><time>2023-06-17T16:22:58Z</time></trkpt>
<trkpt lat="46.48148" lon="6.7825"><ele>585</ele><time>2023-06-17T16:22:59Z</time></trkpt>
<trkpt lat="46.4815" lon="6.78221"><ele>585.8</ele><time>2023-06-17T16:23:04Z</time></trkpt>
<trkpt lat="46.4815" lon="6.78209"><ele>585.8</ele><time>2023-06-17T16:23:06Z</time></trkpt>
<trkpt lat="46.48156" lon="6.78147"><ele>586.8</ele><time>2023-06-17T16:23:18Z</time></trkpt>
<trkpt lat="46.48166" lon="6.78136"><ele>587.4</ele><time>2023-06-17T16:23:22Z</time></trkpt>
<trkpt lat="46.48167" lon="6.78131"><ele>587.8</ele><time>2023-06-17T16:23:25Z</time></trkpt>
<trkpt lat="46.48168" lon="6.78126"><ele>588</ele><time>2023-06-17T16:23:27Z</time></trkpt>
<trkpt lat="46.48173" lon="6.78118"><ele>589</ele><time>2023-06-17T16:23:32Z</time></trkpt>
<trkpt lat="46.48175" lon="6.78114"><ele>589.4</ele><time>2023-06-17T16:23:34Z</time></trkpt>
<trkpt lat="46.48177" lon="6.78107"><ele>590</ele><time>2023-06-17T16:23:37Z</time></trkpt>
<trkpt lat="46.48183" lon="6.78096"><ele>591</ele><time>2023-06-17T16:23:42Z</time></trkpt>
<trkpt lat="46.48184" lon="6.78094"><ele>591.2</ele><time>2023-06-17T16:23:43Z</time></trkpt>
<trkpt lat="46.48188" lon="6.78086"><ele>592.2</ele><time>2023-06-17T16:23:47Z</time></trkpt>
<trkpt lat="46.48194" lon="6.78074"><ele>593.2</ele><time>2023-06-17T16:23:52Z</time></trkpt>
<trkpt lat="46.48193" lon="6.78073"><ele>593.2</ele><time>2023-06-17T16:23:53Z</time></trkpt>
<trkpt lat="46.48193" lon="6.78069"><ele>593.6</ele><time>2023-06-17T16:23:58Z</time></trkpt>
<trkpt lat="46.48196" lon="6.78062"><ele>593.8</ele><time>2023-06-17T16:24:04Z</time></trkpt>
<trkpt lat="46.48196" lon="6.78062"><ele>594</ele><time>2023-06-17T16:24:18Z</time></trkpt>
<trkpt lat="46.48196" lon="6.78062"><ele>593.8</ele><time>2023-06-17T16:24:22Z</time></trkpt>
<trkpt lat="46.48196" lon="6.78062"><ele>593.8</ele><time>2023-06-17T16:24:31Z</time></trkpt>
<trkpt lat="46.48196" lon="6.78062"><ele>593.8</ele><time>2023-06-17T16:24:38Z</time></trkpt>
<trkpt lat="46.48196" lon="6.78062"><ele>593.6</ele><time>2023-06-17T16:24:43Z</time></trkpt>
<trkpt lat="46.48196" lon="6.78062"><ele>593.6</ele><time>2023-06-17T16:24:46Z</time></trkpt>
<trkpt lat="46.48196" lon="6.78062"><ele>593.6</ele><time>2023-06-17T16:24:52Z</time></trkpt>
<trkpt lat="46.48196" lon="6.78062"><ele>593.4</ele><time>2023-06-17T16:24:58Z</time></trkpt>
<trkpt lat="46.48196" lon="6.78062"><ele>593.4</ele><time>2023-06-17T16:25:01Z</time></trkpt>
<trkpt lat="46.48197" lon="6.78062"><ele>593.4</ele><time>2023-06-17T16:25:03Z</time></trkpt>
<trkpt lat="46.48197" lon="6.78061"><ele>593</ele><time>2023-06-17T16:25:16Z</time></trkpt>
<trkpt lat="46.48202" lon="6.78059"><ele>593</ele><time>2023-06-17T16:25:19Z</time></trkpt>
<trkpt lat="46.48212" lon="6.78047"><ele>593</ele><time>2023-06-17T16:25:24Z</time></trkpt>
<trkpt lat="46.48218" lon="6.78038"><ele>593.4</ele><time>2023-06-17T16:25:27Z</time></trkpt>
<trkpt lat="46.48227" lon="6.78024"><ele>594</ele><time>2023-06-17T16:25:32Z</time></trkpt>
<trkpt lat="46.48231" lon="6.78017"><ele>594.2</ele><time>2023-06-17T16:25:34Z</time></trkpt>
<trkpt lat="46.4824" lon="6.78004"><ele>595.2</ele><time>2023-06-17T16:25:38Z</time></trkpt>
<trkpt lat="46.48243" lon="6.78001"><ele>595.4</ele><time>2023-06-17T16:25:39Z</time></trkpt>
<trkpt lat="46.4825" lon="6.77989"><ele>596.4</ele><time>2023-06-17T16:25:43Z</time></trkpt>
<trkpt lat="46.48252" lon="6.77987"><ele>596.6</ele><time>2023-06-17T16:25:44Z</time></trkpt>
<trkpt lat="46.48259" lon="6.77976"><ele>597.4</ele><time>2023-06-17T16:25:48Z</time></trkpt>
<trkpt lat="46.48264" lon="6.7797"><ele>598.2</ele><time>2023-06-17T16:25:51Z</time></trkpt>
<trkpt lat="46.48266" lon="6.77967"><ele>598.6</ele><time>2023-06-17T16:25:52Z</time></trkpt>
<trkpt lat="46.48274" lon="6.77956"><ele>599.6</ele><time>2023-06-17T16:25:56Z</time></trkpt>
<trkpt lat="46.48275" lon="6.77954"><ele>600</ele><time>2023-06-17T16:25:57Z</time></trkpt>
<trkpt lat="46.48276" lon="6.77951"><ele>600.4</ele><time>2023-06-17T16:25:58Z</time></trkpt>
<trkpt lat="46.48283" lon="6.7794"><ele>600.8</ele><time>2023-06-17T16:26:02Z</time></trkpt>
<trkpt lat="46.48286" lon="6.77928"><ele>600.8</ele><time>2023-06-17T16:26:05Z</time></trkpt>
<trkpt lat="46.48287" lon="6.77917"><ele>600.4</ele><time>2023-06-17T16:26:07Z</time></trkpt>
<trkpt lat="46.48285" lon="6.77902"><ele>599.8</ele><time>2023-06-17T16:26:09Z</time></trkpt>
<trkpt lat="46.48284" lon="6.77884"><ele>598.2</ele><time>2023-06-17T16:26:11Z</time></trkpt>
<trkpt lat="46.4828" lon="6.77849"><ele>597</ele><time>2023-06-17T16:26:15Z</time></trkpt>
<trkpt lat="46.48277" lon="6.77833"><ele>596.4</ele><time>2023-06-17T16:26:18Z</time></trkpt>
<trkpt lat="46.48273" lon="6.77814"><ele>596</ele><time>2023-06-17T16:26:21Z</time></trkpt>
<trkpt lat="46.48271" lon="6.778"><ele>595.2</ele><time>2023-06-17T16:26:23Z</time></trkpt>
<trkpt lat="46.4827" lon="6.77793"><ele>594.6</ele><time>2023-06-17T16:26:24Z</time></trkpt>
<trkpt lat="46.48267" lon="6.77771"><ele>593.8</ele><time>2023-06-17T16:26:28Z</time></trkpt>
<trkpt lat="46.48268" lon="6.77766"><ele>593.4</ele><time>2023-06-17T16:26:30Z</time></trkpt>
<trkpt lat="46.48269" lon="6.77762"><ele>593.2</ele><time>2023-06-17T16:26:31Z</time></trkpt>
<trkpt lat="46.48275" lon="6.77747"><ele>592.4</ele><time>2023-06-17T16:26:34Z</time></trkpt>
<trkpt lat="46.48278" lon="6.77741"><ele>592.2</ele><time>2023-06-17T16:26:35Z</time></trkpt>
<trkpt lat="46.4828" lon="6.77732"><ele>592</ele><time>2023-06-17T16:26:36Z</time></trkpt>
<trkpt lat="46.48288" lon="6.77706"><ele>591.2</ele><time>2023-06-17T16:26:39Z</time></trkpt>
<trkpt lat="46.48291" lon="6.77696"><ele>590.6</ele><time>2023-06-17T16:26:40Z</time></trkpt>
<trkpt lat="46.48293" lon="6.77686"><ele>590.4</ele><time>2023-06-17T16:26:41Z</time></trkpt>
<trkpt lat="46.48298" lon="6.77667"><ele>589.4</ele><time>2023-06-17T16:26:43Z</time></trkpt>
<trkpt lat="46.48301" lon="6.77658"><ele>589</ele><time>2023-06-17T16:26:44Z</time></trkpt>
<trkpt lat="46.48306" lon="6.77642"><ele>588.4</ele><time>2023-06-17T16:26:46Z</time></trkpt>
<trkpt lat="46.4831" lon="6.7763"><ele>587.8</ele><time>2023-06-17T16:26:48Z</time></trkpt>
<trkpt lat="46.48312" lon="6.77621"><ele>587</ele><time>2023-06-17T16:26:51Z</time></trkpt>
<trkpt lat="46.48313" lon="6.77619"><ele>587</ele><time>2023-06-17T16:26:52Z</time></trkpt>
<trkpt lat="46.48314" lon="6.77615"><ele>586.8</ele><time>2023-06-17T16:26:54Z</time></trkpt>
<trkpt lat="46.48316" lon="6.77607"><ele>586.4</ele><time>2023-06-17T16:26:59Z</time></trkpt>
<trkpt lat="46.4832" lon="6.77592"><ele>586.4</ele><time>2023-06-17T16:27:08Z</time></trkpt>
<trkpt lat="46.48327" lon="6.77577"><ele>586.6</ele><time>2023-06-17T16:27:14Z</time></trkpt>
<trkpt lat="46.48334" lon="6.7756"><ele>586.6</ele><time>2023-06-17T16:27:19Z</time></trkpt>
<trkpt lat="46.48343" lon="6.7753"><ele>587.6</ele><time>2023-06-17T16:27:27Z</time></trkpt>
<trkpt lat="46.48349" lon="6.77514"><ele>588.2</ele><time>2023-06-17T16:27:32Z</time></trkpt>
<trkpt lat="46.48358" lon="6.77491"><ele>589.4</ele><time>2023-06-17T16:27:39Z</time></trkpt>
<trkpt lat="46.48365" lon="6.77471"><ele>590.6</ele><time>2023-06-17T16:27:45Z</time></trkpt>
<trkpt lat="46.48369" lon="6.77461"><ele>591.2</ele><time>2023-06-17T16:27:48Z</time></trkpt>
<trkpt lat="46.48371" lon="6.77455"><ele>591.8</ele><time>2023-06-17T16:27:50Z</time></trkpt>
<trkpt lat="46.48376" lon="6.77441"><ele>592.8</ele><time>2023-06-17T16:27:54Z</time></trkpt>
<trkpt lat="46.48385" lon="6.77429"><ele>593.6</ele><time>2023-06-17T16:27:59Z</time></trkpt>
<trkpt lat="46.4839" lon="6.77426"><ele>593.8</ele><time>2023-06-17T16:28:01Z</time></trkpt>
<trkpt lat="46.48402" lon="6.77421"><ele>594.8</ele><time>2023-06-17T16:28:06Z</time></trkpt>
<trkpt lat="46.48405" lon="6.7742"><ele>595</ele><time>2023-06-17T16:28:07Z</time></trkpt>
<trkpt lat="46.48419" lon="6.77416"><ele>596</ele><time>2023-06-17T16:28:13Z</time></trkpt>
<trkpt lat="46.48424" lon="6.77414"><ele>596.4</ele><time>2023-06-17T16:28:15Z</time></trkpt>
<trkpt lat="46.48432" lon="6.77412"><ele>596.8</ele><time>2023-06-17T16:28:18Z</time></trkpt>
<trkpt lat="46.48434" lon="6.77412"><ele>597</ele><time>2023-06-17T16:28:19Z</time></trkpt>
<trkpt lat="46.48447" lon="6.7741"><ele>598</ele><time>2023-06-17T16:28:24Z</time></trkpt>
<trkpt lat="46.48449" lon="6.77409"><ele>598.2</ele><time>2023-06-17T16:28:25Z</time></trkpt>
<trkpt lat="46.48459" lon="6.77404"><ele>599.2</ele><time>2023-06-17T16:28:29Z</time></trkpt>
<trkpt lat="46.48468" lon="6.77395"><ele>599.6</ele><time>2023-06-17T16:28:33Z</time></trkpt>
<trkpt lat="46.48476" lon="6.77385"><ele>600.2</ele><time>2023-06-17T16:28:37Z</time></trkpt>
<trkpt lat="46.48488" lon="6.77365"><ele>600.8</ele><time>2023-06-17T16:28:44Z</time></trkpt>
<trkpt lat="46.48491" lon="6.77359"><ele>601.4</ele><time>2023-06-17T16:28:46Z</time></trkpt>
<trkpt lat="46.48503" lon="6.77342"><ele>602.4</ele><time>2023-06-17T16:28:52Z</time></trkpt>
<trkpt lat="46.4851" lon="6.7733"><ele>603.2</ele><time>2023-06-17T16:28:56Z</time></trkpt>
<trkpt lat="46.48514" lon="6.77323"><ele>603.4</ele><time>2023-06-17T16:28:58Z</time></trkpt>
<trkpt lat="46.48531" lon="6.77298"><ele>604.6</ele><time>2023-06-17T16:29:06Z</time></trkpt>
<trkpt lat="46.48533" lon="6.77295"><ele>604.6</ele><time>2023-06-17T16:29:07Z</time></trkpt>
<trkpt lat="46.48548" lon="6.77271"><ele>605.6</ele><time>2023-06-17T16:29:14Z</time></trkpt>
<trkpt lat="46.48556" lon="6.77257"><ele>606</ele><time>2023-06-17T16:29:18Z</time></trkpt>
<trkpt lat="46.48573" lon="6.77232"><ele>606.6</ele><time>2023-06-17T16:29:25Z</time></trkpt>
<trkpt lat="46.48587" lon="6.77213"><ele>607</ele><time>2023-06-17T16:29:30Z</time></trkpt>
<trkpt lat="46.48617" lon="6.77172"><ele>607.2</ele><time>2023-06-17T16:29:41Z</time></trkpt>
<trkpt lat="46.48644" lon="6.77143"><ele>606.8</ele><time>2023-06-17T16:29:48Z</time></trkpt>
<trkpt lat="46.48678" lon="6.77109"><ele>606.4</ele><time>2023-06-17T16:29:55Z</time></trkpt>
<trkpt lat="46.48705" lon="6.77092"><ele>605.4</ele><time>2023-06-17T16:29:59Z</time></trkpt>
<trkpt lat="46.48714" lon="6.77089"><ele>605.2</ele><time>2023-06-17T16:30:00Z</time></trkpt>
<trkpt lat="46.48714" lon="6.77089"><ele>605.2</ele><time>2023-06-17T16:30:00Z</time></trkpt>
<trkpt lat="46.48773" lon="6.77059"><ele>603.2</ele><time>2023-06-17T16:30:07Z</time></trkpt>
<trkpt lat="46.48782" lon="6.77054"><ele>602.6</ele><time>2023-06-17T16:30:08Z</time></trkpt>
<trkpt lat="46.48791" lon="6.7705"><ele>602</ele><time>2023-06-17T16:30:09Z</time></trkpt>
<trkpt lat="46.48815" lon="6.77042"><ele>601</ele><time>2023-06-17T16:30:12Z</time></trkpt>
<trkpt lat="46.48824" lon="6.7704"><ele>600.8</ele><time>2023-06-17T16:30:13Z</time></trkpt>
<trkpt lat="46.48862" lon="6.77039"><ele>601</ele><time>2023-06-17T16:30:18Z</time></trkpt>
<trkpt lat="46.48899" lon="6.77039"><ele>601.4</ele><time>2023-06-17T16:30:23Z</time></trkpt>
<trkpt lat="46.48906" lon="6.77039"><ele>601.4</ele><time>2023-06-17T16:30:24Z</time></trkpt>
<trkpt lat="46.48936" lon="6.77035"><ele>602.2</ele><time>2023-06-17T16:30:28Z</time></trkpt>
<trkpt lat="46.48972" lon="6.77025"><ele>602.2</ele><time>2023-06-17T16:30:33Z</time></trkpt>
<trkpt lat="46.49028" lon="6.77"><ele>602.2</ele><time>2023-06-17T16:30:41Z</time></trkpt>
<trkpt lat="46.49041" lon="6.76994"><ele>602</ele><time>2023-06-17T16:30:43Z</time></trkpt>
<trkpt lat="46.49061" lon="6.76984"><ele>602</ele><time>2023-06-17T16:30:47Z</time></trkpt>
<trkpt lat="46.49068" lon="6.76983"><ele>602.4</ele><time>2023-06-17T16:30:51Z</time></trkpt>
<trkpt lat="46.49075" lon="6.76986"><ele>602.4</ele><time>2023-06-17T16:30:53Z</time></trkpt>
<trkpt lat="46.49085" lon="6.76984"><ele>602.4</ele><time>2023-06-17T16:30:55Z</time></trkpt>
<trkpt lat="46.49102" lon="6.76967"><ele>602.4</ele><time>2023-06-17T16:30:59Z</time></trkpt>
<trkpt lat="46.49134" lon="6.76947"><ele>602.4</ele><time>2023-06-17T16:31:05Z</time></trkpt>
<trkpt lat="46.49185" lon="6.76921"><ele>602.6</ele><time>2023-06-17T16:31:14Z</time></trkpt>
<trkpt lat="46.49192" lon="6.7692"><ele>602.6</ele><time>2023-06-17T16:31:15Z</time></trkpt>
<trkpt lat="46.49203" lon="6.76917"><ele>602.8</ele><time>2023-06-17T16:31:17Z</time></trkpt>
<trkpt lat="46.49208" lon="6.76912"><ele>602.8</ele><time>2023-06-17T16:31:18Z</time></trkpt>
<trkpt lat="46.49219" lon="6.76904"><ele>602.8</ele><time>2023-06-17T16:31:20Z</time></trkpt>
<trkpt lat="46.49236" lon="6.76896"><ele>603</ele><time>2023-06-17T16:31:23Z</time></trkpt>
<trkpt lat="46.49259" lon="6.76886"><ele>603.2</ele><time>2023-06-17T16:31:27Z</time></trkpt>
<trkpt lat="46.49285" lon="6.76872"><ele>604</ele><time>2023-06-17T16:31:32Z</time></trkpt>
<trkpt lat="46.49311" lon="6.76858"><ele>604.4</ele><time>2023-06-17T16:31:37Z</time></trkpt>
<trkpt lat="46.49326" lon="6.76853"><ele>604.4</ele><time>2023-06-17T16:31:40Z</time></trkpt>
<trkpt lat="46.4936" lon="6.76841"><ele>604.8</ele><time>2023-06-17T16:31:47Z</time></trkpt>
<trkpt lat="46.49392" lon="6.76838"><ele>605</ele><time>2023-06-17T16:31:53Z</time></trkpt>
<trkpt lat="46.49422" lon="6.7684"><ele>605.4</ele><time>2023-06-17T16:31:59Z</time></trkpt>
<trkpt lat="46.49427" lon="6.76841"><ele>605.6</ele><time>2023-06-17T16:32:00Z</time></trkpt>
<trkpt lat="46.49446" lon="6.76844"><ele>606</ele><time>2023-06-17T16:32:04Z</time></trkpt>
<trkpt lat="46.49456" lon="6.76849"><ele>606.2</ele><time>2023-06-17T16:32:06Z</time></trkpt>
<trkpt lat="46.49461" lon="6.76847"><ele>606.2</ele><time>2023-06-17T16:32:07Z</time></trkpt>
<trkpt lat="46.49465" lon="6.76843"><ele>606.2</ele><time>2023-06-17T16:32:08Z</time></trkpt>
<trkpt lat="46.49466" lon="6.76836"><ele>606.4</ele><time>2023-06-17T16:32:09Z</time></trkpt>
<trkpt lat="46.49464" lon="6.76829"><ele>606.4</ele><time>2023-06-17T16:32:10Z</time></trkpt>
<trkpt lat="46.49461" lon="6.76825"><ele>606.6</ele><time>2023-06-17T16:32:11Z</time></trkpt>
<trkpt lat="46.49454" lon="6.76812"><ele>606.8</ele><time>2023-06-17T16:32:14Z</time></trkpt>
<trkpt lat="46.4945" lon="6.76805"><ele>607.8</ele><time>2023-06-17T16:32:16Z</time></trkpt>
<trkpt lat="46.49444" lon="6.76792"><ele>608.6</ele><time>2023-06-17T16:32:20Z</time></trkpt>
<trkpt lat="46.49438" lon="6.7678"><ele>608.8</ele><time>2023-06-17T16:32:24Z</time></trkpt>
<trkpt lat="46.49434" lon="6.76766"><ele>609.6</ele><time>2023-06-17T16:32:28Z</time></trkpt>
<trkpt lat="46.49433" lon="6.76763"><ele>609.8</ele><time>2023-06-17T16:32:29Z</time></trkpt>
<trkpt lat="46.49427" lon="6.76735"><ele>610.8</ele><time>2023-06-17T16:32:37Z</time></trkpt>
<trkpt lat="46.49427" lon="6.76732"><ele>611</ele><time>2023-06-17T16:32:38Z</time></trkpt>
<trkpt lat="46.49425" lon="6.76711"><ele>612</ele><time>2023-06-17T16:32:44Z</time></trkpt>
<trkpt lat="46.49425" lon="6.767"><ele>612.4</ele><time>2023-06-17T16:32:47Z</time></trkpt>
<trkpt lat="46.49426" lon="6.76687"><ele>613.2</ele><time>2023-06-17T16:32:51Z</time></trkpt>
<trkpt lat="46.49427" lon="6.7667"><ele>614</ele><time>2023-06-17T16:32:56Z</time></trkpt>
<trkpt lat="46.49427" lon="6.76665"><ele>614.2</ele><time>2023-06-17T16:32:57Z</time></trkpt>
<trkpt lat="46.49427" lon="6.76665"><ele>614.2</ele><time>2023-06-17T16:32:57Z</time></trkpt>
<trkpt lat="46.49432" lon="6.76619"><ele>616.2</ele><time>2023-06-17T16:33:09Z</time></trkpt>
<trkpt lat="46.49431" lon="6.76614"><ele>616.4</ele><time>2023-06-17T16:33:10Z</time></trkpt>
<trkpt lat="46.49432" lon="6.76604"><ele>617</ele><time>2023-06-17T16:33:13Z</time></trkpt>
<trkpt lat="46.49431" lon="6.76592"><ele>617.6</ele><time>2023-06-17T16:33:16Z</time></trkpt>
<trkpt lat="46.49429" lon="6.76583"><ele>618</ele><time>2023-06-17T16:33:19Z</time></trkpt>
<trkpt lat="46.49424" lon="6.76573"><ele>618.6</ele><time>2023-06-17T16:33:23Z</time></trkpt>
<trkpt lat="46.49421" lon="6.76568"><ele>618.8</ele><time>2023-06-17T16:33:25Z</time></trkpt>
<trkpt lat="46.4941" lon="6.76554"><ele>619.6</ele><time>2023-06-17T16:33:31Z</time></trkpt>
<trkpt lat="46.49409" lon="6.76552"><ele>619.8</ele><time>2023-06-17T16:33:32Z</time></trkpt>
<trkpt lat="46.49397" lon="6.76537"><ele>621</ele><time>2023-06-17T16:33:39Z</time></trkpt>
<trkpt lat="46.49395" lon="6.76535"><ele>621</ele><time>2023-06-17T16:33:40Z</time></trkpt>
<trkpt lat="46.49383" lon="6.76519"><ele>622</ele><time>2023-06-17T16:33:47Z</time></trkpt>
<trkpt lat="46.49379" lon="6.76515"><ele>622.2</ele><time>2023-06-17T16:33:49Z</time></trkpt>
<trkpt lat="46.49368" lon="6.76503"><ele>623.2</ele><time>2023-06-17T16:33:55Z</time></trkpt>
<trkpt lat="46.49359" lon="6.76491"><ele>624.4</ele><time>2023-06-17T16:34:01Z</time></trkpt>
<trkpt lat="46.49357" lon="6.76488"><ele>624.4</ele><time>2023-06-17T16:34:02Z</time></trkpt>
<trkpt lat="46.4934" lon="6.76465"><ele>625.4</ele><time>2023-06-17T16:34:12Z</time></trkpt>
<trkpt lat="46.49331" lon="6.76453"><ele>626.4</ele><time>2023-06-17T16:34:18Z</time></trkpt>
<trkpt lat="46.49326" lon="6.76447"><ele>626.8</ele><time>2023-06-17T16:34:21Z</time></trkpt>
<trkpt lat="46.49315" lon="6.76434"><ele>627.6</ele><time>2023-06-17T16:34:27Z</time></trkpt>
<trkpt lat="46.49305" lon="6.76423"><ele>628.2</ele><time>2023-06-17T16:34:32Z</time></trkpt>
<trkpt lat="46.49294" lon="6.76413"><ele>628.8</ele><time>2023-06-17T16:34:37Z</time></trkpt>
<trkpt lat="46.49281" lon="6.76399"><ele>629.4</ele><time>2023-06-17T16:34:43Z</time></trkpt>
<trkpt lat="46.49266" lon="6.76384"><ele>629.8</ele><time>2023-06-17T16:34:49Z</time></trkpt>
<trkpt lat="46.49257" lon="6.76377"><ele>630.2</ele><time>2023-06-17T16:34:53Z</time></trkpt>
<trkpt lat="46.49238" lon="6.76364"><ele>630.8</ele><time>2023-06-17T16:35:00Z</time></trkpt>
<trkpt lat="46.49227" lon="6.76357"><ele>631.2</ele><time>2023-06-17T16:35:04Z</time></trkpt>
<trkpt lat="46.49207" lon="6.76335"><ele>632</ele><time>2023-06-17T16:35:13Z</time></trkpt>
<trkpt lat="46.49205" lon="6.76332"><ele>632</ele><time>2023-06-17T16:35:14Z</time></trkpt>
<trkpt lat="46.49183" lon="6.76308"><ele>633</ele><time>2023-06-17T16:35:23Z</time></trkpt>
<trkpt lat="46.49181" lon="6.76306"><ele>633</ele><time>2023-06-17T16:35:24Z</time></trkpt>
<trkpt lat="46.49156" lon="6.76281"><ele>634</ele><time>2023-06-17T16:35:35Z</time></trkpt>
<trkpt lat="46.49153" lon="6.76278"><ele>634</ele><time>2023-06-17T16:35:36Z</time></trkpt>
<trkpt lat="46.4913" lon="6.76251"><ele>635</ele><time>2023-06-17T16:35:47Z</time></trkpt>
<trkpt lat="46.49117" lon="6.76233"><ele>635.6</ele><time>2023-06-17T16:35:54Z</time></trkpt>
<trkpt lat="46.49114" lon="6.76228"><ele>636</ele><time>2023-06-17T16:35:56Z</time></trkpt>
<trkpt lat="46.49111" lon="6.76223"><ele>636.2</ele><time>2023-06-17T16:35:58Z</time></trkpt>
<trkpt lat="46.49101" lon="6.76205"><ele>637</ele><time>2023-06-17T16:36:05Z</time></trkpt>
<trkpt lat="46.49099" lon="6.76199"><ele>637.2</ele><time>2023-06-17T16:36:07Z</time></trkpt>
<trkpt lat="46.49096" lon="6.76184"><ele>637.6</ele><time>2023-06-17T16:36:11Z</time></trkpt>
<trkpt lat="46.49096" lon="6.76169"><ele>638.2</ele><time>2023-06-17T16:36:15Z</time></trkpt>
<trkpt lat="46.49098" lon="6.76155"><ele>639</ele><time>2023-06-17T16:36:19Z</time></trkpt>
<trkpt lat="46.49099" lon="6.76148"><ele>639.4</ele><time>2023-06-17T16:36:21Z</time></trkpt>
<trkpt lat="46.49105" lon="6.76126"><ele>640.4</ele><time>2023-06-17T16:36:27Z</time></trkpt>
<trkpt lat="46.49106" lon="6.76123"><ele>640.4</ele><time>2023-06-17T16:36:28Z</time></trkpt>
<trkpt lat="46.4911" lon="6.76106"><ele>640.8</ele><time>2023-06-17T16:36:33Z</time></trkpt>
<trkpt lat="46.49111" lon="6.761"><ele>641.2</ele><time>2023-06-17T16:36:35Z</time></trkpt>
<trkpt lat="46.49113" lon="6.76093"><ele>641.6</ele><time>2023-06-17T16:36:37Z</time></trkpt>
<trkpt lat="46.49118" lon="6.76073"><ele>642.2</ele><time>2023-06-17T16:36:44Z</time></trkpt>
<trkpt lat="46.49119" lon="6.76067"><ele>642.6</ele><time>2023-06-17T16:36:46Z</time></trkpt>
<trkpt lat="46.49126" lon="6.7604"><ele>643.6</ele><time>2023-06-17T16:36:55Z</time></trkpt>
<trkpt lat="46.49126" lon="6.76037"><ele>643.8</ele><time>2023-06-17T16:36:56Z</time></trkpt>
<trkpt lat="46.49131" lon="6.76017"><ele>644.6</ele><time>2023-06-17T16:37:02Z</time></trkpt>
<trkpt lat="46.49132" lon="6.76014"><ele>644.8</ele><time>2023-06-17T16:37:03Z</time></trkpt>
<trkpt lat="46.49134" lon="6.75994"><ele>645.8</ele><time>2023-06-17T16:37:09Z</time></trkpt>
<trkpt lat="46.49134" lon="6.75991"><ele>646</ele><time>2023-06-17T16:37:10Z</time></trkpt>
<trkpt lat="46.49127" lon="6.75972"><ele>646.4</ele><time>2023-06-17T16:37:16Z</time></trkpt>
<trkpt lat="46.49113" lon="6.75953"><ele>645.6</ele><time>2023-06-17T16:37:21Z</time></trkpt>
<trkpt lat="46.49083" lon="6.75916"><ele>646.4</ele><time>2023-06-17T16:37:31Z</time></trkpt>
<trkpt lat="46.4906" lon="6.75886"><ele>646.6</ele><time>2023-06-17T16:37:39Z</time></trkpt>
<trkpt lat="46.49042" lon="6.75851"><ele>646.8</ele><time>2023-06-17T16:37:47Z</time></trkpt>
<trkpt lat="46.4904" lon="6.75846"><ele>647</ele><time>2023-06-17T16:37:48Z</time></trkpt>
<trkpt lat="46.49025" lon="6.75811"><ele>647.6</ele><time>2023-06-17T16:37:56Z</time></trkpt>
<trkpt lat="46.49015" lon="6.75785"><ele>647</ele><time>2023-06-17T16:38:02Z</time></trkpt>
<trkpt lat="46.49005" lon="6.75759"><ele>646.6</ele><time>2023-06-17T16:38:07Z</time></trkpt>
<trkpt lat="46.49002" lon="6.75747"><ele>646.2</ele><time>2023-06-17T16:38:09Z</time></trkpt>
<trkpt lat="46.49" lon="6.75735"><ele>646</ele><time>2023-06-17T16:38:11Z</time></trkpt>
<trkpt lat="46.49" lon="6.75729"><ele>646</ele><time>2023-06-17T16:38:12Z</time></trkpt>
<trkpt lat="46.49002" lon="6.75716"><ele>645.6</ele><time>2023-06-17T16:38:14Z</time></trkpt>
<trkpt lat="46.49006" lon="6.75702"><ele>644.8</ele><time>2023-06-17T16:38:16Z</time></trkpt>
<trkpt lat="46.49007" lon="6.75694"><ele>644.4</ele><time>2023-06-17T16:38:17Z</time></trkpt>
<trkpt lat="46.49012" lon="6.75678"><ele>643.2</ele><time>2023-06-17T16:38:19Z</time></trkpt>
<trkpt lat="46.49018" lon="6.75663"><ele>642.6</ele><time>2023-06-17T16:38:21Z</time></trkpt>
<trkpt lat="46.49024" lon="6.75649"><ele>641.2</ele><time>2023-06-17T16:38:23Z</time></trkpt>
<trkpt lat="46.49029" lon="6.75633"><ele>639.8</ele><time>2023-06-17T16:38:25Z</time></trkpt>
<trkpt lat="46.49031" lon="6.75625"><ele>638.2</ele><time>2023-06-17T16:38:26Z</time></trkpt>
<trkpt lat="46.49032" lon="6.75617"><ele>637</ele><time>2023-06-17T16:38:27Z</time></trkpt>
<trkpt lat="46.49033" lon="6.756"><ele>635.2</ele><time>2023-06-17T16:38:29Z</time></trkpt>
<trkpt lat="46.49034" lon="6.75585"><ele>633.6</ele><time>2023-06-17T16:38:31Z</time></trkpt>
<trkpt lat="46.49035" lon="6.75572"><ele>632.4</ele><time>2023-06-17T16:38:33Z</time></trkpt>
<trkpt lat="46.49036" lon="6.75565"><ele>631</ele><time>2023-06-17T16:38:34Z</time></trkpt>
<trkpt lat="46.49036" lon="6.75558"><ele>630.2</ele><time>2023-06-17T16:38:35Z</time></trkpt>
<trkpt lat="46.49037" lon="6.7555"><ele>629.4</ele><time>2023-06-17T16:38:36Z</time></trkpt>
<trkpt lat="46.49039" lon="6.75543"><ele>628.8</ele><time>2023-06-17T16:38:37Z</time></trkpt>
<trkpt lat="46.49041" lon="6.75535"><ele>627.2</ele><time>2023-06-17T16:38:38Z</time></trkpt>
<trkpt lat="46.49045" lon="6.75518"><ele>625.4</ele><time>2023-06-17T16:38:40Z</time></trkpt>
<trkpt lat="46.4905" lon="6.75504"><ele>623.4</ele><time>2023-06-17T16:38:42Z</time></trkpt>
<trkpt lat="46.49052" lon="6.75498"><ele>622.6</ele><time>2023-06-17T16:38:43Z</time></trkpt>
<trkpt lat="46.49054" lon="6.75492"><ele>621.4</ele><time>2023-06-17T16:38:44Z</time></trkpt>
<trkpt lat="46.49056" lon="6.75486"><ele>620.2</ele><time>2023-06-17T16:38:45Z</time></trkpt>
<trkpt lat="46.49061" lon="6.75474"><ele>618.6</ele><time>2023-06-17T16:38:47Z</time></trkpt>
<trkpt lat="46.49065" lon="6.7546"><ele>617</ele><time>2023-06-17T16:38:49Z</time></trkpt>
<trkpt lat="46.49067" lon="6.75453"><ele>616</ele><time>2023-06-17T16:38:50Z</time></trkpt>
<trkpt lat="46.4907" lon="6.75446"><ele>615.4</ele><time>2023-06-17T16:38:51Z</time></trkpt>
<trkpt lat="46.49072" lon="6.75439"><ele>614.2</ele><time>2023-06-17T16:38:52Z</time></trkpt>
<trkpt lat="46.49076" lon="6.75433"><ele>613.2</ele><time>2023-06-17T16:38:53Z</time></trkpt>
<trkpt lat="46.4908" lon="6.75427"><ele>612.2</ele><time>2023-06-17T16:38:54Z</time></trkpt>
<trkpt lat="46.49083" lon="6.75422"><ele>610.2</ele><time>2023-06-17T16:38:55Z</time></trkpt>
<trkpt lat="46.4909" lon="6.75413"><ele>608.2</ele><time>2023-06-17T16:38:57Z</time></trkpt>
<trkpt lat="46.49094" lon="6.75408"><ele>607.2</ele><time>2023-06-17T16:38:58Z</time></trkpt>
<trkpt lat="46.49098" lon="6.75405"><ele>606.4</ele><time>2023-06-17T16:38:59Z</time></trkpt>
<trkpt lat="46.49102" lon="6.754"><ele>606</ele><time>2023-06-17T16:39:00Z</time></trkpt>
<trkpt lat="46.49107" lon="6.75397"><ele>604.8</ele><time>2023-06-17T16:39:01Z</time></trkpt>
<trkpt lat="46.49118" lon="6.75389"><ele>602.6</ele><time>2023-06-17T16:39:03Z</time></trkpt>
<trkpt lat="46.49123" lon="6.75386"><ele>601.4</ele><time>2023-06-17T16:39:04Z</time></trkpt>
<trkpt lat="46.49129" lon="6.75382"><ele>600.2</ele><time>2023-06-17T16:39:05Z</time></trkpt>
<trkpt lat="46.49135" lon="6.75379"><ele>598.8</ele><time>2023-06-17T16:39:06Z</time></trkpt>
<trkpt lat="46.49141" lon="6.75376"><ele>597.6</ele><time>2023-06-17T16:39:07Z</time></trkpt>
<trkpt lat="46.49152" lon="6.75368"><ele>595.8</ele><time>2023-06-17T16:39:09Z</time></trkpt>
<trkpt lat="46.49157" lon="6.75364"><ele>594.6</ele><time>2023-06-17T16:39:10Z</time></trkpt>
<trkpt lat="46.49161" lon="6.7536"><ele>593.4</ele><time>2023-06-17T16:39:11Z</time></trkpt>
<trkpt lat="46.49165" lon="6.75355"><ele>592.6</ele><time>2023-06-17T16:39:12Z</time></trkpt>
<trkpt lat="46.49169" lon="6.75351"><ele>592</ele><time>2023-06-17T16:39:13Z</time></trkpt>
<trkpt lat="46.49172" lon="6.75345"><ele>591</ele><time>2023-06-17T16:39:14Z</time></trkpt>
<trkpt lat="46.49175" lon="6.75339"><ele>590.6</ele><time>2023-06-17T16:39:15Z</time></trkpt>
<trkpt lat="46.49181" lon="6.75326"><ele>589</ele><time>2023-06-17T16:39:17Z</time></trkpt>
<trkpt lat="46.49187" lon="6.75312"><ele>587.4</ele><time>2023-06-17T16:39:19Z</time></trkpt>
<trkpt lat="46.49189" lon="6.75304"><ele>586.8</ele><time>2023-06-17T16:39:20Z</time></trkpt>
<trkpt lat="46.4919" lon="6.75295"><ele>585.8</ele><time>2023-06-17T16:39:21Z</time></trkpt>
<trkpt lat="46.49191" lon="6.75286"><ele>585.2</ele><time>2023-06-17T16:39:22Z</time></trkpt>
<trkpt lat="46.49192" lon="6.75277"><ele>584.4</ele><time>2023-06-17T16:39:23Z</time></trkpt>
<trkpt lat="46.49193" lon="6.75268"><ele>583.2</ele><time>2023-06-17T16:39:24Z</time></trkpt>
<trkpt lat="46.49194" lon="6.75259"><ele>582.2</ele><time>2023-06-17T16:39:25Z</time></trkpt>
<trkpt lat="46.49194" lon="6.75249"><ele>581.2</ele><time>2023-06-17T16:39:26Z</time></trkpt>
<trkpt lat="46.49197" lon="6.75229"><ele>578.6</ele><time>2023-06-17T16:39:28Z</time></trkpt>
<trkpt lat="46.49198" lon="6.75219"><ele>577.6</ele><time>2023-06-17T16:39:29Z</time></trkpt>
<trkpt lat="46.49199" lon="6.7521"><ele>575.2</ele><time>2023-06-17T16:39:30Z</time></trkpt>
<trkpt lat="46.49202" lon="6.75191"><ele>573.2</ele><time>2023-06-17T16:39:32Z</time></trkpt>
<trkpt lat="46.49205" lon="6.75172"><ele>571.6</ele><time>2023-06-17T16:39:34Z</time></trkpt>
<trkpt lat="46.49208" lon="6.75162"><ele>570.4</ele><time>2023-06-17T16:39:35Z</time></trkpt>
<trkpt lat="46.49211" lon="6.75153"><ele>568.8</ele><time>2023-06-17T16:39:36Z</time></trkpt>
<trkpt lat="46.49217" lon="6.75133"><ele>567.4</ele><time>2023-06-17T16:39:38Z</time></trkpt>
<trkpt lat="46.49221" lon="6.75123"><ele>565.4</ele><time>2023-06-17T16:39:39Z</time></trkpt>
<trkpt lat="46.49226" lon="6.75113"><ele>564.2</ele><time>2023-06-17T16:39:40Z</time></trkpt>
<trkpt lat="46.49231" lon="6.75104"><ele>563.4</ele><time>2023-06-17T16:39:41Z</time></trkpt>
<trkpt lat="46.49236" lon="6.75096"><ele>561.6</ele><time>2023-06-17T16:39:42Z</time></trkpt>
<trkpt lat="46.49241" lon="6.75087"><ele>559.8</ele><time>2023-06-17T16:39:43Z</time></trkpt>
<trkpt lat="46.49245" lon="6.75078"><ele>557.8</ele><time>2023-06-17T16:39:44Z</time></trkpt>
<trkpt lat="46.49252" lon="6.75058"><ele>556.2</ele><time>2023-06-17T16:39:46Z</time></trkpt>
<trkpt lat="46.49255" lon="6.75049"><ele>554.6</ele><time>2023-06-17T16:39:47Z</time></trkpt>
<trkpt lat="46.49259" lon="6.7503"><ele>553.2</ele><time>2023-06-17T16:39:49Z</time></trkpt>
<trkpt lat="46.49263" lon="6.75015"><ele>551.6</ele><time>2023-06-17T16:39:51Z</time></trkpt>
<trkpt lat="46.49268" lon="6.75003"><ele>549.6</ele><time>2023-06-17T16:39:53Z</time></trkpt>
<trkpt lat="46.49274" lon="6.74992"><ele>548.4</ele><time>2023-06-17T16:39:55Z</time></trkpt>
<trkpt lat="46.49277" lon="6.74986"><ele>547.8</ele><time>2023-06-17T16:39:56Z</time></trkpt>
<trkpt lat="46.4928" lon="6.74979"><ele>546.6</ele><time>2023-06-17T16:39:57Z</time></trkpt>
<trkpt lat="46.49283" lon="6.74971"><ele>544.8</ele><time>2023-06-17T16:39:58Z</time></trkpt>
<trkpt lat="46.49289" lon="6.74955"><ele>542.6</ele><time>2023-06-17T16:40:00Z</time></trkpt>
<trkpt lat="46.49296" lon="6.74937"><ele>541.6</ele><time>2023-06-17T16:40:02Z</time></trkpt>
<trkpt lat="46.49298" lon="6.74927"><ele>540.2</ele><time>2023-06-17T16:40:03Z</time></trkpt>
<trkpt lat="46.49304" lon="6.74907"><ele>537.6</ele><time>2023-06-17T16:40:05Z</time></trkpt>
<trkpt lat="46.49307" lon="6.74898"><ele>536</ele><time>2023-06-17T16:40:06Z</time></trkpt>
<trkpt lat="46.4931" lon="6.7489"><ele>535</ele><time>2023-06-17T16:40:07Z</time></trkpt>
<trkpt lat="46.49311" lon="6.74882"><ele>534.2</ele><time>2023-06-17T16:40:08Z</time></trkpt>
<trkpt lat="46.49312" lon="6.74875"><ele>533</ele><time>2023-06-17T16:40:09Z</time></trkpt>
<trkpt lat="46.49312" lon="6.74867"><ele>531.8</ele><time>2023-06-17T16:40:10Z</time></trkpt>
<trkpt lat="46.49312" lon="6.7486"><ele>531.2</ele><time>2023-06-17T16:40:11Z</time></trkpt>
<trkpt lat="46.49311" lon="6.74853"><ele>529.6</ele><time>2023-06-17T16:40:12Z</time></trkpt>
<trkpt lat="46.49307" lon="6.74842"><ele>527.8</ele><time>2023-06-17T16:40:14Z</time></trkpt>
<trkpt lat="46.49305" lon="6.74838"><ele>527</ele><time>2023-06-17T16:40:15Z</time></trkpt>
<trkpt lat="46.49302" lon="6.74837"><ele>526</ele><time>2023-06-17T16:40:16Z</time></trkpt>
<trkpt lat="46.49298" lon="6.74837"><ele>525.4</ele><time>2023-06-17T16:40:17Z</time></trkpt>
<trkpt lat="46.49293" lon="6.7484"><ele>524.8</ele><time>2023-06-17T16:40:18Z</time></trkpt>
<trkpt lat="46.49288" lon="6.74844"><ele>524.6</ele><time>2023-06-17T16:40:19Z</time></trkpt>
<trkpt lat="46.49278" lon="6.74856"><ele>523.2</ele><time>2023-06-17T16:40:21Z</time></trkpt>
<trkpt lat="46.49256" lon="6.74882"><ele>520.8</ele><time>2023-06-17T16:40:25Z</time></trkpt>
<trkpt lat="46.4925" lon="6.74887"><ele>520.4</ele><time>2023-06-17T16:40:26Z</time></trkpt>
<trkpt lat="46.49244" lon="6.74892"><ele>520</ele><time>2023-06-17T16:40:27Z</time></trkpt>
<trkpt lat="46.49238" lon="6.74896"><ele>519.4</ele><time>2023-06-17T16:40:28Z</time></trkpt>
<trkpt lat="46.49231" lon="6.749"><ele>517.8</ele><time>2023-06-17T16:40:29Z</time></trkpt>
<trkpt lat="46.49224" lon="6.74903"><ele>517.4</ele><time>2023-06-17T16:40:30Z</time></trkpt>
<trkpt lat="46.49217" lon="6.74906"><ele>515.2</ele><time>2023-06-17T16:40:31Z</time></trkpt>
<trkpt lat="46.49211" lon="6.7491"><ele>513.6</ele><time>2023-06-17T16:40:32Z</time></trkpt>
<trkpt lat="46.49204" lon="6.74912"><ele>512.4</ele><time>2023-06-17T16:40:33Z</time></trkpt>
<trkpt lat="46.49198" lon="6.74914"><ele>510.8</ele><time>2023-06-17T16:40:34Z</time></trkpt>
<trkpt lat="46.49192" lon="6.74916"><ele>509.6</ele><time>2023-06-17T16:40:35Z</time></trkpt>
<trkpt lat="46.49186" lon="6.74917"><ele>508.6</ele><time>2023-06-17T16:40:36Z</time></trkpt>
<trkpt lat="46.4918" lon="6.74918"><ele>507.8</ele><time>2023-06-17T16:40:37Z</time></trkpt>
<trkpt lat="46.49174" lon="6.7492"><ele>506.2</ele><time>2023-06-17T16:40:38Z</time></trkpt>
<trkpt lat="46.49162" lon="6.74925"><ele>504.2</ele><time>2023-06-17T16:40:40Z</time></trkpt>
<trkpt lat="46.49157" lon="6.74927"><ele>502.6</ele><time>2023-06-17T16:40:41Z</time></trkpt>
<trkpt lat="46.49151" lon="6.74929"><ele>501.4</ele><time>2023-06-17T16:40:42Z</time></trkpt>
<trkpt lat="46.49145" lon="6.74931"><ele>500.4</ele><time>2023-06-17T16:40:43Z</time></trkpt>
<trkpt lat="46.49139" lon="6.74932"><ele>498.4</ele><time>2023-06-17T16:40:44Z</time></trkpt>
<trkpt lat="46.49134" lon="6.74933"><ele>497.2</ele><time>2023-06-17T16:40:45Z</time></trkpt>
<trkpt lat="46.49128" lon="6.74934"><ele>495.8</ele><time>2023-06-17T16:40:46Z</time></trkpt>
<trkpt lat="46.49123" lon="6.74933"><ele>494.4</ele><time>2023-06-17T16:40:47Z</time></trkpt>
<trkpt lat="46.49113" lon="6.74934"><ele>492.2</ele><time>2023-06-17T16:40:49Z</time></trkpt>
<trkpt lat="46.49108" lon="6.74935"><ele>490.6</ele><time>2023-06-17T16:40:50Z</time></trkpt>
<trkpt lat="46.49103" lon="6.74936"><ele>489.2</ele><time>2023-06-17T16:40:51Z</time></trkpt>
<trkpt lat="46.49094" lon="6.74935"><ele>487.4</ele><time>2023-06-17T16:40:53Z</time></trkpt>
<trkpt lat="46.4909" lon="6.74932"><ele>486.2</ele><time>2023-06-17T16:40:54Z</time></trkpt>
<trkpt lat="46.49088" lon="6.74928"><ele>485.8</ele><time>2023-06-17T16:40:55Z</time></trkpt>
<trkpt lat="46.49088" lon="6.74923"><ele>485</ele><time>2023-06-17T16:40:56Z</time></trkpt>
<trkpt lat="46.49089" lon="6.74916"><ele>484.2</ele><time>2023-06-17T16:40:57Z</time></trkpt>
<trkpt lat="46.49092" lon="6.7491"><ele>483.6</ele><time>2023-06-17T16:40:58Z</time></trkpt>
<trkpt lat="46.49097" lon="6.74905"><ele>483</ele><time>2023-06-17T16:40:59Z</time></trkpt>
<trkpt lat="46.49101" lon="6.749"><ele>482.4</ele><time>2023-06-17T16:41:00Z</time></trkpt>
<trkpt lat="46.49111" lon="6.74889"><ele>481.2</ele><time>2023-06-17T16:41:02Z</time></trkpt>
<trkpt lat="46.49121" lon="6.74877"><ele>479.6</ele><time>2023-06-17T16:41:04Z</time></trkpt>
<trkpt lat="46.4913" lon="6.74864"><ele>478.2</ele><time>2023-06-17T16:41:06Z</time></trkpt>
<trkpt lat="46.49135" lon="6.74858"><ele>477.8</ele><time>2023-06-17T16:41:07Z</time></trkpt>
<trkpt lat="46.4914" lon="6.74851"><ele>477.2</ele><time>2023-06-17T16:41:08Z</time></trkpt>
<trkpt lat="46.49149" lon="6.74836"><ele>475.8</ele><time>2023-06-17T16:41:10Z</time></trkpt>
<trkpt lat="46.4917" lon="6.74807"><ele>475.4</ele><time>2023-06-17T16:41:14Z</time></trkpt>
<trkpt lat="46.49186" lon="6.74775"><ele>474.6</ele><time>2023-06-17T16:41:18Z</time></trkpt>
<trkpt lat="46.49193" lon="6.74758"><ele>474.2</ele><time>2023-06-17T16:41:20Z</time></trkpt>
<trkpt lat="46.49198" lon="6.7474"><ele>471.6</ele><time>2023-06-17T16:41:22Z</time></trkpt>
<trkpt lat="46.49203" lon="6.74722"><ele>471</ele><time>2023-06-17T16:41:24Z</time></trkpt>
<trkpt lat="46.49206" lon="6.74707"><ele>471</ele><time>2023-06-17T16:41:26Z</time></trkpt>
<trkpt lat="46.4921" lon="6.74662"><ele>471.8</ele><time>2023-06-17T16:41:32Z</time></trkpt>
<trkpt lat="46.49212" lon="6.74645"><ele>472.8</ele><time>2023-06-17T16:41:35Z</time></trkpt>
<trkpt lat="46.49212" lon="6.74641"><ele>473.2</ele><time>2023-06-17T16:41:36Z</time></trkpt>
<trkpt lat="46.49214" lon="6.74626"><ele>473.8</ele><time>2023-06-17T16:41:40Z</time></trkpt>
<trkpt lat="46.49215" lon="6.74616"><ele>474</ele><time>2023-06-17T16:41:43Z</time></trkpt>
<trkpt lat="46.4922" lon="6.74586"><ele>474.8</ele><time>2023-06-17T16:41:52Z</time></trkpt>
<trkpt lat="46.49226" lon="6.74566"><ele>474.8</ele><time>2023-06-17T16:41:59Z</time></trkpt>
<trkpt lat="46.49229" lon="6.74552"><ele>474.6</ele><time>2023-06-17T16:42:05Z</time></trkpt>
<trkpt lat="46.49233" lon="6.7454"><ele>472.6</ele><time>2023-06-17T16:42:10Z</time></trkpt>
<trkpt lat="46.49234" lon="6.74538"><ele>471.8</ele><time>2023-06-17T16:42:11Z</time></trkpt>
<trkpt lat="46.49236" lon="6.74536"><ele>471</ele><time>2023-06-17T16:42:12Z</time></trkpt>
<trkpt lat="46.4924" lon="6.74529"><ele>470</ele><time>2023-06-17T16:42:14Z</time></trkpt>
<trkpt lat="46.49243" lon="6.74525"><ele>469.6</ele><time>2023-06-17T16:42:15Z</time></trkpt>
<trkpt lat="46.49249" lon="6.74517"><ele>469</ele><time>2023-06-17T16:42:17Z</time></trkpt>
<trkpt lat="46.49252" lon="6.74511"><ele>468.8</ele><time>2023-06-17T16:42:18Z</time></trkpt>
<trkpt lat="46.49257" lon="6.74498"><ele>468.4</ele><time>2023-06-17T16:42:20Z</time></trkpt>
<trkpt lat="46.49256" lon="6.74481"><ele>468</ele><time>2023-06-17T16:42:22Z</time></trkpt>
<trkpt lat="46.49254" lon="6.74471"><ele>467.6</ele><time>2023-06-17T16:42:23Z</time></trkpt>
<trkpt lat="46.4925" lon="6.74462"><ele>467.2</ele><time>2023-06-17T16:42:24Z</time></trkpt>
<trkpt lat="46.4924" lon="6.74442"><ele>467.2</ele><time>2023-06-17T16:42:27Z</time></trkpt>
<trkpt lat="46.49236" lon="6.74429"><ele>467.4</ele><time>2023-06-17T16:42:29Z</time></trkpt>
<trkpt lat="46.49234" lon="6.74413"><ele>467.8</ele><time>2023-06-17T16:42:32Z</time></trkpt>
<trkpt lat="46.49231" lon="6.74389"><ele>468.2</ele><time>2023-06-17T16:42:37Z</time></trkpt>
<trkpt lat="46.49233" lon="6.7437"><ele>468.6</ele><time>2023-06-17T16:42:41Z</time></trkpt>
<trkpt lat="46.49234" lon="6.74364"><ele>468.6</ele><time>2023-06-17T16:42:42Z</time></trkpt>
<trkpt lat="46.49247" lon="6.74333"><ele>468.6</ele><time>2023-06-17T16:42:47Z</time></trkpt>
<trkpt lat="46.49254" lon="6.74319"><ele>467.4</ele><time>2023-06-17T16:42:49Z</time></trkpt>
<trkpt lat="46.49259" lon="6.74305"><ele>467</ele><time>2023-06-17T16:42:51Z</time></trkpt>
<trkpt lat="46.49263" lon="6.74288"><ele>467</ele><time>2023-06-17T16:42:53Z</time></trkpt>
<trkpt lat="46.49263" lon="6.74272"><ele>466.6</ele><time>2023-06-17T16:42:55Z</time></trkpt>
<trkpt lat="46.49263" lon="6.74263"><ele>466.4</ele><time>2023-06-17T16:42:56Z</time></trkpt>
<trkpt lat="46.49262" lon="6.74255"><ele>466.2</ele><time>2023-06-17T16:42:57Z</time></trkpt>
<trkpt lat="46.49256" lon="6.74221"><ele>465.4</ele><time>2023-06-17T16:43:01Z</time></trkpt>
<trkpt lat="46.49255" lon="6.74212"><ele>464.8</ele><time>2023-06-17T16:43:02Z</time></trkpt>
<trkpt lat="46.49256" lon="6.74193"><ele>463.8</ele><time>2023-06-17T16:43:04Z</time></trkpt>
<trkpt lat="46.49256" lon="6.74183"><ele>463.8</ele><time>2023-06-17T16:43:05Z</time></trkpt>
<trkpt lat="46.49258" lon="6.74174"><ele>463.6</ele><time>2023-06-17T16:43:06Z</time></trkpt>
<trkpt lat="46.49262" lon="6.74154"><ele>463.4</ele><time>2023-06-17T16:43:08Z</time></trkpt>
<trkpt lat="46.49269" lon="6.74124"><ele>463.2</ele><time>2023-06-17T16:43:11Z</time></trkpt>
<trkpt lat="46.49274" lon="6.74102"><ele>462.2</ele><time>2023-06-17T16:43:13Z</time></trkpt>
<trkpt lat="46.49281" lon="6.74069"><ele>461</ele><time>2023-06-17T16:43:16Z</time></trkpt>
<trkpt lat="46.49286" lon="6.74034"><ele>460</ele><time>2023-06-17T16:43:19Z</time></trkpt>
<trkpt lat="46.49285" lon="6.73996"><ele>458.8</ele><time>2023-06-17T16:43:22Z</time></trkpt>
<trkpt lat="46.49284" lon="6.73983"><ele>458.4</ele><time>2023-06-17T16:43:23Z</time></trkpt>
<trkpt lat="46.49281" lon="6.73943"><ele>457.2</ele><time>2023-06-17T16:43:26Z</time></trkpt>
<trkpt lat="46.4928" lon="6.73917"><ele>456</ele><time>2023-06-17T16:43:28Z</time></trkpt>
<trkpt lat="46.49281" lon="6.7389"><ele>455.2</ele><time>2023-06-17T16:43:30Z</time></trkpt>
<trkpt lat="46.49283" lon="6.73877"><ele>454.6</ele><time>2023-06-17T16:43:31Z</time></trkpt>
<trkpt lat="46.49291" lon="6.73839"><ele>453.6</ele><time>2023-06-17T16:43:34Z</time></trkpt>
<trkpt lat="46.49305" lon="6.73798"><ele>453.2</ele><time>2023-06-17T16:43:38Z</time></trkpt>
<trkpt lat="46.49309" lon="6.73788"><ele>453.2</ele><time>2023-06-17T16:43:39Z</time></trkpt>
<trkpt lat="46.4932" lon="6.73758"><ele>452.2</ele><time>2023-06-17T16:43:42Z</time></trkpt>
<trkpt lat="46.49331" lon="6.73717"><ele>452</ele><time>2023-06-17T16:43:46Z</time></trkpt>
<trkpt lat="46.49333" lon="6.73695"><ele>451.8</ele><time>2023-06-17T16:43:48Z</time></trkpt>
<trkpt lat="46.49335" lon="6.73651"><ele>451.8</ele><time>2023-06-17T16:43:52Z</time></trkpt>
<trkpt lat="46.49336" lon="6.73606"><ele>453</ele><time>2023-06-17T16:43:57Z</time></trkpt>
<trkpt lat="46.49337" lon="6.73599"><ele>453.2</ele><time>2023-06-17T16:43:58Z</time></trkpt>
<trkpt lat="46.49339" lon="6.73594"><ele>453.4</ele><time>2023-06-17T16:43:59Z</time></trkpt>
<trkpt lat="46.4934" lon="6.7358"><ele>453.4</ele><time>2023-06-17T16:44:01Z</time></trkpt>
<trkpt lat="46.4934" lon="6.73561"><ele>453.4</ele><time>2023-06-17T16:44:04Z</time></trkpt>
<trkpt lat="46.4934" lon="6.73546"><ele>452.6</ele><time>2023-06-17T16:44:06Z</time></trkpt>
<trkpt lat="46.49339" lon="6.73537"><ele>452.2</ele><time>2023-06-17T16:44:07Z</time></trkpt>
<trkpt lat="46.49339" lon="6.73529"><ele>451.6</ele><time>2023-06-17T16:44:08Z</time></trkpt>
<trkpt lat="46.49339" lon="6.7352"><ele>451.2</ele><time>2023-06-17T16:44:09Z</time></trkpt>
<trkpt lat="46.4934" lon="6.73511"><ele>450.8</ele><time>2023-06-17T16:44:10Z</time></trkpt>
<trkpt lat="46.49342" lon="6.73493"><ele>449.6</ele><time>2023-06-17T16:44:12Z</time></trkpt>
<trkpt lat="46.49344" lon="6.73483"><ele>449.4</ele><time>2023-06-17T16:44:13Z</time></trkpt>
<trkpt lat="46.4935" lon="6.73467"><ele>448.2</ele><time>2023-06-17T16:44:15Z</time></trkpt>
<trkpt lat="46.49354" lon="6.73459"><ele>448</ele><time>2023-06-17T16:44:16Z</time></trkpt>
<trkpt lat="46.49363" lon="6.73446"><ele>447</ele><time>2023-06-17T16:44:18Z</time></trkpt>
<trkpt lat="46.49368" lon="6.73439"><ele>446.8</ele><time>2023-06-17T16:44:19Z</time></trkpt>
<trkpt lat="46.49371" lon="6.73422"><ele>446.8</ele><time>2023-06-17T16:44:21Z</time></trkpt>
<trkpt lat="46.49365" lon="6.73406"><ele>446.4</ele><time>2023-06-17T16:44:23Z</time></trkpt>
<trkpt lat="46.49361" lon="6.73397"><ele>446</ele><time>2023-06-17T16:44:24Z</time></trkpt>
<trkpt lat="46.49355" lon="6.73391"><ele>444.6</ele><time>2023-06-17T16:44:25Z</time></trkpt>
<trkpt lat="46.49342" lon="6.73381"><ele>443.6</ele><time>2023-06-17T16:44:27Z</time></trkpt>
<trkpt lat="46.49335" lon="6.73378"><ele>443.4</ele><time>2023-06-17T16:44:28Z</time></trkpt>
<trkpt lat="46.49304" lon="6.73365"><ele>443</ele><time>2023-06-17T16:44:32Z</time></trkpt>
<trkpt lat="46.4928" lon="6.73352"><ele>442.2</ele><time>2023-06-17T16:44:35Z</time></trkpt>
<trkpt lat="46.49272" lon="6.73345"><ele>442</ele><time>2023-06-17T16:44:36Z</time></trkpt>
<trkpt lat="46.49265" lon="6.73337"><ele>440.6</ele><time>2023-06-17T16:44:37Z</time></trkpt>
<trkpt lat="46.49258" lon="6.73328"><ele>440</ele><time>2023-06-17T16:44:38Z</time></trkpt>
<trkpt lat="46.49247" lon="6.73308"><ele>438.8</ele><time>2023-06-17T16:44:40Z</time></trkpt>
<trkpt lat="46.49242" lon="6.73298"><ele>438.2</ele><time>2023-06-17T16:44:41Z</time></trkpt>
<trkpt lat="46.49236" lon="6.73287"><ele>437.4</ele><time>2023-06-17T16:44:42Z</time></trkpt>
<trkpt lat="46.49226" lon="6.73265"><ele>436.4</ele><time>2023-06-17T16:44:44Z</time></trkpt>
<trkpt lat="46.49209" lon="6.73236"><ele>434.8</ele><time>2023-06-17T16:44:47Z</time></trkpt>
<trkpt lat="46.49203" lon="6.73227"><ele>434.6</ele><time>2023-06-17T16:44:48Z</time></trkpt>
<trkpt lat="46.49189" lon="6.73212"><ele>433</ele><time>2023-06-17T16:44:50Z</time></trkpt>
<trkpt lat="46.49181" lon="6.73204"><ele>431.6</ele><time>2023-06-17T16:44:51Z</time></trkpt>
<trkpt lat="46.49168" lon="6.73185"><ele>431.2</ele><time>2023-06-17T16:44:53Z</time></trkpt>
<trkpt lat="46.49157" lon="6.73162"><ele>430.4</ele><time>2023-06-17T16:44:55Z</time></trkpt>
<trkpt lat="46.4915" lon="6.73137"><ele>429.4</ele><time>2023-06-17T16:44:57Z</time></trkpt>
<trkpt lat="46.49141" lon="6.73086"><ele>427.8</ele><time>2023-06-17T16:45:01Z</time></trkpt>
<trkpt lat="46.49137" lon="6.73074"><ele>427</ele><time>2023-06-17T16:45:02Z</time></trkpt>
<trkpt lat="46.49133" lon="6.73062"><ele>426.8</ele><time>2023-06-17T16:45:03Z</time></trkpt>
<trkpt lat="46.49128" lon="6.73051"><ele>426.2</ele><time>2023-06-17T16:45:04Z</time></trkpt>
<trkpt lat="46.49123" lon="6.73042"><ele>426</ele><time>2023-06-17T16:45:05Z</time></trkpt>
<trkpt lat="46.49117" lon="6.73033"><ele>425</ele><time>2023-06-17T16:45:06Z</time></trkpt>
<trkpt lat="46.4911" lon="6.73025"><ele>424.8</ele><time>2023-06-17T16:45:07Z</time></trkpt>
<trkpt lat="46.49102" lon="6.73017"><ele>423.4</ele><time>2023-06-17T16:45:08Z</time></trkpt>
<trkpt lat="46.49087" lon="6.73004"><ele>422</ele><time>2023-06-17T16:45:10Z</time></trkpt>
<trkpt lat="46.49062" lon="6.72986"><ele>420.4</ele><time>2023-06-17T16:45:13Z</time></trkpt>
<trkpt lat="46.49036" lon="6.72966"><ele>418.6</ele><time>2023-06-17T16:45:16Z</time></trkpt>
<trkpt lat="46.4901" lon="6.72945"><ele>417.6</ele><time>2023-06-17T16:45:19Z</time></trkpt>
<trkpt lat="46.49001" lon="6.72938"><ele>417.4</ele><time>2023-06-17T16:45:20Z</time></trkpt>
<trkpt lat="46.48994" lon="6.7293"><ele>415.6</ele><time>2023-06-17T16:45:21Z</time></trkpt>
<trkpt lat="46.48986" lon="6.7292"><ele>414.6</ele><time>2023-06-17T16:45:22Z</time></trkpt>
<trkpt lat="46.48979" lon="6.72909"><ele>414.4</ele><time>2023-06-17T16:45:23Z</time></trkpt>
<trkpt lat="46.48969" lon="6.72884"><ele>413.6</ele><time>2023-06-17T16:45:25Z</time></trkpt>
<trkpt lat="46.48965" lon="6.72871"><ele>413.2</ele><time>2023-06-17T16:45:26Z</time></trkpt>
<trkpt lat="46.48962" lon="6.72857"><ele>413.2</ele><time>2023-06-17T16:45:27Z</time></trkpt>
<trkpt lat="46.48958" lon="6.72829"><ele>412.2</ele><time>2023-06-17T16:45:29Z</time></trkpt>
<trkpt lat="46.48956" lon="6.72816"><ele>411.4</ele><time>2023-06-17T16:45:30Z</time></trkpt>
<trkpt lat="46.48954" lon="6.72802"><ele>409.8</ele><time>2023-06-17T16:45:31Z</time></trkpt>
<trkpt lat="46.4895" lon="6.72775"><ele>408.4</ele><time>2023-06-17T16:45:33Z</time></trkpt>
<trkpt lat="46.48946" lon="6.72734"><ele>407</ele><time>2023-06-17T16:45:36Z</time></trkpt>
<trkpt lat="46.4894" lon="6.72697"><ele>406</ele><time>2023-06-17T16:45:39Z</time></trkpt>
<trkpt lat="46.48935" lon="6.72689"><ele>405.6</ele><time>2023-06-17T16:45:40Z</time></trkpt>
<trkpt lat="46.48928" lon="6.72684"><ele>404.4</ele><time>2023-06-17T16:45:41Z</time></trkpt>
<trkpt lat="46.48918" lon="6.72676"><ele>402.8</ele><time>2023-06-17T16:45:43Z</time></trkpt>
<trkpt lat="46.48912" lon="6.72674"><ele>402.6</ele><time>2023-06-17T16:45:44Z</time></trkpt>
<trkpt lat="46.48906" lon="6.72676"><ele>402.2</ele><time>2023-06-17T16:45:45Z</time></trkpt>
<trkpt lat="46.489" lon="6.7268"><ele>401.6</ele><time>2023-06-17T16:45:46Z</time></trkpt>
<trkpt lat="46.48889" lon="6.72683"><ele>401.4</ele><time>2023-06-17T16:45:48Z</time></trkpt>
<trkpt lat="46.48883" lon="6.72672"><ele>401.4</ele><time>2023-06-17T16:45:50Z</time></trkpt>
<trkpt lat="46.48878" lon="6.72651"><ele>401.8</ele><time>2023-06-17T16:45:54Z</time></trkpt>
<trkpt lat="46.48872" lon="6.72629"><ele>402.8</ele><time>2023-06-17T16:45:59Z</time></trkpt>
<trkpt lat="46.48867" lon="6.7262"><ele>402.8</ele><time>2023-06-17T16:46:01Z</time></trkpt>
<trkpt lat="46.48856" lon="6.72593"><ele>402.6</ele><time>2023-06-17T16:46:07Z</time></trkpt>
<trkpt lat="46.48853" lon="6.72583"><ele>402.6</ele><time>2023-06-17T16:46:09Z</time></trkpt>
<trkpt lat="46.48845" lon="6.72562"><ele>401.8</ele><time>2023-06-17T16:46:14Z</time></trkpt>
<trkpt lat="46.48845" lon="6.72536"><ele>402.4</ele><time>2023-06-17T16:46:19Z</time></trkpt>
<trkpt lat="46.48844" lon="6.72502"><ele>402</ele><time>2023-06-17T16:46:25Z</time></trkpt>
<trkpt lat="46.48841" lon="6.72459"><ele>402.4</ele><time>2023-06-17T16:46:33Z</time></trkpt>
<trkpt lat="46.48841" lon="6.7242"><ele>402.6</ele><time>2023-06-17T16:46:40Z</time></trkpt>
<trkpt lat="46.48836" lon="6.72402"><ele>403.4</ele><time>2023-06-17T16:46:45Z</time></trkpt>
<trkpt lat="46.48833" lon="6.72393"><ele>403.8</ele><time>2023-06-17T16:46:50Z</time></trkpt>
<trkpt lat="46.48831" lon="6.72382"><ele>404.4</ele><time>2023-06-17T16:46:55Z</time></trkpt>
<trkpt lat="46.48829" lon="6.72376"><ele>404.8</ele><time>2023-06-17T16:46:58Z</time></trkpt>
<trkpt lat="46.48827" lon="6.7237"><ele>405.2</ele><time>2023-06-17T16:47:01Z</time></trkpt>
<trkpt lat="46.48824" lon="6.72362"><ele>405.4</ele><time>2023-06-17T16:47:05Z</time></trkpt>
<trkpt lat="46.48823" lon="6.72355"><ele>406</ele><time>2023-06-17T16:47:08Z</time></trkpt>
<trkpt lat="46.48822" lon="6.72352"><ele>406.2</ele><time>2023-06-17T16:47:09Z</time></trkpt>
<trkpt lat="46.48821" lon="6.72341"><ele>407</ele><time>2023-06-17T16:47:14Z</time></trkpt>
<trkpt lat="46.48821" lon="6.72339"><ele>407</ele><time>2023-06-17T16:47:15Z</time></trkpt>
<trkpt lat="46.48821" lon="6.72326"><ele>407.8</ele><time>2023-06-17T16:47:20Z</time></trkpt>
<trkpt lat="46.48821" lon="6.72319"><ele>408.2</ele><time>2023-06-17T16:47:23Z</time></trkpt>
<trkpt lat="46.48821" lon="6.72306"><ele>408.6</ele><time>2023-06-17T16:47:27Z</time></trkpt>
<trkpt lat="46.48821" lon="6.72283"><ele>409.2</ele><time>2023-06-17T16:47:36Z</time></trkpt>
<trkpt lat="46.4882" lon="6.7228"><ele>409.2</ele><time>2023-06-17T16:47:37Z</time></trkpt>
<trkpt lat="46.48821" lon="6.72255"><ele>410.2</ele><time>2023-06-17T16:47:46Z</time></trkpt>
<trkpt lat="46.4882" lon="6.72252"><ele>410.4</ele><time>2023-06-17T16:47:47Z</time></trkpt>
<trkpt lat="46.48819" lon="6.7224"><ele>410.8</ele><time>2023-06-17T16:47:52Z</time></trkpt>
<trkpt lat="46.48819" lon="6.72226"><ele>411.2</ele><time>2023-06-17T16:47:57Z</time></trkpt>
<trkpt lat="46.48819" lon="6.7222"><ele>411.4</ele><time>2023-06-17T16:47:59Z</time></trkpt>
<trkpt lat="46.48819" lon="6.72215"><ele>411.6</ele><time>2023-06-17T16:48:01Z</time></trkpt>
<trkpt lat="46.48819" lon="6.72201"><ele>412.4</ele><time>2023-06-17T16:48:06Z</time></trkpt>
<trkpt lat="46.48818" lon="6.722"><ele>412.6</ele><time>2023-06-17T16:48:07Z</time></trkpt>
<trkpt lat="46.48817" lon="6.72193"><ele>412.8</ele><time>2023-06-17T16:48:11Z</time></trkpt>
<trkpt lat="46.48818" lon="6.72189"><ele>412.8</ele><time>2023-06-17T16:48:13Z</time></trkpt>
<trkpt lat="46.48817" lon="6.72187"><ele>412.8</ele><time>2023-06-17T16:48:14Z</time></trkpt>
<trkpt lat="46.48818" lon="6.72172"><ele>413.6</ele><time>2023-06-17T16:48:19Z</time></trkpt>
<trkpt lat="46.48817" lon="6.72163"><ele>414</ele><time>2023-06-17T16:48:22Z</time></trkpt>
<trkpt lat="46.48817" lon="6.72156"><ele>414</ele><time>2023-06-17T16:48:24Z</time></trkpt>
<trkpt lat="46.48817" lon="6.72146"><ele>414</ele><time>2023-06-17T16:48:26Z</time></trkpt>
<trkpt lat="46.48821" lon="6.72114"><ele>412.6</ele><time>2023-06-17T16:48:31Z</time></trkpt>
<trkpt lat="46.48822" lon="6.72106"><ele>412</ele><time>2023-06-17T16:48:32Z</time></trkpt>
<trkpt lat="46.48828" lon="6.72083"><ele>411.2</ele><time>2023-06-17T16:48:35Z</time></trkpt>
<trkpt lat="46.48835" lon="6.72063"><ele>410</ele><time>2023-06-17T16:48:38Z</time></trkpt>
<trkpt lat="46.48838" lon="6.72056"><ele>410</ele><time>2023-06-17T16:48:39Z</time></trkpt>
<trkpt lat="46.48848" lon="6.72032"><ele>410.4</ele><time>2023-06-17T16:48:43Z</time></trkpt>
<trkpt lat="46.48863" lon="6.71997"><ele>410.8</ele><time>2023-06-17T16:48:50Z</time></trkpt>
<trkpt lat="46.4887" lon="6.71984"><ele>411</ele><time>2023-06-17T16:48:54Z</time></trkpt>
<trkpt lat="46.48876" lon="6.71976"><ele>411.2</ele><time>2023-06-17T16:48:57Z</time></trkpt>
<trkpt lat="46.48885" lon="6.71965"><ele>410.6</ele><time>2023-06-17T16:49:02Z</time></trkpt>
<trkpt lat="46.48892" lon="6.71955"><ele>409.8</ele><time>2023-06-17T16:49:06Z</time></trkpt>
<trkpt lat="46.48898" lon="6.71944"><ele>409.8</ele><time>2023-06-17T16:49:09Z</time></trkpt>
<trkpt lat="46.48904" lon="6.71936"><ele>409.4</ele><time>2023-06-17T16:49:11Z</time></trkpt>
<trkpt lat="46.48911" lon="6.71925"><ele>408.8</ele><time>2023-06-17T16:49:13Z</time></trkpt>
<trkpt lat="46.48922" lon="6.71902"><ele>407.2</ele><time>2023-06-17T16:49:16Z</time></trkpt>
<trkpt lat="46.48931" lon="6.71885"><ele>406</ele><time>2023-06-17T16:49:18Z</time></trkpt>
<trkpt lat="46.48953" lon="6.71843"><ele>406.2</ele><time>2023-06-17T16:49:24Z</time></trkpt>
<trkpt lat="46.48965" lon="6.71825"><ele>407.2</ele><time>2023-06-17T16:49:28Z</time></trkpt>
<trkpt lat="46.48968" lon="6.71821"><ele>407.4</ele><time>2023-06-17T16:49:29Z</time></trkpt>
<trkpt lat="46.4898" lon="6.71801"><ele>408</ele><time>2023-06-17T16:49:35Z</time></trkpt>
<trkpt lat="46.48982" lon="6.71799"><ele>408.2</ele><time>2023-06-17T16:49:36Z</time></trkpt>
<trkpt lat="46.48996" lon="6.71786"><ele>409.4</ele><time>2023-06-17T16:49:43Z</time></trkpt>
<trkpt lat="46.49007" lon="6.71778"><ele>410</ele><time>2023-06-17T16:49:50Z</time></trkpt>
<trkpt lat="46.49011" lon="6.71773"><ele>410.4</ele><time>2023-06-17T16:49:53Z</time></trkpt>
<trkpt lat="46.4902" lon="6.71762"><ele>411.2</ele><time>2023-06-17T16:49:58Z</time></trkpt>
<trkpt lat="46.49024" lon="6.71757"><ele>411.4</ele><time>2023-06-17T16:50:00Z</time></trkpt>
<trkpt lat="46.49029" lon="6.71752"><ele>411.6</ele><time>2023-06-17T16:50:02Z</time></trkpt>
<trkpt lat="46.49031" lon="6.7175"><ele>411.6</ele><time>2023-06-17T16:50:03Z</time></trkpt>
<trkpt lat="46.49037" lon="6.71745"><ele>411.8</ele><time>2023-06-17T16:50:06Z</time></trkpt>
<trkpt lat="46.49044" lon="6.71739"><ele>412.4</ele><time>2023-06-17T16:50:10Z</time></trkpt>
<trkpt lat="46.49052" lon="6.71732"><ele>413.6</ele><time>2023-06-17T16:50:15Z</time></trkpt>
<trkpt lat="46.49061" lon="6.71723"><ele>414.6</ele><time>2023-06-17T16:50:22Z</time></trkpt>
<trkpt lat="46.49063" lon="6.71719"><ele>415</ele><time>2023-06-17T16:50:24Z</time></trkpt>
<trkpt lat="46.49066" lon="6.71715"><ele>415.6</ele><time>2023-06-17T16:50:26Z</time></trkpt>
<trkpt lat="46.49069" lon="6.71712"><ele>416.2</ele><time>2023-06-17T16:50:28Z</time></trkpt>
<trkpt lat="46.49071" lon="6.71708"><ele>416.6</ele><time>2023-06-17T16:50:30Z</time></trkpt>
<trkpt lat="46.49076" lon="6.71697"><ele>417.2</ele><time>2023-06-17T16:50:35Z</time></trkpt>
<trkpt lat="46.49081" lon="6.7169"><ele>417.6</ele><time>2023-06-17T16:50:39Z</time></trkpt>
<trkpt lat="46.49087" lon="6.7168"><ele>418.4</ele><time>2023-06-17T16:50:44Z</time></trkpt>
<trkpt lat="46.49091" lon="6.71674"><ele>418.8</ele><time>2023-06-17T16:50:47Z</time></trkpt>
<trkpt lat="46.49104" lon="6.71655"><ele>419.4</ele><time>2023-06-17T16:50:55Z</time></trkpt>
<trkpt lat="46.49109" lon="6.71647"><ele>419.6</ele><time>2023-06-17T16:50:58Z</time></trkpt>
<trkpt lat="46.49126" lon="6.71623"><ele>419.2</ele><time>2023-06-17T16:51:05Z</time></trkpt>
<trkpt lat="46.49129" lon="6.7162"><ele>419.2</ele><time>2023-06-17T16:51:06Z</time></trkpt>
<trkpt lat="46.49136" lon="6.71608"><ele>419.2</ele><time>2023-06-17T16:51:09Z</time></trkpt>
<trkpt lat="46.49146" lon="6.71587"><ele>418.6</ele><time>2023-06-17T16:51:13Z</time></trkpt>
<trkpt lat="46.4915" lon="6.71581"><ele>418.4</ele><time>2023-06-17T16:51:14Z</time></trkpt>
<trkpt lat="46.49159" lon="6.71568"><ele>416.8</ele><time>2023-06-17T16:51:16Z</time></trkpt>
<trkpt lat="46.49164" lon="6.71559"><ele>416</ele><time>2023-06-17T16:51:17Z</time></trkpt>
<trkpt lat="46.49168" lon="6.71551"><ele>415.4</ele><time>2023-06-17T16:51:18Z</time></trkpt>
<trkpt lat="46.49172" lon="6.71542"><ele>415.4</ele><time>2023-06-17T16:51:19Z</time></trkpt>
<trkpt lat="46.49177" lon="6.71521"><ele>415</ele><time>2023-06-17T16:51:21Z</time></trkpt>
<trkpt lat="46.49183" lon="6.715"><ele>414.2</ele><time>2023-06-17T16:51:23Z</time></trkpt>
<trkpt lat="46.49189" lon="6.71478"><ele>413.2</ele><time>2023-06-17T16:51:25Z</time></trkpt>
<trkpt lat="46.49194" lon="6.71457"><ele>412.4</ele><time>2023-06-17T16:51:27Z</time></trkpt>
<trkpt lat="46.492" lon="6.71425"><ele>412.6</ele><time>2023-06-17T16:51:31Z</time></trkpt>
<trkpt lat="46.49201" lon="6.71413"><ele>414.6</ele><time>2023-06-17T16:51:35Z</time></trkpt>
<trkpt lat="46.492" lon="6.71401"><ele>415</ele><time>2023-06-17T16:51:41Z</time></trkpt>
<trkpt lat="46.492" lon="6.71374"><ele>415</ele><time>2023-06-17T16:51:47Z</time></trkpt>
<trkpt lat="46.49202" lon="6.71344"><ele>414.2</ele><time>2023-06-17T16:51:51Z</time></trkpt>
<trkpt lat="46.49203" lon="6.71335"><ele>413.8</ele><time>2023-06-17T16:51:52Z</time></trkpt>
<trkpt lat="46.49208" lon="6.71321"><ele>413.4</ele><time>2023-06-17T16:51:54Z</time></trkpt>
<trkpt lat="46.49213" lon="6.71309"><ele>413.2</ele><time>2023-06-17T16:51:56Z</time></trkpt>
<trkpt lat="46.49227" lon="6.7128"><ele>413</ele><time>2023-06-17T16:52:01Z</time></trkpt>
<trkpt lat="46.49236" lon="6.71267"><ele>411.8</ele><time>2023-06-17T16:52:03Z</time></trkpt>
<trkpt lat="46.49247" lon="6.71254"><ele>410.4</ele><time>2023-06-17T16:52:05Z</time></trkpt>
<trkpt lat="46.49252" lon="6.71248"><ele>410</ele><time>2023-06-17T16:52:06Z</time></trkpt>
<trkpt lat="46.49274" lon="6.71225"><ele>408.8</ele><time>2023-06-17T16:52:10Z</time></trkpt>
<trkpt lat="46.49291" lon="6.71204"><ele>407.8</ele><time>2023-06-17T16:52:13Z</time></trkpt>
<trkpt lat="46.49296" lon="6.71196"><ele>407.4</ele><time>2023-06-17T16:52:14Z</time></trkpt>
<trkpt lat="46.49301" lon="6.71188"><ele>406.4</ele><time>2023-06-17T16:52:15Z</time></trkpt>
<trkpt lat="46.49316" lon="6.7116"><ele>404.8</ele><time>2023-06-17T16:52:18Z</time></trkpt>
<trkpt lat="46.49322" lon="6.71149"><ele>404.4</ele><time>2023-06-17T16:52:19Z</time></trkpt>
<trkpt lat="46.49334" lon="6.71127"><ele>403.2</ele><time>2023-06-17T16:52:21Z</time></trkpt>
<trkpt lat="46.4934" lon="6.71116"><ele>402</ele><time>2023-06-17T16:52:22Z</time></trkpt>
<trkpt lat="46.49346" lon="6.71107"><ele>401.2</ele><time>2023-06-17T16:52:23Z</time></trkpt>
<trkpt lat="46.49353" lon="6.711"><ele>400.4</ele><time>2023-06-17T16:52:24Z</time></trkpt>
<trkpt lat="46.49375" lon="6.71078"><ele>400.2</ele><time>2023-06-17T16:52:28Z</time></trkpt>
<trkpt lat="46.49385" lon="6.7107"><ele>401</ele><time>2023-06-17T16:52:30Z</time></trkpt>
<trkpt lat="46.49389" lon="6.71066"><ele>401.4</ele><time>2023-06-17T16:52:31Z</time></trkpt>
<trkpt lat="46.49401" lon="6.71058"><ele>402</ele><time>2023-06-17T16:52:34Z</time></trkpt>
<trkpt lat="46.49404" lon="6.71057"><ele>402.4</ele><time>2023-06-17T16:52:35Z</time></trkpt>
<trkpt lat="46.4941" lon="6.71053"><ele>403.6</ele><time>2023-06-17T16:52:38Z</time></trkpt>
<trkpt lat="46.49411" lon="6.71053"><ele>403.6</ele><time>2023-06-17T16:52:39Z</time></trkpt>
<trkpt lat="46.49422" lon="6.71044"><ele>403.6</ele><time>2023-06-17T16:52:43Z</time></trkpt>
<trkpt lat="46.49436" lon="6.71031"><ele>403.4</ele><time>2023-06-17T16:52:47Z</time></trkpt>
<trkpt lat="46.49443" lon="6.71024"><ele>403.4</ele><time>2023-06-17T16:52:49Z</time></trkpt>
<trkpt lat="46.49445" lon="6.71021"><ele>403.4</ele><time>2023-06-17T16:52:50Z</time></trkpt>
<trkpt lat="46.49453" lon="6.71011"><ele>403.4</ele><time>2023-06-17T16:52:53Z</time></trkpt>
<trkpt lat="46.49461" lon="6.70997"><ele>403</ele><time>2023-06-17T16:52:56Z</time></trkpt>
<trkpt lat="46.49468" lon="6.70985"><ele>402.4</ele><time>2023-06-17T16:52:58Z</time></trkpt>
<trkpt lat="46.49478" lon="6.70965"><ele>401.2</ele><time>2023-06-17T16:53:01Z</time></trkpt>
<trkpt lat="46.49482" lon="6.70959"><ele>400.8</ele><time>2023-06-17T16:53:02Z</time></trkpt>
<trkpt lat="46.49485" lon="6.70952"><ele>400</ele><time>2023-06-17T16:53:03Z</time></trkpt>
<trkpt lat="46.49494" lon="6.70932"><ele>398.8</ele><time>2023-06-17T16:53:06Z</time></trkpt>
<trkpt lat="46.49496" lon="6.70926"><ele>398.2</ele><time>2023-06-17T16:53:07Z</time></trkpt>
<trkpt lat="46.49496" lon="6.7092"><ele>398</ele><time>2023-06-17T16:53:08Z</time></trkpt>
<trkpt lat="46.49494" lon="6.70916"><ele>397.6</ele><time>2023-06-17T16:53:09Z</time></trkpt>
<trkpt lat="46.49489" lon="6.7091"><ele>396.4</ele><time>2023-06-17T16:53:11Z</time></trkpt>
<trkpt lat="46.49485" lon="6.70903"><ele>395.4</ele><time>2023-06-17T16:53:13Z</time></trkpt>
<trkpt lat="46.49483" lon="6.709"><ele>395</ele><time>2023-06-17T16:53:14Z</time></trkpt>
<trkpt lat="46.49476" lon="6.70895"><ele>394.4</ele><time>2023-06-17T16:53:17Z</time></trkpt>
<trkpt lat="46.49473" lon="6.70895"><ele>394.2</ele><time>2023-06-17T16:53:18Z</time></trkpt>
<trkpt lat="46.49471" lon="6.70897"><ele>393.8</ele><time>2023-06-17T16:53:19Z</time></trkpt>
<trkpt lat="46.49467" lon="6.70902"><ele>393.8</ele><time>2023-06-17T16:53:21Z</time></trkpt>
<trkpt lat="46.49456" lon="6.70918"><ele>393.6</ele><time>2023-06-17T16:53:27Z</time></trkpt>
<trkpt lat="46.49445" lon="6.70932"><ele>393.6</ele><time>2023-06-17T16:53:33Z</time></trkpt>
<trkpt lat="46.4944" lon="6.70946"><ele>393.6</ele><time>2023-06-17T16:53:38Z</time></trkpt>
<trkpt lat="46.49438" lon="6.70949"><ele>393.6</ele><time>2023-06-17T16:53:43Z</time></trkpt>
<trkpt lat="46.49438" lon="6.70949"><ele>393.2</ele><time>2023-06-17T16:53:49Z</time></trkpt>
<trkpt lat="46.49439" lon="6.7095"><ele>393.2</ele><time>2023-06-17T16:53:55Z</time></trkpt>
<trkpt lat="46.49441" lon="6.70949"><ele>393.2</ele><time>2023-06-17T16:54:00Z</time></trkpt>
<trkpt lat="46.49441" lon="6.7095"><ele>393.2</ele><time>2023-06-17T16:54:02Z</time></trkpt>
<trkpt lat="46.4944" lon="6.70949"><ele>393.2</ele><time>2023-06-17T16:54:04Z</time></trkpt>
</trkseg></trk></gpx>